<?xml version='1.0' encoding='UTF-8'?><gpx version="1.1" creator="JPX - https://github.com/jenetics/jpx" xmlns="http://www.topografix.com/GPX/1/1"><trk><trkseg><trkpt lat="42.8610402" lon="11.8197686"><ele>569.0</ele><time>2026-04-26T08:54:39.817Z</time></trkpt><trkpt lat="42.8610917" lon="11.8198506"><ele>569.0</ele><time>2026-04-26T08:55:03.818Z</time></trkpt><trkpt lat="42.8611395" lon="11.8199453"><ele>569.0</ele><time>2026-04-26T08:55:06.818Z</time></trkpt><trkpt lat="42.8611702" lon="11.8200757"><ele>569.0</ele><time>2026-04-26T08:55:09.817Z</time></trkpt><trkpt lat="42.861184" lon="11.8201789"><ele>569.0</ele><time>2026-04-26T08:55:11.818Z</time></trkpt><trkpt lat="42.8611942" lon="11.8202887"><ele>569.0</ele><time>2026-04-26T08:55:13.818Z</time></trkpt><trkpt lat="42.8612041" lon="11.8203811"><ele>567.0</ele><time>2026-04-26T08:55:15.817Z</time></trkpt><trkpt lat="42.8612196" lon="11.8204771"><ele>565.0</ele><time>2026-04-26T08:55:17.818Z</time></trkpt><trkpt lat="42.8612683" lon="11.8205903"><ele>563.0</ele><time>2026-04-26T08:55:19.817Z</time></trkpt><trkpt lat="42.8613191" lon="11.820682"><ele>561.0</ele><time>2026-04-26T08:55:21.818Z</time></trkpt><trkpt lat="42.861372" lon="11.8207841"><ele>559.0</ele><time>2026-04-26T08:55:23.817Z</time></trkpt><trkpt lat="42.8614233" lon="11.8208778"><ele>557.0</ele><time>2026-04-26T08:55:25.818Z</time></trkpt><trkpt lat="42.8614721" lon="11.8209787"><ele>556.3333333333333</ele><time>2026-04-26T08:55:27.817Z</time></trkpt><trkpt lat="42.8615361" lon="11.8210742"><ele>555.6666666666666</ele><time>2026-04-26T08:55:29.817Z</time></trkpt><trkpt lat="42.8616149" lon="11.8211664"><ele>555.0</ele><time>2026-04-26T08:55:31.817Z</time></trkpt><trkpt lat="42.8616817" lon="11.8212358"><ele>554.3333333333334</ele><time>2026-04-26T08:55:33.818Z</time></trkpt><trkpt lat="42.8617373" lon="11.8212897"><ele>553.6666666666667</ele><time>2026-04-26T08:55:35.817Z</time></trkpt><trkpt lat="42.8618086" lon="11.8213383"><ele>553.0</ele><time>2026-04-26T08:55:37.818Z</time></trkpt><trkpt lat="42.8619019" lon="11.8213847"><ele>553.0</ele><time>2026-04-26T08:55:39.818Z</time></trkpt><trkpt lat="42.8620107" lon="11.8214358"><ele>553.0</ele><time>2026-04-26T08:55:41.818Z</time></trkpt><trkpt lat="42.8621073" lon="11.821485"><ele>553.0</ele><time>2026-04-26T08:55:43.817Z</time></trkpt><trkpt lat="42.8621801" lon="11.8215334"><ele>553.0</ele><time>2026-04-26T08:55:45.818Z</time></trkpt><trkpt lat="42.862234" lon="11.8216036"><ele>553.0</ele><time>2026-04-26T08:55:47.818Z</time></trkpt><trkpt lat="42.8622479" lon="11.8217491"><ele>553.8333333333334</ele><time>2026-04-26T08:55:49.818Z</time></trkpt><trkpt lat="42.8622392" lon="11.821861"><ele>554.6666666666667</ele><time>2026-04-26T08:55:50.818Z</time></trkpt><trkpt lat="42.8622288" lon="11.8219933"><ele>555.5</ele><time>2026-04-26T08:55:51.818Z</time></trkpt><trkpt lat="42.8622176" lon="11.8221161"><ele>556.3333333333334</ele><time>2026-04-26T08:55:52.818Z</time></trkpt><trkpt lat="42.8622211" lon="11.8222381"><ele>557.1666666666666</ele><time>2026-04-26T08:55:53.817Z</time></trkpt><trkpt lat="42.8622202" lon="11.8223597"><ele>558.0</ele><time>2026-04-26T08:55:54.818Z</time></trkpt><trkpt lat="42.8622134" lon="11.8224878"><ele>558.0</ele><time>2026-04-26T08:55:55.818Z</time></trkpt><trkpt lat="42.8622068" lon="11.8226069"><ele>558.0</ele><time>2026-04-26T08:55:56.818Z</time></trkpt><trkpt lat="42.8621975" lon="11.8227375"><ele>558.0</ele><time>2026-04-26T08:55:57.818Z</time></trkpt><trkpt lat="42.8622004" lon="11.8228818"><ele>558.0</ele><time>2026-04-26T08:55:58.817Z</time></trkpt><trkpt lat="42.862201" lon="11.8230197"><ele>558.0</ele><time>2026-04-26T08:55:59.818Z</time></trkpt><trkpt lat="42.8622057" lon="11.8231715"><ele>557.1999999999999</ele><time>2026-04-26T08:56:00.817Z</time></trkpt><trkpt lat="42.8621956" lon="11.8233114"><ele>556.4</ele><time>2026-04-26T08:56:01.818Z</time></trkpt><trkpt lat="42.8621722" lon="11.8234583"><ele>555.5999999999999</ele><time>2026-04-26T08:56:02.818Z</time></trkpt><trkpt lat="42.8621409" lon="11.8235993"><ele>554.8</ele><time>2026-04-26T08:56:03.818Z</time></trkpt><trkpt lat="42.8621194" lon="11.8237523"><ele>554.0</ele><time>2026-04-26T08:56:04.817Z</time></trkpt><trkpt lat="42.8621033" lon="11.8239188"><ele>551.75</ele><time>2026-04-26T08:56:05.818Z</time></trkpt><trkpt lat="42.8621105" lon="11.8240905"><ele>549.5</ele><time>2026-04-26T08:56:06.817Z</time></trkpt><trkpt lat="42.8621558" lon="11.8242791"><ele>547.25</ele><time>2026-04-26T08:56:07.818Z</time></trkpt><trkpt lat="42.8622061" lon="11.824449"><ele>545.0</ele><time>2026-04-26T08:56:08.818Z</time></trkpt><trkpt lat="42.8622775" lon="11.8246244"><ele>542.75</ele><time>2026-04-26T08:56:09.818Z</time></trkpt><trkpt lat="42.8623634" lon="11.824774"><ele>540.5</ele><time>2026-04-26T08:56:10.818Z</time></trkpt><trkpt lat="42.8624608" lon="11.8249254"><ele>538.25</ele><time>2026-04-26T08:56:11.818Z</time></trkpt><trkpt lat="42.8625542" lon="11.8250671"><ele>536.0</ele><time>2026-04-26T08:56:12.818Z</time></trkpt><trkpt lat="42.8626522" lon="11.8251964"><ele>536.0</ele><time>2026-04-26T08:56:13.818Z</time></trkpt><trkpt lat="42.8627473" lon="11.8253076"><ele>536.0</ele><time>2026-04-26T08:56:14.818Z</time></trkpt><trkpt lat="42.8628488" lon="11.8254146"><ele>536.0</ele><time>2026-04-26T08:56:15.818Z</time></trkpt><trkpt lat="42.8629648" lon="11.8255281"><ele>536.0</ele><time>2026-04-26T08:56:16.818Z</time></trkpt><trkpt lat="42.863081" lon="11.8256463"><ele>536.0</ele><time>2026-04-26T08:56:17.818Z</time></trkpt><trkpt lat="42.863195" lon="11.8257701"><ele>536.0</ele><time>2026-04-26T08:56:18.818Z</time></trkpt><trkpt lat="42.8633024" lon="11.8259049"><ele>536.0</ele><time>2026-04-26T08:56:19.818Z</time></trkpt><trkpt lat="42.8633954" lon="11.8260543"><ele>536.0</ele><time>2026-04-26T08:56:20.818Z</time></trkpt><trkpt lat="42.863455" lon="11.826219"><ele>535.0</ele><time>2026-04-26T08:56:21.817Z</time></trkpt><trkpt lat="42.863486" lon="11.826403"><ele>534.0</ele><time>2026-04-26T08:56:22.817Z</time></trkpt><trkpt lat="42.8634862" lon="11.8265923"><ele>533.0</ele><time>2026-04-26T08:56:23.818Z</time></trkpt><trkpt lat="42.8634566" lon="11.8267883"><ele>532.0</ele><time>2026-04-26T08:56:24.818Z</time></trkpt><trkpt lat="42.8634376" lon="11.8269776"><ele>532.0</ele><time>2026-04-26T08:56:25.818Z</time></trkpt><trkpt lat="42.8634401" lon="11.8271692"><ele>532.0</ele><time>2026-04-26T08:56:26.818Z</time></trkpt><trkpt lat="42.8634728" lon="11.827369"><ele>532.0</ele><time>2026-04-26T08:56:27.818Z</time></trkpt><trkpt lat="42.8635195" lon="11.8275576"><ele>532.0</ele><time>2026-04-26T08:56:28.817Z</time></trkpt><trkpt lat="42.8635688" lon="11.8277574"><ele>532.3333333333334</ele><time>2026-04-26T08:56:29.817Z</time></trkpt><trkpt lat="42.8636084" lon="11.8279626"><ele>532.6666666666666</ele><time>2026-04-26T08:56:30.818Z</time></trkpt><trkpt lat="42.8636403" lon="11.8281737"><ele>533.0</ele><time>2026-04-26T08:56:31.818Z</time></trkpt><trkpt lat="42.8636675" lon="11.8283831"><ele>530.3333333333333</ele><time>2026-04-26T08:56:32.818Z</time></trkpt><trkpt lat="42.8637053" lon="11.8286069"><ele>527.6666666666666</ele><time>2026-04-26T08:56:33.818Z</time></trkpt><trkpt lat="42.8637411" lon="11.8288386"><ele>525.0</ele><time>2026-04-26T08:56:34.818Z</time></trkpt><trkpt lat="42.8637972" lon="11.8290593"><ele>525.0</ele><time>2026-04-26T08:56:35.817Z</time></trkpt><trkpt lat="42.8638698" lon="11.8292738"><ele>525.0</ele><time>2026-04-26T08:56:36.818Z</time></trkpt><trkpt lat="42.8639419" lon="11.8294937"><ele>525.0</ele><time>2026-04-26T08:56:37.818Z</time></trkpt><trkpt lat="42.8640103" lon="11.8297092"><ele>524.3333333333334</ele><time>2026-04-26T08:56:38.818Z</time></trkpt><trkpt lat="42.8640736" lon="11.8299272"><ele>523.6666666666667</ele><time>2026-04-26T08:56:39.817Z</time></trkpt><trkpt lat="42.8641332" lon="11.8301444"><ele>523.0</ele><time>2026-04-26T08:56:40.818Z</time></trkpt><trkpt lat="42.8641872" lon="11.8303499"><ele>522.25</ele><time>2026-04-26T08:56:41.818Z</time></trkpt><trkpt lat="42.8642525" lon="11.8305387"><ele>521.5</ele><time>2026-04-26T08:56:42.818Z</time></trkpt><trkpt lat="42.8643282" lon="11.830695"><ele>520.75</ele><time>2026-04-26T08:56:43.818Z</time></trkpt><trkpt lat="42.8644286" lon="11.8308237"><ele>520.0</ele><time>2026-04-26T08:56:44.818Z</time></trkpt><trkpt lat="42.8645565" lon="11.8309299"><ele>517.3333333333334</ele><time>2026-04-26T08:56:45.818Z</time></trkpt><trkpt lat="42.8646986" lon="11.8310399"><ele>514.6666666666666</ele><time>2026-04-26T08:56:46.818Z</time></trkpt><trkpt lat="42.8648465" lon="11.8311638"><ele>512.0</ele><time>2026-04-26T08:56:47.818Z</time></trkpt><trkpt lat="42.8649767" lon="11.8313127"><ele>512.0</ele><time>2026-04-26T08:56:48.818Z</time></trkpt><trkpt lat="42.8651019" lon="11.8314975"><ele>512.0</ele><time>2026-04-26T08:56:49.818Z</time></trkpt><trkpt lat="42.8652208" lon="11.8317065"><ele>512.0</ele><time>2026-04-26T08:56:50.818Z</time></trkpt><trkpt lat="42.8653322" lon="11.8319299"><ele>513.6666666666666</ele><time>2026-04-26T08:56:51.818Z</time></trkpt><trkpt lat="42.8654269" lon="11.8321509"><ele>515.3333333333334</ele><time>2026-04-26T08:56:52.818Z</time></trkpt><trkpt lat="42.8655094" lon="11.8323638"><ele>517.0</ele><time>2026-04-26T08:56:53.817Z</time></trkpt><trkpt lat="42.8655738" lon="11.8325652"><ele>516.3333333333334</ele><time>2026-04-26T08:56:54.817Z</time></trkpt><trkpt lat="42.8656083" lon="11.8327747"><ele>515.6666666666666</ele><time>2026-04-26T08:56:55.818Z</time></trkpt><trkpt lat="42.8656135" lon="11.8329863"><ele>515.0</ele><time>2026-04-26T08:56:56.817Z</time></trkpt><trkpt lat="42.8656056" lon="11.8332111"><ele>515.0</ele><time>2026-04-26T08:56:57.818Z</time></trkpt><trkpt lat="42.8655882" lon="11.8334339"><ele>515.0</ele><time>2026-04-26T08:56:58.818Z</time></trkpt><trkpt lat="42.8655825" lon="11.8336587"><ele>515.0</ele><time>2026-04-26T08:56:59.817Z</time></trkpt><trkpt lat="42.8655806" lon="11.8338651"><ele>515.0</ele><time>2026-04-26T08:57:00.817Z</time></trkpt><trkpt lat="42.8655759" lon="11.8340561"><ele>515.0</ele><time>2026-04-26T08:57:01.818Z</time></trkpt><trkpt lat="42.8655689" lon="11.8342194"><ele>515.0</ele><time>2026-04-26T08:57:02.817Z</time></trkpt><trkpt lat="42.8655577" lon="11.8343702"><ele>515.0</ele><time>2026-04-26T08:57:03.818Z</time></trkpt><trkpt lat="42.8655297" lon="11.8344927"><ele>515.0</ele><time>2026-04-26T08:57:04.818Z</time></trkpt><trkpt lat="42.8654841" lon="11.8345891"><ele>515.0</ele><time>2026-04-26T08:57:05.818Z</time></trkpt><trkpt lat="42.8654088" lon="11.8346155"><ele>515.0</ele><time>2026-04-26T08:57:06.818Z</time></trkpt><trkpt lat="42.865336" lon="11.8345679"><ele>515.0</ele><time>2026-04-26T08:57:07.817Z</time></trkpt><trkpt lat="42.8652822" lon="11.8344714"><ele>515.0</ele><time>2026-04-26T08:57:08.818Z</time></trkpt><trkpt lat="42.8652467" lon="11.8343437"><ele>515.0</ele><time>2026-04-26T08:57:09.818Z</time></trkpt><trkpt lat="42.8652282" lon="11.8341828"><ele>515.0</ele><time>2026-04-26T08:57:10.818Z</time></trkpt><trkpt lat="42.8652142" lon="11.8340001"><ele>515.0</ele><time>2026-04-26T08:57:11.818Z</time></trkpt><trkpt lat="42.865193" lon="11.8337993"><ele>515.0</ele><time>2026-04-26T08:57:12.817Z</time></trkpt><trkpt lat="42.8651666" lon="11.8335842"><ele>515.0</ele><time>2026-04-26T08:57:13.818Z</time></trkpt><trkpt lat="42.865126" lon="11.8333651"><ele>512.0</ele><time>2026-04-26T08:57:14.818Z</time></trkpt><trkpt lat="42.8650736" lon="11.8331511"><ele>509.0</ele><time>2026-04-26T08:57:15.817Z</time></trkpt><trkpt lat="42.8650195" lon="11.8329401"><ele>506.0</ele><time>2026-04-26T08:57:16.818Z</time></trkpt><trkpt lat="42.8649704" lon="11.8327202"><ele>506.0</ele><time>2026-04-26T08:57:17.817Z</time></trkpt><trkpt lat="42.864927" lon="11.8325137"><ele>506.0</ele><time>2026-04-26T08:57:18.818Z</time></trkpt><trkpt lat="42.8648831" lon="11.8323176"><ele>506.0</ele><time>2026-04-26T08:57:19.818Z</time></trkpt><trkpt lat="42.8648294" lon="11.8321451"><ele>506.0</ele><time>2026-04-26T08:57:20.817Z</time></trkpt><trkpt lat="42.8647624" lon="11.8320181"><ele>506.0</ele><time>2026-04-26T08:57:21.818Z</time></trkpt><trkpt lat="42.8646649" lon="11.8319577"><ele>506.0</ele><time>2026-04-26T08:57:22.817Z</time></trkpt><trkpt lat="42.8645719" lon="11.8319741"><ele>506.0</ele><time>2026-04-26T08:57:23.818Z</time></trkpt><trkpt lat="42.8644847" lon="11.8320497"><ele>506.0</ele><time>2026-04-26T08:57:24.818Z</time></trkpt><trkpt lat="42.8644292" lon="11.8321642"><ele>506.0</ele><time>2026-04-26T08:57:25.817Z</time></trkpt><trkpt lat="42.86443" lon="11.8323207"><ele>506.0</ele><time>2026-04-26T08:57:26.817Z</time></trkpt><trkpt lat="42.8644717" lon="11.8324681"><ele>506.0</ele><time>2026-04-26T08:57:27.817Z</time></trkpt><trkpt lat="42.8645051" lon="11.8326161"><ele>506.0</ele><time>2026-04-26T08:57:28.818Z</time></trkpt><trkpt lat="42.8645082" lon="11.8327516"><ele>506.0</ele><time>2026-04-26T08:57:29.818Z</time></trkpt><trkpt lat="42.8644422" lon="11.8328561"><ele>506.0</ele><time>2026-04-26T08:57:30.818Z</time></trkpt><trkpt lat="42.8643433" lon="11.8329019"><ele>502.25</ele><time>2026-04-26T08:57:31.818Z</time></trkpt><trkpt lat="42.8642353" lon="11.8328621"><ele>498.5</ele><time>2026-04-26T08:57:32.818Z</time></trkpt><trkpt lat="42.864137" lon="11.8327608"><ele>494.75</ele><time>2026-04-26T08:57:33.818Z</time></trkpt><trkpt lat="42.8640462" lon="11.8326275"><ele>491.0</ele><time>2026-04-26T08:57:34.818Z</time></trkpt><trkpt lat="42.8639562" lon="11.832473"><ele>491.0</ele><time>2026-04-26T08:57:35.818Z</time></trkpt><trkpt lat="42.8638525" lon="11.8323219"><ele>491.0</ele><time>2026-04-26T08:57:36.818Z</time></trkpt><trkpt lat="42.8637415" lon="11.8321741"><ele>491.0</ele><time>2026-04-26T08:57:37.818Z</time></trkpt><trkpt lat="42.8636169" lon="11.8320419"><ele>491.0</ele><time>2026-04-26T08:57:38.817Z</time></trkpt><trkpt lat="42.863468" lon="11.831949"><ele>491.0</ele><time>2026-04-26T08:57:39.818Z</time></trkpt><trkpt lat="42.8633031" lon="11.8318885"><ele>491.0</ele><time>2026-04-26T08:57:40.818Z</time></trkpt><trkpt lat="42.863143" lon="11.8318217"><ele>491.66666666666663</ele><time>2026-04-26T08:57:41.817Z</time></trkpt><trkpt lat="42.8629779" lon="11.8317633"><ele>492.33333333333337</ele><time>2026-04-26T08:57:42.818Z</time></trkpt><trkpt lat="42.862808" lon="11.8317058"><ele>493.0</ele><time>2026-04-26T08:57:43.818Z</time></trkpt><trkpt lat="42.8626437" lon="11.8316528"><ele>488.0</ele><time>2026-04-26T08:57:44.817Z</time></trkpt><trkpt lat="42.8624787" lon="11.8316128"><ele>483.0</ele><time>2026-04-26T08:57:45.818Z</time></trkpt><trkpt lat="42.8623121" lon="11.8315921"><ele>478.0</ele><time>2026-04-26T08:57:46.818Z</time></trkpt><trkpt lat="42.8621414" lon="11.831591"><ele>478.0</ele><time>2026-04-26T08:57:47.818Z</time></trkpt><trkpt lat="42.8619728" lon="11.8316001"><ele>478.0</ele><time>2026-04-26T08:57:48.818Z</time></trkpt><trkpt lat="42.8618068" lon="11.8316217"><ele>478.0</ele><time>2026-04-26T08:57:49.818Z</time></trkpt><trkpt lat="42.8616546" lon="11.8316453"><ele>475.75</ele><time>2026-04-26T08:57:50.817Z</time></trkpt><trkpt lat="42.8615053" lon="11.8316856"><ele>473.5</ele><time>2026-04-26T08:57:51.818Z</time></trkpt><trkpt lat="42.8613666" lon="11.8317545"><ele>471.25</ele><time>2026-04-26T08:57:52.818Z</time></trkpt><trkpt lat="42.8612429" lon="11.831869"><ele>469.0</ele><time>2026-04-26T08:57:53.818Z</time></trkpt><trkpt lat="42.8611315" lon="11.832015"><ele>466.33333333333337</ele><time>2026-04-26T08:57:54.818Z</time></trkpt><trkpt lat="42.8610387" lon="11.8321872"><ele>463.66666666666663</ele><time>2026-04-26T08:57:55.818Z</time></trkpt><trkpt lat="42.8609524" lon="11.8323488"><ele>461.0</ele><time>2026-04-26T08:57:56.818Z</time></trkpt><trkpt lat="42.8608689" lon="11.8325144"><ele>459.75</ele><time>2026-04-26T08:57:57.818Z</time></trkpt><trkpt lat="42.8607944" lon="11.8326868"><ele>458.5</ele><time>2026-04-26T08:57:58.818Z</time></trkpt><trkpt lat="42.860756" lon="11.8328768"><ele>457.25</ele><time>2026-04-26T08:57:59.817Z</time></trkpt><trkpt lat="42.8607388" lon="11.8330739"><ele>456.0</ele><time>2026-04-26T08:58:00.818Z</time></trkpt><trkpt lat="42.8607545" lon="11.8332872"><ele>454.33333333333337</ele><time>2026-04-26T08:58:01.818Z</time></trkpt><trkpt lat="42.8607959" lon="11.8334922"><ele>452.6666666666667</ele><time>2026-04-26T08:58:02.817Z</time></trkpt><trkpt lat="42.8608493" lon="11.8337008"><ele>451.0</ele><time>2026-04-26T08:58:03.817Z</time></trkpt><trkpt lat="42.860898" lon="11.8339046"><ele>451.0</ele><time>2026-04-26T08:58:04.818Z</time></trkpt><trkpt lat="42.8609277" lon="11.8340968"><ele>451.0</ele><time>2026-04-26T08:58:05.818Z</time></trkpt><trkpt lat="42.860934" lon="11.8342864"><ele>451.0</ele><time>2026-04-26T08:58:06.818Z</time></trkpt><trkpt lat="42.8608943" lon="11.8344687"><ele>451.0</ele><time>2026-04-26T08:58:07.817Z</time></trkpt><trkpt lat="42.8608143" lon="11.8346366"><ele>449.0</ele><time>2026-04-26T08:58:08.818Z</time></trkpt><trkpt lat="42.8607056" lon="11.834762"><ele>447.0</ele><time>2026-04-26T08:58:09.818Z</time></trkpt><trkpt lat="42.8605745" lon="11.8348572"><ele>445.0</ele><time>2026-04-26T08:58:10.818Z</time></trkpt><trkpt lat="42.8604636" lon="11.8349328"><ele>443.0</ele><time>2026-04-26T08:58:11.818Z</time></trkpt><trkpt lat="42.8603704" lon="11.8350244"><ele>440.75</ele><time>2026-04-26T08:58:12.817Z</time></trkpt><trkpt lat="42.860316" lon="11.8351676"><ele>438.5</ele><time>2026-04-26T08:58:13.818Z</time></trkpt><trkpt lat="42.8602893" lon="11.8353292"><ele>436.25</ele><time>2026-04-26T08:58:14.818Z</time></trkpt><trkpt lat="42.8602989" lon="11.8355016"><ele>434.0</ele><time>2026-04-26T08:58:15.818Z</time></trkpt><trkpt lat="42.860338" lon="11.835666"><ele>434.0</ele><time>2026-04-26T08:58:16.818Z</time></trkpt><trkpt lat="42.8604141" lon="11.8358164"><ele>434.0</ele><time>2026-04-26T08:58:17.818Z</time></trkpt><trkpt lat="42.8605182" lon="11.8359496"><ele>434.0</ele><time>2026-04-26T08:58:18.818Z</time></trkpt><trkpt lat="42.8606312" lon="11.8360882"><ele>434.0</ele><time>2026-04-26T08:58:19.818Z</time></trkpt><trkpt lat="42.8607439" lon="11.8362314"><ele>431.66666666666663</ele><time>2026-04-26T08:58:20.818Z</time></trkpt><trkpt lat="42.8608589" lon="11.8363749"><ele>429.33333333333337</ele><time>2026-04-26T08:58:21.818Z</time></trkpt><trkpt lat="42.8609712" lon="11.8365219"><ele>427.0</ele><time>2026-04-26T08:58:22.818Z</time></trkpt><trkpt lat="42.8610773" lon="11.836668"><ele>424.75</ele><time>2026-04-26T08:58:23.818Z</time></trkpt><trkpt lat="42.8611824" lon="11.8368095"><ele>422.5</ele><time>2026-04-26T08:58:24.818Z</time></trkpt><trkpt lat="42.8612934" lon="11.8369474"><ele>420.25</ele><time>2026-04-26T08:58:25.818Z</time></trkpt><trkpt lat="42.8613969" lon="11.837077"><ele>418.0</ele><time>2026-04-26T08:58:26.818Z</time></trkpt><trkpt lat="42.8614789" lon="11.8372125"><ele>418.0</ele><time>2026-04-26T08:58:27.818Z</time></trkpt><trkpt lat="42.8615403" lon="11.8373626"><ele>418.0</ele><time>2026-04-26T08:58:28.818Z</time></trkpt><trkpt lat="42.8615673" lon="11.8375214"><ele>418.0</ele><time>2026-04-26T08:58:29.818Z</time></trkpt><trkpt lat="42.861548" lon="11.8376855"><ele>418.0</ele><time>2026-04-26T08:58:30.817Z</time></trkpt><trkpt lat="42.8614942" lon="11.8378552"><ele>415.5</ele><time>2026-04-26T08:58:31.818Z</time></trkpt><trkpt lat="42.8614077" lon="11.8380018"><ele>413.0</ele><time>2026-04-26T08:58:32.818Z</time></trkpt><trkpt lat="42.861301" lon="11.8381091"><ele>410.5</ele><time>2026-04-26T08:58:33.818Z</time></trkpt><trkpt lat="42.861165" lon="11.8381843"><ele>408.0</ele><time>2026-04-26T08:58:34.817Z</time></trkpt><trkpt lat="42.8610233" lon="11.8382374"><ele>409.0</ele><time>2026-04-26T08:58:35.817Z</time></trkpt><trkpt lat="42.8608748" lon="11.8382868"><ele>410.0</ele><time>2026-04-26T08:58:36.818Z</time></trkpt><trkpt lat="42.8607219" lon="11.8383215"><ele>411.0</ele><time>2026-04-26T08:58:37.818Z</time></trkpt><trkpt lat="42.8605736" lon="11.8383201"><ele>411.0</ele><time>2026-04-26T08:58:38.818Z</time></trkpt><trkpt lat="42.8604292" lon="11.8382756"><ele>411.0</ele><time>2026-04-26T08:58:39.818Z</time></trkpt><trkpt lat="42.8602805" lon="11.8381933"><ele>411.0</ele><time>2026-04-26T08:58:40.818Z</time></trkpt><trkpt lat="42.8601374" lon="11.8380934"><ele>407.66666666666663</ele><time>2026-04-26T08:58:41.818Z</time></trkpt><trkpt lat="42.8599963" lon="11.8380086"><ele>404.3333333333333</ele><time>2026-04-26T08:58:42.818Z</time></trkpt><trkpt lat="42.8598586" lon="11.8379212"><ele>401.0</ele><time>2026-04-26T08:58:43.818Z</time></trkpt><trkpt lat="42.8597376" lon="11.8377989"><ele>401.0</ele><time>2026-04-26T08:58:44.818Z</time></trkpt><trkpt lat="42.8596398" lon="11.8376442"><ele>401.0</ele><time>2026-04-26T08:58:45.818Z</time></trkpt><trkpt lat="42.8595452" lon="11.8374751"><ele>401.0</ele><time>2026-04-26T08:58:46.818Z</time></trkpt><trkpt lat="42.8594365" lon="11.8373119"><ele>404.0</ele><time>2026-04-26T08:58:47.818Z</time></trkpt><trkpt lat="42.8593057" lon="11.8371905"><ele>407.0</ele><time>2026-04-26T08:58:48.818Z</time></trkpt><trkpt lat="42.8591452" lon="11.8371111"><ele>410.0</ele><time>2026-04-26T08:58:49.818Z</time></trkpt><trkpt lat="42.8589736" lon="11.8370586"><ele>404.0</ele><time>2026-04-26T08:58:50.818Z</time></trkpt><trkpt lat="42.8588065" lon="11.8370081"><ele>398.0</ele><time>2026-04-26T08:58:51.818Z</time></trkpt><trkpt lat="42.8586475" lon="11.8369523"><ele>392.0</ele><time>2026-04-26T08:58:52.818Z</time></trkpt><trkpt lat="42.8584986" lon="11.8368777"><ele>391.3333333333333</ele><time>2026-04-26T08:58:53.818Z</time></trkpt><trkpt lat="42.8583616" lon="11.8367705"><ele>390.66666666666663</ele><time>2026-04-26T08:58:54.818Z</time></trkpt><trkpt lat="42.8582351" lon="11.8366324"><ele>390.0</ele><time>2026-04-26T08:58:55.818Z</time></trkpt><trkpt lat="42.8581115" lon="11.8364875"><ele>390.0</ele><time>2026-04-26T08:58:56.818Z</time></trkpt><trkpt lat="42.8579653" lon="11.8363694"><ele>390.0</ele><time>2026-04-26T08:58:57.817Z</time></trkpt><trkpt lat="42.8578088" lon="11.836286"><ele>390.0</ele><time>2026-04-26T08:58:58.818Z</time></trkpt><trkpt lat="42.8576485" lon="11.836206"><ele>389.66666666666663</ele><time>2026-04-26T08:58:59.817Z</time></trkpt><trkpt lat="42.8574922" lon="11.8361158"><ele>389.3333333333333</ele><time>2026-04-26T08:59:00.818Z</time></trkpt><trkpt lat="42.8573519" lon="11.8360035"><ele>389.0</ele><time>2026-04-26T08:59:01.817Z</time></trkpt><trkpt lat="42.8572261" lon="11.835853"><ele>389.0</ele><time>2026-04-26T08:59:02.818Z</time></trkpt><trkpt lat="42.8571108" lon="11.8356752"><ele>389.0</ele><time>2026-04-26T08:59:03.818Z</time></trkpt><trkpt lat="42.8570176" lon="11.83547"><ele>389.0</ele><time>2026-04-26T08:59:04.818Z</time></trkpt><trkpt lat="42.8569354" lon="11.8352564"><ele>391.3333333333333</ele><time>2026-04-26T08:59:05.818Z</time></trkpt><trkpt lat="42.856846" lon="11.8350481"><ele>393.66666666666663</ele><time>2026-04-26T08:59:06.818Z</time></trkpt><trkpt lat="42.8567677" lon="11.8348462"><ele>396.0</ele><time>2026-04-26T08:59:07.817Z</time></trkpt><trkpt lat="42.8566879" lon="11.8346517"><ele>391.0</ele><time>2026-04-26T08:59:08.818Z</time></trkpt><trkpt lat="42.8566013" lon="11.8344664"><ele>386.0</ele><time>2026-04-26T08:59:09.818Z</time></trkpt><trkpt lat="42.8564941" lon="11.8343005"><ele>381.0</ele><time>2026-04-26T08:59:10.817Z</time></trkpt><trkpt lat="42.8563714" lon="11.8341808"><ele>381.0</ele><time>2026-04-26T08:59:11.818Z</time></trkpt><trkpt lat="42.8562176" lon="11.8341395"><ele>381.0</ele><time>2026-04-26T08:59:12.818Z</time></trkpt><trkpt lat="42.8560556" lon="11.8341151"><ele>381.0</ele><time>2026-04-26T08:59:13.817Z</time></trkpt><trkpt lat="42.8558834" lon="11.8341033"><ele>377.6666666666667</ele><time>2026-04-26T08:59:14.817Z</time></trkpt><trkpt lat="42.8557088" lon="11.834094"><ele>374.33333333333337</ele><time>2026-04-26T08:59:15.818Z</time></trkpt><trkpt lat="42.8555278" lon="11.8340772"><ele>371.0</ele><time>2026-04-26T08:59:16.818Z</time></trkpt><trkpt lat="42.8553415" lon="11.8340566"><ele>371.0</ele><time>2026-04-26T08:59:17.818Z</time></trkpt><trkpt lat="42.8551538" lon="11.8340304"><ele>371.0</ele><time>2026-04-26T08:59:18.818Z</time></trkpt><trkpt lat="42.8549598" lon="11.8340097"><ele>371.0</ele><time>2026-04-26T08:59:19.818Z</time></trkpt><trkpt lat="42.8547677" lon="11.8339789"><ele>370.33333333333337</ele><time>2026-04-26T08:59:20.818Z</time></trkpt><trkpt lat="42.8545785" lon="11.8339255"><ele>369.6666666666667</ele><time>2026-04-26T08:59:21.817Z</time></trkpt><trkpt lat="42.8543944" lon="11.8338317"><ele>369.0</ele><time>2026-04-26T08:59:22.818Z</time></trkpt><trkpt lat="42.8542209" lon="11.833695"><ele>370.0</ele><time>2026-04-26T08:59:23.817Z</time></trkpt><trkpt lat="42.8540675" lon="11.8335154"><ele>371.0</ele><time>2026-04-26T08:59:24.818Z</time></trkpt><trkpt lat="42.8539124" lon="11.8333328"><ele>372.0</ele><time>2026-04-26T08:59:25.818Z</time></trkpt><trkpt lat="42.8537553" lon="11.8331465"><ele>372.0</ele><time>2026-04-26T08:59:26.818Z</time></trkpt><trkpt lat="42.8535944" lon="11.8329559"><ele>372.0</ele><time>2026-04-26T08:59:27.817Z</time></trkpt><trkpt lat="42.8534316" lon="11.8327663"><ele>372.0</ele><time>2026-04-26T08:59:28.818Z</time></trkpt><trkpt lat="42.8532633" lon="11.8325781"><ele>371.3333333333333</ele><time>2026-04-26T08:59:29.818Z</time></trkpt><trkpt lat="42.8530939" lon="11.8323908"><ele>370.66666666666663</ele><time>2026-04-26T08:59:30.818Z</time></trkpt><trkpt lat="42.8529273" lon="11.832202"><ele>370.0</ele><time>2026-04-26T08:59:31.818Z</time></trkpt><trkpt lat="42.8527584" lon="11.832011"><ele>368.66666666666663</ele><time>2026-04-26T08:59:32.817Z</time></trkpt><trkpt lat="42.8525856" lon="11.8318246"><ele>367.3333333333333</ele><time>2026-04-26T08:59:33.818Z</time></trkpt><trkpt lat="42.8524147" lon="11.8316349"><ele>366.0</ele><time>2026-04-26T08:59:34.818Z</time></trkpt><trkpt lat="42.8522415" lon="11.8314457"><ele>366.0</ele><time>2026-04-26T08:59:35.818Z</time></trkpt><trkpt lat="42.85207" lon="11.8312541"><ele>366.0</ele><time>2026-04-26T08:59:36.818Z</time></trkpt><trkpt lat="42.8519034" lon="11.8310644"><ele>366.0</ele><time>2026-04-26T08:59:37.818Z</time></trkpt><trkpt lat="42.8517385" lon="11.8308769"><ele>364.6666666666667</ele><time>2026-04-26T08:59:38.818Z</time></trkpt><trkpt lat="42.8515759" lon="11.8306894"><ele>363.33333333333337</ele><time>2026-04-26T08:59:39.818Z</time></trkpt><trkpt lat="42.8514293" lon="11.8304887"><ele>362.0</ele><time>2026-04-26T08:59:40.818Z</time></trkpt><trkpt lat="42.8513054" lon="11.8302535"><ele>362.6666666666667</ele><time>2026-04-26T08:59:41.818Z</time></trkpt><trkpt lat="42.8511915" lon="11.8300078"><ele>363.3333333333333</ele><time>2026-04-26T08:59:42.817Z</time></trkpt><trkpt lat="42.8510817" lon="11.8297624"><ele>364.0</ele><time>2026-04-26T08:59:43.818Z</time></trkpt><trkpt lat="42.8509663" lon="11.8295227"><ele>361.66666666666663</ele><time>2026-04-26T08:59:44.817Z</time></trkpt><trkpt lat="42.8508418" lon="11.8292866"><ele>359.3333333333333</ele><time>2026-04-26T08:59:45.818Z</time></trkpt><trkpt lat="42.8507045" lon="11.829067"><ele>357.0</ele><time>2026-04-26T08:59:46.818Z</time></trkpt><trkpt lat="42.8505484" lon="11.8288667"><ele>357.0</ele><time>2026-04-26T08:59:47.818Z</time></trkpt><trkpt lat="42.8503783" lon="11.8286841"><ele>357.0</ele><time>2026-04-26T08:59:48.818Z</time></trkpt><trkpt lat="42.8502045" lon="11.8285022"><ele>357.0</ele><time>2026-04-26T08:59:49.818Z</time></trkpt><trkpt lat="42.8500313" lon="11.8283149"><ele>356.3333333333333</ele><time>2026-04-26T08:59:50.817Z</time></trkpt><trkpt lat="42.8498598" lon="11.8281278"><ele>355.66666666666663</ele><time>2026-04-26T08:59:51.817Z</time></trkpt><trkpt lat="42.8496852" lon="11.827943"><ele>355.0</ele><time>2026-04-26T08:59:52.818Z</time></trkpt><trkpt lat="42.8495156" lon="11.8277624"><ele>355.66666666666663</ele><time>2026-04-26T08:59:53.817Z</time></trkpt><trkpt lat="42.8493546" lon="11.8275835"><ele>356.3333333333333</ele><time>2026-04-26T08:59:54.818Z</time></trkpt><trkpt lat="42.8492101" lon="11.827383"><ele>357.0</ele><time>2026-04-26T08:59:55.818Z</time></trkpt><trkpt lat="42.8490996" lon="11.8271458"><ele>356.0</ele><time>2026-04-26T08:59:56.817Z</time></trkpt><trkpt lat="42.849" lon="11.8269021"><ele>355.0</ele><time>2026-04-26T08:59:57.817Z</time></trkpt><trkpt lat="42.8489029" lon="11.8266544"><ele>354.0</ele><time>2026-04-26T08:59:58.817Z</time></trkpt><trkpt lat="42.8488127" lon="11.8264179"><ele>354.0</ele><time>2026-04-26T08:59:59.818Z</time></trkpt><trkpt lat="42.8487188" lon="11.826197"><ele>354.0</ele><time>2026-04-26T09:00:00.818Z</time></trkpt><trkpt lat="42.8486087" lon="11.825991"><ele>354.0</ele><time>2026-04-26T09:00:01.818Z</time></trkpt><trkpt lat="42.8484651" lon="11.8258118"><ele>352.3333333333333</ele><time>2026-04-26T09:00:02.818Z</time></trkpt><trkpt lat="42.8483055" lon="11.8256656"><ele>350.66666666666663</ele><time>2026-04-26T09:00:03.817Z</time></trkpt><trkpt lat="42.8481196" lon="11.8255477"><ele>349.0</ele><time>2026-04-26T09:00:04.818Z</time></trkpt><trkpt lat="42.8479228" lon="11.8254528"><ele>349.0</ele><time>2026-04-26T09:00:05.818Z</time></trkpt><trkpt lat="42.847723" lon="11.8253599"><ele>349.0</ele><time>2026-04-26T09:00:06.818Z</time></trkpt><trkpt lat="42.8475148" lon="11.8252581"><ele>349.0</ele><time>2026-04-26T09:00:07.818Z</time></trkpt><trkpt lat="42.8473067" lon="11.8251468"><ele>348.3333333333333</ele><time>2026-04-26T09:00:08.817Z</time></trkpt><trkpt lat="42.8470986" lon="11.8250486"><ele>347.6666666666667</ele><time>2026-04-26T09:00:09.818Z</time></trkpt><trkpt lat="42.8468826" lon="11.824972"><ele>347.0</ele><time>2026-04-26T09:00:10.818Z</time></trkpt><trkpt lat="42.846662" lon="11.8249091"><ele>346.5</ele><time>2026-04-26T09:00:11.818Z</time></trkpt><trkpt lat="42.8464405" lon="11.824851"><ele>346.0</ele><time>2026-04-26T09:00:12.817Z</time></trkpt><trkpt lat="42.8462166" lon="11.8247979"><ele>346.0</ele><time>2026-04-26T09:00:13.818Z</time></trkpt><trkpt lat="42.8460033" lon="11.824737"><ele>346.0</ele><time>2026-04-26T09:00:14.818Z</time></trkpt><trkpt lat="42.8457976" lon="11.8246678"><ele>346.0</ele><time>2026-04-26T09:00:15.817Z</time></trkpt><trkpt lat="42.8455992" lon="11.8245738"><ele>345.0</ele><time>2026-04-26T09:00:16.818Z</time></trkpt><trkpt lat="42.8454109" lon="11.8244518"><ele>344.0</ele><time>2026-04-26T09:00:17.818Z</time></trkpt><trkpt lat="42.8452188" lon="11.8243189"><ele>343.0</ele><time>2026-04-26T09:00:18.818Z</time></trkpt><trkpt lat="42.8450188" lon="11.8241921"><ele>342.66666666666663</ele><time>2026-04-26T09:00:19.818Z</time></trkpt><trkpt lat="42.8448109" lon="11.8240813"><ele>342.3333333333333</ele><time>2026-04-26T09:00:20.818Z</time></trkpt><trkpt lat="42.844595" lon="11.8239958"><ele>342.0</ele><time>2026-04-26T09:00:21.818Z</time></trkpt><trkpt lat="42.8443755" lon="11.8239138"><ele>341.0</ele><time>2026-04-26T09:00:22.818Z</time></trkpt><trkpt lat="42.8441545" lon="11.8238321"><ele>340.0</ele><time>2026-04-26T09:00:23.817Z</time></trkpt><trkpt lat="42.8439334" lon="11.8237496"><ele>340.0</ele><time>2026-04-26T09:00:24.817Z</time></trkpt><trkpt lat="42.8437114" lon="11.8236692"><ele>340.0</ele><time>2026-04-26T09:00:25.817Z</time></trkpt><trkpt lat="42.8434875" lon="11.8235861"><ele>339.0</ele><time>2026-04-26T09:00:26.818Z</time></trkpt><trkpt lat="42.8432601" lon="11.8235039"><ele>338.0</ele><time>2026-04-26T09:00:27.818Z</time></trkpt><trkpt lat="42.8430349" lon="11.8234246"><ele>337.5</ele><time>2026-04-26T09:00:28.818Z</time></trkpt><trkpt lat="42.8428087" lon="11.8233418"><ele>337.0</ele><time>2026-04-26T09:00:29.817Z</time></trkpt><trkpt lat="42.8425842" lon="11.823255"><ele>337.0</ele><time>2026-04-26T09:00:30.818Z</time></trkpt><trkpt lat="42.8423632" lon="11.8231672"><ele>337.0</ele><time>2026-04-26T09:00:31.818Z</time></trkpt><trkpt lat="42.8421378" lon="11.8230831"><ele>337.0</ele><time>2026-04-26T09:00:32.817Z</time></trkpt><trkpt lat="42.8419132" lon="11.8230007"><ele>337.0</ele><time>2026-04-26T09:00:33.818Z</time></trkpt><trkpt lat="42.841691" lon="11.8229199"><ele>336.0</ele><time>2026-04-26T09:00:34.818Z</time></trkpt><trkpt lat="42.8414685" lon="11.8228367"><ele>335.0</ele><time>2026-04-26T09:00:35.818Z</time></trkpt><trkpt lat="42.8412481" lon="11.8227538"><ele>335.0</ele><time>2026-04-26T09:00:36.818Z</time></trkpt><trkpt lat="42.8410274" lon="11.8226753"><ele>335.0</ele><time>2026-04-26T09:00:37.818Z</time></trkpt><trkpt lat="42.8408049" lon="11.8225955"><ele>335.0</ele><time>2026-04-26T09:00:38.818Z</time></trkpt><trkpt lat="42.8405878" lon="11.8225147"><ele>335.0</ele><time>2026-04-26T09:00:39.817Z</time></trkpt><trkpt lat="42.8403711" lon="11.8224241"><ele>335.0</ele><time>2026-04-26T09:00:40.817Z</time></trkpt><trkpt lat="42.8401747" lon="11.8222989"><ele>335.0</ele><time>2026-04-26T09:00:41.818Z</time></trkpt><trkpt lat="42.8399869" lon="11.8221511"><ele>335.0</ele><time>2026-04-26T09:00:42.818Z</time></trkpt><trkpt lat="42.8398363" lon="11.821975"><ele>334.6666666666667</ele><time>2026-04-26T09:00:43.818Z</time></trkpt><trkpt lat="42.8396854" lon="11.8217949"><ele>334.3333333333333</ele><time>2026-04-26T09:00:44.818Z</time></trkpt><trkpt lat="42.83954" lon="11.8216353"><ele>334.0</ele><time>2026-04-26T09:00:45.818Z</time></trkpt><trkpt lat="42.8393784" lon="11.8215197"><ele>333.66666666666663</ele><time>2026-04-26T09:00:46.817Z</time></trkpt><trkpt lat="42.8391936" lon="11.8214442"><ele>333.3333333333333</ele><time>2026-04-26T09:00:47.818Z</time></trkpt><trkpt lat="42.8389978" lon="11.821406"><ele>333.0</ele><time>2026-04-26T09:00:48.818Z</time></trkpt><trkpt lat="42.838794" lon="11.8213907"><ele>333.0</ele><time>2026-04-26T09:00:49.818Z</time></trkpt><trkpt lat="42.8385896" lon="11.8213874"><ele>333.0</ele><time>2026-04-26T09:00:50.817Z</time></trkpt><trkpt lat="42.8383823" lon="11.8213923"><ele>333.0</ele><time>2026-04-26T09:00:51.818Z</time></trkpt><trkpt lat="42.83817" lon="11.8213916"><ele>332.0</ele><time>2026-04-26T09:00:52.817Z</time></trkpt><trkpt lat="42.8379541" lon="11.8213877"><ele>331.0</ele><time>2026-04-26T09:00:53.817Z</time></trkpt><trkpt lat="42.8377365" lon="11.8213821"><ele>330.0</ele><time>2026-04-26T09:00:54.818Z</time></trkpt><trkpt lat="42.8375166" lon="11.8213793"><ele>330.0</ele><time>2026-04-26T09:00:55.817Z</time></trkpt><trkpt lat="42.8372998" lon="11.8213746"><ele>330.0</ele><time>2026-04-26T09:00:56.818Z</time></trkpt><trkpt lat="42.837077" lon="11.8213723"><ele>330.0</ele><time>2026-04-26T09:00:57.817Z</time></trkpt><trkpt lat="42.8368532" lon="11.8213653"><ele>328.6666666666667</ele><time>2026-04-26T09:00:58.818Z</time></trkpt><trkpt lat="42.8366295" lon="11.821363"><ele>327.33333333333337</ele><time>2026-04-26T09:00:59.818Z</time></trkpt><trkpt lat="42.8364042" lon="11.821376"><ele>326.0</ele><time>2026-04-26T09:01:00.817Z</time></trkpt><trkpt lat="42.8361801" lon="11.8213906"><ele>326.5</ele><time>2026-04-26T09:01:01.818Z</time></trkpt><trkpt lat="42.8359554" lon="11.8214184"><ele>327.0</ele><time>2026-04-26T09:01:02.818Z</time></trkpt><trkpt lat="42.8357325" lon="11.8214499"><ele>327.0</ele><time>2026-04-26T09:01:03.818Z</time></trkpt><trkpt lat="42.8355102" lon="11.8214739"><ele>327.0</ele><time>2026-04-26T09:01:04.818Z</time></trkpt><trkpt lat="42.8352892" lon="11.8214953"><ele>327.0</ele><time>2026-04-26T09:01:05.817Z</time></trkpt><trkpt lat="42.8350687" lon="11.8215148"><ele>327.6666666666667</ele><time>2026-04-26T09:01:06.818Z</time></trkpt><trkpt lat="42.8348504" lon="11.8215191"><ele>328.33333333333337</ele><time>2026-04-26T09:01:07.818Z</time></trkpt><trkpt lat="42.8346354" lon="11.8214972"><ele>329.0</ele><time>2026-04-26T09:01:08.818Z</time></trkpt><trkpt lat="42.8344199" lon="11.8214707"><ele>329.0</ele><time>2026-04-26T09:01:09.818Z</time></trkpt><trkpt lat="42.8342076" lon="11.8214471"><ele>329.0</ele><time>2026-04-26T09:01:10.818Z</time></trkpt><trkpt lat="42.8339916" lon="11.8214358"><ele>329.0</ele><time>2026-04-26T09:01:11.817Z</time></trkpt><trkpt lat="42.8337778" lon="11.821429"><ele>329.0</ele><time>2026-04-26T09:01:12.818Z</time></trkpt><trkpt lat="42.8335619" lon="11.8214216"><ele>329.0</ele><time>2026-04-26T09:01:13.818Z</time></trkpt><trkpt lat="42.8333478" lon="11.8214141"><ele>329.0</ele><time>2026-04-26T09:01:14.818Z</time></trkpt><trkpt lat="42.8331281" lon="11.821429"><ele>328.6666666666667</ele><time>2026-04-26T09:01:15.818Z</time></trkpt><trkpt lat="42.8329057" lon="11.8214601"><ele>328.3333333333333</ele><time>2026-04-26T09:01:16.818Z</time></trkpt><trkpt lat="42.8326891" lon="11.8214984"><ele>328.0</ele><time>2026-04-26T09:01:17.817Z</time></trkpt><trkpt lat="42.8324732" lon="11.821537"><ele>328.0</ele><time>2026-04-26T09:01:18.817Z</time></trkpt><trkpt lat="42.8322509" lon="11.8215859"><ele>328.0</ele><time>2026-04-26T09:01:19.818Z</time></trkpt><trkpt lat="42.8320359" lon="11.8216336"><ele>328.0</ele><time>2026-04-26T09:01:20.818Z</time></trkpt><trkpt lat="42.8318276" lon="11.8216896"><ele>327.3333333333333</ele><time>2026-04-26T09:01:21.818Z</time></trkpt><trkpt lat="42.8316294" lon="11.8217446"><ele>326.6666666666667</ele><time>2026-04-26T09:01:22.818Z</time></trkpt><trkpt lat="42.8314323" lon="11.8217964"><ele>326.0</ele><time>2026-04-26T09:01:23.818Z</time></trkpt><trkpt lat="42.831251" lon="11.821846"><ele>325.33333333333337</ele><time>2026-04-26T09:01:24.818Z</time></trkpt><trkpt lat="42.8310717" lon="11.8218773"><ele>324.6666666666667</ele><time>2026-04-26T09:01:25.818Z</time></trkpt><trkpt lat="42.8308982" lon="11.8218569"><ele>324.0</ele><time>2026-04-26T09:01:26.818Z</time></trkpt><trkpt lat="42.8307358" lon="11.8217788"><ele>323.3333333333333</ele><time>2026-04-26T09:01:27.818Z</time></trkpt><trkpt lat="42.830585" lon="11.8216564"><ele>322.66666666666663</ele><time>2026-04-26T09:01:28.818Z</time></trkpt><trkpt lat="42.8304602" lon="11.8214835"><ele>322.0</ele><time>2026-04-26T09:01:29.818Z</time></trkpt><trkpt lat="42.8303686" lon="11.8212711"><ele>322.0</ele><time>2026-04-26T09:01:30.818Z</time></trkpt><trkpt lat="42.8302856" lon="11.8210493"><ele>322.0</ele><time>2026-04-26T09:01:31.818Z</time></trkpt><trkpt lat="42.8301976" lon="11.8208252"><ele>322.0</ele><time>2026-04-26T09:01:32.818Z</time></trkpt><trkpt lat="42.8300835" lon="11.8206168"><ele>322.0</ele><time>2026-04-26T09:01:33.818Z</time></trkpt><trkpt lat="42.8299444" lon="11.8204264"><ele>322.0</ele><time>2026-04-26T09:01:34.818Z</time></trkpt><trkpt lat="42.8297919" lon="11.8202498"><ele>322.0</ele><time>2026-04-26T09:01:35.818Z</time></trkpt><trkpt lat="42.8296312" lon="11.8200853"><ele>322.0</ele><time>2026-04-26T09:01:36.818Z</time></trkpt><trkpt lat="42.8294713" lon="11.8199238"><ele>322.0</ele><time>2026-04-26T09:01:37.818Z</time></trkpt><trkpt lat="42.8293037" lon="11.819759"><ele>322.0</ele><time>2026-04-26T09:01:38.817Z</time></trkpt><trkpt lat="42.8291359" lon="11.8195882"><ele>322.0</ele><time>2026-04-26T09:01:39.817Z</time></trkpt><trkpt lat="42.8289643" lon="11.819417"><ele>322.0</ele><time>2026-04-26T09:01:40.818Z</time></trkpt><trkpt lat="42.8287964" lon="11.819236"><ele>322.0</ele><time>2026-04-26T09:01:41.817Z</time></trkpt><trkpt lat="42.8286288" lon="11.8190484"><ele>320.3333333333333</ele><time>2026-04-26T09:01:42.818Z</time></trkpt><trkpt lat="42.8284734" lon="11.8188367"><ele>318.6666666666667</ele><time>2026-04-26T09:01:43.818Z</time></trkpt><trkpt lat="42.8283237" lon="11.8186078"><ele>317.0</ele><time>2026-04-26T09:01:44.818Z</time></trkpt><trkpt lat="42.828175" lon="11.8183805"><ele>317.0</ele><time>2026-04-26T09:01:45.818Z</time></trkpt><trkpt lat="42.8280239" lon="11.8181546"><ele>317.0</ele><time>2026-04-26T09:01:46.818Z</time></trkpt><trkpt lat="42.8278701" lon="11.8179309"><ele>317.0</ele><time>2026-04-26T09:01:47.817Z</time></trkpt><trkpt lat="42.8277149" lon="11.8177046"><ele>315.0</ele><time>2026-04-26T09:01:48.817Z</time></trkpt><trkpt lat="42.8275601" lon="11.8174818"><ele>313.0</ele><time>2026-04-26T09:01:49.818Z</time></trkpt><trkpt lat="42.8274074" lon="11.8172564"><ele>313.0</ele><time>2026-04-26T09:01:50.817Z</time></trkpt><trkpt lat="42.8272538" lon="11.8170293"><ele>313.0</ele><time>2026-04-26T09:01:51.818Z</time></trkpt><trkpt lat="42.8271005" lon="11.8168017"><ele>312.0</ele><time>2026-04-26T09:01:52.818Z</time></trkpt><trkpt lat="42.8269446" lon="11.8165764"><ele>311.0</ele><time>2026-04-26T09:01:53.818Z</time></trkpt><trkpt lat="42.8267888" lon="11.8163529"><ele>311.0</ele><time>2026-04-26T09:01:54.817Z</time></trkpt><trkpt lat="42.8266373" lon="11.816123"><ele>311.0</ele><time>2026-04-26T09:01:55.818Z</time></trkpt><trkpt lat="42.8264848" lon="11.8158993"><ele>312.0</ele><time>2026-04-26T09:01:56.817Z</time></trkpt><trkpt lat="42.8263312" lon="11.8156824"><ele>313.0</ele><time>2026-04-26T09:01:57.817Z</time></trkpt><trkpt lat="42.8261711" lon="11.8154734"><ele>314.0</ele><time>2026-04-26T09:01:58.818Z</time></trkpt><trkpt lat="42.8260105" lon="11.8152745"><ele>313.6666666666667</ele><time>2026-04-26T09:01:59.818Z</time></trkpt><trkpt lat="42.8258469" lon="11.8150895"><ele>313.3333333333333</ele><time>2026-04-26T09:02:00.818Z</time></trkpt><trkpt lat="42.825688" lon="11.8149141"><ele>313.0</ele><time>2026-04-26T09:02:01.818Z</time></trkpt><trkpt lat="42.8255249" lon="11.8147433"><ele>313.0</ele><time>2026-04-26T09:02:02.817Z</time></trkpt><trkpt lat="42.8253669" lon="11.8145795"><ele>313.0</ele><time>2026-04-26T09:02:03.817Z</time></trkpt><trkpt lat="42.8252123" lon="11.8144307"><ele>313.0</ele><time>2026-04-26T09:02:04.817Z</time></trkpt><trkpt lat="42.8250592" lon="11.8143013"><ele>312.3333333333333</ele><time>2026-04-26T09:02:05.818Z</time></trkpt><trkpt lat="42.824894" lon="11.8142097"><ele>311.6666666666667</ele><time>2026-04-26T09:02:06.818Z</time></trkpt><trkpt lat="42.8247187" lon="11.8141489"><ele>311.0</ele><time>2026-04-26T09:02:07.818Z</time></trkpt><trkpt lat="42.8245363" lon="11.8141214"><ele>311.0</ele><time>2026-04-26T09:02:08.818Z</time></trkpt><trkpt lat="42.8243446" lon="11.814124"><ele>311.0</ele><time>2026-04-26T09:02:09.818Z</time></trkpt><trkpt lat="42.8241477" lon="11.8141395"><ele>311.0</ele><time>2026-04-26T09:02:10.817Z</time></trkpt><trkpt lat="42.8239521" lon="11.8141392"><ele>310.33333333333337</ele><time>2026-04-26T09:02:11.818Z</time></trkpt><trkpt lat="42.8237541" lon="11.8141327"><ele>309.6666666666667</ele><time>2026-04-26T09:02:12.817Z</time></trkpt><trkpt lat="42.8235529" lon="11.8141058"><ele>309.0</ele><time>2026-04-26T09:02:13.818Z</time></trkpt><trkpt lat="42.8233566" lon="11.8140436"><ele>308.0</ele><time>2026-04-26T09:02:14.818Z</time></trkpt><trkpt lat="42.8231681" lon="11.8139462"><ele>307.0</ele><time>2026-04-26T09:02:15.817Z</time></trkpt><trkpt lat="42.8229809" lon="11.8138287"><ele>306.0</ele><time>2026-04-26T09:02:16.817Z</time></trkpt><trkpt lat="42.8227885" lon="11.8137096"><ele>305.0</ele><time>2026-04-26T09:02:17.818Z</time></trkpt><trkpt lat="42.822596" lon="11.8135943"><ele>304.0</ele><time>2026-04-26T09:02:18.818Z</time></trkpt><trkpt lat="42.8223927" lon="11.8134946"><ele>303.0</ele><time>2026-04-26T09:02:19.818Z</time></trkpt><trkpt lat="42.8221828" lon="11.8134112"><ele>305.3333333333333</ele><time>2026-04-26T09:02:20.818Z</time></trkpt><trkpt lat="42.8219654" lon="11.8133449"><ele>307.66666666666663</ele><time>2026-04-26T09:02:21.818Z</time></trkpt><trkpt lat="42.821747" lon="11.8132805"><ele>310.0</ele><time>2026-04-26T09:02:22.818Z</time></trkpt><trkpt lat="42.8215365" lon="11.8132057"><ele>310.0</ele><time>2026-04-26T09:02:23.818Z</time></trkpt><trkpt lat="42.8213305" lon="11.81311"><ele>310.0</ele><time>2026-04-26T09:02:24.818Z</time></trkpt><trkpt lat="42.8211523" lon="11.8129832"><ele>310.0</ele><time>2026-04-26T09:02:25.818Z</time></trkpt><trkpt lat="42.8209864" lon="11.8128599"><ele>308.0</ele><time>2026-04-26T09:02:26.818Z</time></trkpt><trkpt lat="42.8208048" lon="11.8127783"><ele>306.0</ele><time>2026-04-26T09:02:27.818Z</time></trkpt><trkpt lat="42.8206078" lon="11.8127456"><ele>304.0</ele><time>2026-04-26T09:02:28.818Z</time></trkpt><trkpt lat="42.8204125" lon="11.8127403"><ele>304.0</ele><time>2026-04-26T09:02:29.818Z</time></trkpt><trkpt lat="42.8202098" lon="11.8127445"><ele>304.0</ele><time>2026-04-26T09:02:30.818Z</time></trkpt><trkpt lat="42.8200101" lon="11.8127373"><ele>304.0</ele><time>2026-04-26T09:02:31.818Z</time></trkpt><trkpt lat="42.819804" lon="11.8127142"><ele>303.0</ele><time>2026-04-26T09:02:32.818Z</time></trkpt><trkpt lat="42.8196049" lon="11.81266"><ele>302.0</ele><time>2026-04-26T09:02:33.818Z</time></trkpt><trkpt lat="42.81941" lon="11.8125793"><ele>301.0</ele><time>2026-04-26T09:02:34.818Z</time></trkpt><trkpt lat="42.8192241" lon="11.8124718"><ele>304.3333333333333</ele><time>2026-04-26T09:02:35.818Z</time></trkpt><trkpt lat="42.819038" lon="11.8123317"><ele>307.6666666666667</ele><time>2026-04-26T09:02:36.818Z</time></trkpt><trkpt lat="42.8188435" lon="11.8121973"><ele>311.0</ele><time>2026-04-26T09:02:37.818Z</time></trkpt><trkpt lat="42.8186523" lon="11.812064"><ele>311.6666666666667</ele><time>2026-04-26T09:02:38.817Z</time></trkpt><trkpt lat="42.818461" lon="11.8119326"><ele>312.3333333333333</ele><time>2026-04-26T09:02:39.817Z</time></trkpt><trkpt lat="42.81828" lon="11.8117964"><ele>313.0</ele><time>2026-04-26T09:02:40.817Z</time></trkpt><trkpt lat="42.8181031" lon="11.8116647"><ele>313.0</ele><time>2026-04-26T09:02:41.817Z</time></trkpt><trkpt lat="42.817927" lon="11.8115438"><ele>313.0</ele><time>2026-04-26T09:02:42.817Z</time></trkpt><trkpt lat="42.8177517" lon="11.8114338"><ele>313.0</ele><time>2026-04-26T09:02:43.818Z</time></trkpt><trkpt lat="42.8175738" lon="11.8113329"><ele>310.66666666666663</ele><time>2026-04-26T09:02:44.818Z</time></trkpt><trkpt lat="42.8174064" lon="11.8112425"><ele>308.3333333333333</ele><time>2026-04-26T09:02:45.818Z</time></trkpt><trkpt lat="42.8172455" lon="11.8111602"><ele>306.0</ele><time>2026-04-26T09:02:46.818Z</time></trkpt><trkpt lat="42.8170882" lon="11.8110804"><ele>306.0</ele><time>2026-04-26T09:02:47.818Z</time></trkpt><trkpt lat="42.8169487" lon="11.8110033"><ele>306.0</ele><time>2026-04-26T09:02:48.818Z</time></trkpt><trkpt lat="42.8168293" lon="11.8109301"><ele>306.0</ele><time>2026-04-26T09:02:49.818Z</time></trkpt><trkpt lat="42.8167263" lon="11.8108313"><ele>306.0</ele><time>2026-04-26T09:02:50.818Z</time></trkpt><trkpt lat="42.816652" lon="11.8106914"><ele>306.25</ele><time>2026-04-26T09:02:51.818Z</time></trkpt><trkpt lat="42.8166082" lon="11.8105287"><ele>306.5</ele><time>2026-04-26T09:02:52.818Z</time></trkpt><trkpt lat="42.8165883" lon="11.8103591"><ele>306.75</ele><time>2026-04-26T09:02:53.818Z</time></trkpt><trkpt lat="42.8165945" lon="11.8101985"><ele>307.0</ele><time>2026-04-26T09:02:54.817Z</time></trkpt><trkpt lat="42.8166375" lon="11.8100512"><ele>307.0</ele><time>2026-04-26T09:02:55.817Z</time></trkpt><trkpt lat="42.816712" lon="11.8099217"><ele>307.0</ele><time>2026-04-26T09:02:56.818Z</time></trkpt><trkpt lat="42.8167943" lon="11.8098057"><ele>307.0</ele><time>2026-04-26T09:02:57.818Z</time></trkpt><trkpt lat="42.8168803" lon="11.8096905"><ele>307.0</ele><time>2026-04-26T09:02:58.818Z</time></trkpt><trkpt lat="42.8169653" lon="11.8095806"><ele>307.6</ele><time>2026-04-26T09:02:59.818Z</time></trkpt><trkpt lat="42.8170402" lon="11.8094684"><ele>308.2</ele><time>2026-04-26T09:03:00.817Z</time></trkpt><trkpt lat="42.8171183" lon="11.8093709"><ele>308.8</ele><time>2026-04-26T09:03:01.817Z</time></trkpt><trkpt lat="42.8171948" lon="11.8092779"><ele>309.4</ele><time>2026-04-26T09:03:02.818Z</time></trkpt><trkpt lat="42.8172617" lon="11.8091828"><ele>310.0</ele><time>2026-04-26T09:03:03.817Z</time></trkpt><trkpt lat="42.8173219" lon="11.8090982"><ele>310.0</ele><time>2026-04-26T09:03:04.818Z</time></trkpt><trkpt lat="42.817377" lon="11.8090126"><ele>310.0</ele><time>2026-04-26T09:03:05.818Z</time></trkpt><trkpt lat="42.8174231" lon="11.8089332"><ele>310.0</ele><time>2026-04-26T09:03:06.818Z</time></trkpt><trkpt lat="42.8174672" lon="11.8088689"><ele>310.0</ele><time>2026-04-26T09:03:07.818Z</time></trkpt><trkpt lat="42.8175295" lon="11.8087685"><ele>310.0</ele><time>2026-04-26T09:03:09.818Z</time></trkpt><trkpt lat="42.8174482" lon="11.8088126"><ele>310.0</ele><time>2026-04-26T09:03:15.818Z</time></trkpt><trkpt lat="42.8174038" lon="11.8088815"><ele>310.0</ele><time>2026-04-26T09:03:16.818Z</time></trkpt><trkpt lat="42.8173442" lon="11.8089597"><ele>310.0</ele><time>2026-04-26T09:03:17.817Z</time></trkpt><trkpt lat="42.8172805" lon="11.8090462"><ele>310.0</ele><time>2026-04-26T09:03:18.818Z</time></trkpt><trkpt lat="42.8172211" lon="11.8091499"><ele>310.0</ele><time>2026-04-26T09:03:19.818Z</time></trkpt><trkpt lat="42.8171497" lon="11.8092663"><ele>310.0</ele><time>2026-04-26T09:03:20.817Z</time></trkpt><trkpt lat="42.8170722" lon="11.8093899"><ele>309.25</ele><time>2026-04-26T09:03:21.818Z</time></trkpt><trkpt lat="42.8169968" lon="11.8095092"><ele>308.5</ele><time>2026-04-26T09:03:22.817Z</time></trkpt><trkpt lat="42.8169155" lon="11.8096313"><ele>307.75</ele><time>2026-04-26T09:03:23.817Z</time></trkpt><trkpt lat="42.816831" lon="11.809748"><ele>307.0</ele><time>2026-04-26T09:03:24.818Z</time></trkpt><trkpt lat="42.8167547" lon="11.8098624"><ele>307.0</ele><time>2026-04-26T09:03:25.817Z</time></trkpt><trkpt lat="42.8166819" lon="11.8099593"><ele>307.0</ele><time>2026-04-26T09:03:26.818Z</time></trkpt><trkpt lat="42.8166197" lon="11.8100519"><ele>307.0</ele><time>2026-04-26T09:03:27.818Z</time></trkpt><trkpt lat="42.816544" lon="11.8101384"><ele>307.0</ele><time>2026-04-26T09:03:29.818Z</time></trkpt><trkpt lat="42.8164851" lon="11.8102182"><ele>307.0</ele><time>2026-04-26T09:03:32.818Z</time></trkpt><trkpt lat="42.8165575" lon="11.8101899"><ele>307.0</ele><time>2026-04-26T09:04:33.817Z</time></trkpt><trkpt lat="42.8165923" lon="11.8101158"><ele>307.0</ele><time>2026-04-26T09:04:34.817Z</time></trkpt><trkpt lat="42.8166493" lon="11.8100288"><ele>307.0</ele><time>2026-04-26T09:04:35.817Z</time></trkpt><trkpt lat="42.8167135" lon="11.8099228"><ele>307.0</ele><time>2026-04-26T09:04:36.817Z</time></trkpt><trkpt lat="42.8167953" lon="11.8098089"><ele>307.0</ele><time>2026-04-26T09:04:37.817Z</time></trkpt><trkpt lat="42.8168808" lon="11.8096879"><ele>308.0</ele><time>2026-04-26T09:04:38.817Z</time></trkpt><trkpt lat="42.8169788" lon="11.8095521"><ele>309.0</ele><time>2026-04-26T09:04:39.817Z</time></trkpt><trkpt lat="42.8170781" lon="11.809392"><ele>310.0</ele><time>2026-04-26T09:04:40.817Z</time></trkpt><trkpt lat="42.8171906" lon="11.8092337"><ele>310.0</ele><time>2026-04-26T09:04:41.817Z</time></trkpt><trkpt lat="42.8173019" lon="11.8090641"><ele>310.0</ele><time>2026-04-26T09:04:42.817Z</time></trkpt><trkpt lat="42.8174164" lon="11.8088929"><ele>310.0</ele><time>2026-04-26T09:04:43.816Z</time></trkpt><trkpt lat="42.8175361" lon="11.8087191"><ele>309.0</ele><time>2026-04-26T09:04:44.817Z</time></trkpt><trkpt lat="42.8176616" lon="11.8085391"><ele>308.0</ele><time>2026-04-26T09:04:45.816Z</time></trkpt><trkpt lat="42.8177901" lon="11.8083594"><ele>307.0</ele><time>2026-04-26T09:04:46.817Z</time></trkpt><trkpt lat="42.8179257" lon="11.8081756"><ele>307.0</ele><time>2026-04-26T09:04:47.817Z</time></trkpt><trkpt lat="42.8180605" lon="11.8079849"><ele>307.0</ele><time>2026-04-26T09:04:48.817Z</time></trkpt><trkpt lat="42.8181982" lon="11.807781"><ele>307.0</ele><time>2026-04-26T09:04:49.817Z</time></trkpt><trkpt lat="42.8183342" lon="11.8075834"><ele>306.0</ele><time>2026-04-26T09:04:50.817Z</time></trkpt><trkpt lat="42.818459" lon="11.8073757"><ele>305.0</ele><time>2026-04-26T09:04:51.816Z</time></trkpt><trkpt lat="42.8185843" lon="11.8071591"><ele>304.0</ele><time>2026-04-26T09:04:52.817Z</time></trkpt><trkpt lat="42.8187077" lon="11.8069391"><ele>304.66666666666663</ele><time>2026-04-26T09:04:53.817Z</time></trkpt><trkpt lat="42.8188249" lon="11.8067155"><ele>305.3333333333333</ele><time>2026-04-26T09:04:54.816Z</time></trkpt><trkpt lat="42.8189464" lon="11.8064854"><ele>306.0</ele><time>2026-04-26T09:04:55.817Z</time></trkpt><trkpt lat="42.8190643" lon="11.8062515"><ele>306.0</ele><time>2026-04-26T09:04:56.817Z</time></trkpt><trkpt lat="42.819178" lon="11.8060186"><ele>306.0</ele><time>2026-04-26T09:04:57.817Z</time></trkpt><trkpt lat="42.8192937" lon="11.8057933"><ele>306.0</ele><time>2026-04-26T09:04:58.817Z</time></trkpt><trkpt lat="42.819405" lon="11.8055801"><ele>308.0</ele><time>2026-04-26T09:04:59.817Z</time></trkpt><trkpt lat="42.8195012" lon="11.8053813"><ele>310.0</ele><time>2026-04-26T09:05:00.817Z</time></trkpt><trkpt lat="42.819595" lon="11.8051771"><ele>312.0</ele><time>2026-04-26T09:05:01.817Z</time></trkpt><trkpt lat="42.8196586" lon="11.8049635"><ele>312.0</ele><time>2026-04-26T09:05:02.816Z</time></trkpt><trkpt lat="42.8197014" lon="11.8047273"><ele>312.0</ele><time>2026-04-26T09:05:03.816Z</time></trkpt><trkpt lat="42.819722" lon="11.8044707"><ele>312.0</ele><time>2026-04-26T09:05:04.817Z</time></trkpt><trkpt lat="42.8197158" lon="11.8042134"><ele>313.0</ele><time>2026-04-26T09:05:05.817Z</time></trkpt><trkpt lat="42.8196792" lon="11.8039604"><ele>314.0</ele><time>2026-04-26T09:05:06.816Z</time></trkpt><trkpt lat="42.8196132" lon="11.8037125"><ele>315.0</ele><time>2026-04-26T09:05:07.817Z</time></trkpt><trkpt lat="42.8195452" lon="11.8034643"><ele>317.3333333333333</ele><time>2026-04-26T09:05:08.817Z</time></trkpt><trkpt lat="42.8194867" lon="11.8032161"><ele>319.66666666666663</ele><time>2026-04-26T09:05:09.817Z</time></trkpt><trkpt lat="42.8194514" lon="11.8029656"><ele>322.0</ele><time>2026-04-26T09:05:10.817Z</time></trkpt><trkpt lat="42.8194351" lon="11.8026996"><ele>323.3333333333333</ele><time>2026-04-26T09:05:11.817Z</time></trkpt><trkpt lat="42.8194276" lon="11.8024279"><ele>324.6666666666667</ele><time>2026-04-26T09:05:12.817Z</time></trkpt><trkpt lat="42.8194146" lon="11.8021467"><ele>326.0</ele><time>2026-04-26T09:05:13.817Z</time></trkpt><trkpt lat="42.8193984" lon="11.8018663"><ele>324.0</ele><time>2026-04-26T09:05:14.817Z</time></trkpt><trkpt lat="42.8193809" lon="11.8015883"><ele>322.0</ele><time>2026-04-26T09:05:15.817Z</time></trkpt><trkpt lat="42.819374" lon="11.801315"><ele>320.0</ele><time>2026-04-26T09:05:16.816Z</time></trkpt><trkpt lat="42.8193928" lon="11.8010507"><ele>318.0</ele><time>2026-04-26T09:05:17.817Z</time></trkpt><trkpt lat="42.8194515" lon="11.8008051"><ele>316.0</ele><time>2026-04-26T09:05:18.817Z</time></trkpt><trkpt lat="42.81955" lon="11.800577"><ele>314.0</ele><time>2026-04-26T09:05:19.816Z</time></trkpt><trkpt lat="42.8196672" lon="11.8003633"><ele>316.0</ele><time>2026-04-26T09:05:20.817Z</time></trkpt><trkpt lat="42.8197786" lon="11.8001662"><ele>318.0</ele><time>2026-04-26T09:05:21.817Z</time></trkpt><trkpt lat="42.8198809" lon="11.7999937"><ele>320.0</ele><time>2026-04-26T09:05:22.817Z</time></trkpt><trkpt lat="42.8199673" lon="11.7998228"><ele>320.0</ele><time>2026-04-26T09:05:23.817Z</time></trkpt><trkpt lat="42.8200272" lon="11.7996607"><ele>320.0</ele><time>2026-04-26T09:05:24.817Z</time></trkpt><trkpt lat="42.8200623" lon="11.7994867"><ele>320.0</ele><time>2026-04-26T09:05:25.816Z</time></trkpt><trkpt lat="42.8200571" lon="11.7992962"><ele>320.0</ele><time>2026-04-26T09:05:26.817Z</time></trkpt><trkpt lat="42.8200141" lon="11.7991168"><ele>321.25</ele><time>2026-04-26T09:05:27.817Z</time></trkpt><trkpt lat="42.8199403" lon="11.7989437"><ele>322.5</ele><time>2026-04-26T09:05:28.817Z</time></trkpt><trkpt lat="42.8198449" lon="11.7987909"><ele>323.75</ele><time>2026-04-26T09:05:29.817Z</time></trkpt><trkpt lat="42.8197348" lon="11.7986609"><ele>325.0</ele><time>2026-04-26T09:05:30.817Z</time></trkpt><trkpt lat="42.8196159" lon="11.7985336"><ele>326.25</ele><time>2026-04-26T09:05:31.817Z</time></trkpt><trkpt lat="42.8195228" lon="11.7984009"><ele>327.5</ele><time>2026-04-26T09:05:32.817Z</time></trkpt><trkpt lat="42.81946" lon="11.7982278"><ele>328.75</ele><time>2026-04-26T09:05:33.816Z</time></trkpt><trkpt lat="42.8194314" lon="11.7980439"><ele>330.0</ele><time>2026-04-26T09:05:34.817Z</time></trkpt><trkpt lat="42.8194304" lon="11.7978495"><ele>329.3333333333333</ele><time>2026-04-26T09:05:35.817Z</time></trkpt><trkpt lat="42.8194783" lon="11.797666"><ele>328.66666666666663</ele><time>2026-04-26T09:05:36.817Z</time></trkpt><trkpt lat="42.8195581" lon="11.7975021"><ele>328.0</ele><time>2026-04-26T09:05:37.817Z</time></trkpt><trkpt lat="42.8196645" lon="11.7973346"><ele>328.0</ele><time>2026-04-26T09:05:38.816Z</time></trkpt><trkpt lat="42.8197684" lon="11.797161"><ele>328.0</ele><time>2026-04-26T09:05:39.817Z</time></trkpt><trkpt lat="42.819869" lon="11.796974"><ele>328.0</ele><time>2026-04-26T09:05:40.817Z</time></trkpt><trkpt lat="42.8199691" lon="11.7967712"><ele>330.3333333333333</ele><time>2026-04-26T09:05:41.816Z</time></trkpt><trkpt lat="42.8200676" lon="11.7965583"><ele>332.6666666666667</ele><time>2026-04-26T09:05:42.817Z</time></trkpt><trkpt lat="42.8201641" lon="11.7963342"><ele>335.0</ele><time>2026-04-26T09:05:43.817Z</time></trkpt><trkpt lat="42.8202555" lon="11.7961019"><ele>330.33333333333337</ele><time>2026-04-26T09:05:44.816Z</time></trkpt><trkpt lat="42.8203394" lon="11.7958643"><ele>325.6666666666667</ele><time>2026-04-26T09:05:45.817Z</time></trkpt><trkpt lat="42.8204247" lon="11.7956187"><ele>321.0</ele><time>2026-04-26T09:05:46.817Z</time></trkpt><trkpt lat="42.8205061" lon="11.7953624"><ele>318.0</ele><time>2026-04-26T09:05:47.817Z</time></trkpt><trkpt lat="42.820588" lon="11.7951049"><ele>315.0</ele><time>2026-04-26T09:05:48.816Z</time></trkpt><trkpt lat="42.8206719" lon="11.7948418"><ele>312.0</ele><time>2026-04-26T09:05:49.816Z</time></trkpt><trkpt lat="42.8207603" lon="11.7945785"><ele>309.6666666666667</ele><time>2026-04-26T09:05:50.816Z</time></trkpt><trkpt lat="42.8208501" lon="11.794321"><ele>307.33333333333337</ele><time>2026-04-26T09:05:51.817Z</time></trkpt><trkpt lat="42.8209423" lon="11.794069"><ele>305.0</ele><time>2026-04-26T09:05:52.816Z</time></trkpt><trkpt lat="42.821039" lon="11.7938237"><ele>307.6666666666667</ele><time>2026-04-26T09:05:53.817Z</time></trkpt><trkpt lat="42.8211409" lon="11.7935845"><ele>310.3333333333333</ele><time>2026-04-26T09:05:54.817Z</time></trkpt><trkpt lat="42.8212477" lon="11.7933533"><ele>313.0</ele><time>2026-04-26T09:05:55.817Z</time></trkpt><trkpt lat="42.8213543" lon="11.7931182"><ele>313.0</ele><time>2026-04-26T09:05:56.816Z</time></trkpt><trkpt lat="42.8214611" lon="11.7928943"><ele>313.0</ele><time>2026-04-26T09:05:57.817Z</time></trkpt><trkpt lat="42.8215629" lon="11.7926757"><ele>313.0</ele><time>2026-04-26T09:05:58.817Z</time></trkpt><trkpt lat="42.8216616" lon="11.7924689"><ele>313.3333333333333</ele><time>2026-04-26T09:05:59.816Z</time></trkpt><trkpt lat="42.8217608" lon="11.7922647"><ele>313.6666666666667</ele><time>2026-04-26T09:06:00.817Z</time></trkpt><trkpt lat="42.8218546" lon="11.7920658"><ele>314.0</ele><time>2026-04-26T09:06:01.817Z</time></trkpt><trkpt lat="42.8219488" lon="11.791875"><ele>311.33333333333337</ele><time>2026-04-26T09:06:02.817Z</time></trkpt><trkpt lat="42.8220408" lon="11.7916903"><ele>308.6666666666667</ele><time>2026-04-26T09:06:03.817Z</time></trkpt><trkpt lat="42.8221174" lon="11.7915145"><ele>306.0</ele><time>2026-04-26T09:06:04.817Z</time></trkpt><trkpt lat="42.8221778" lon="11.7913436"><ele>306.0</ele><time>2026-04-26T09:06:05.817Z</time></trkpt><trkpt lat="42.8222044" lon="11.7911757"><ele>306.0</ele><time>2026-04-26T09:06:06.817Z</time></trkpt><trkpt lat="42.822214" lon="11.7910201"><ele>306.0</ele><time>2026-04-26T09:06:07.817Z</time></trkpt><trkpt lat="42.8222369" lon="11.7908879"><ele>306.0</ele><time>2026-04-26T09:06:08.816Z</time></trkpt><trkpt lat="42.8222583" lon="11.7907764"><ele>306.0</ele><time>2026-04-26T09:06:09.817Z</time></trkpt><trkpt lat="42.822264" lon="11.7906882"><ele>304.8333333333333</ele><time>2026-04-26T09:06:10.817Z</time></trkpt><trkpt lat="42.822246" lon="11.790603"><ele>303.6666666666667</ele><time>2026-04-26T09:06:11.816Z</time></trkpt><trkpt lat="42.8221668" lon="11.7905014"><ele>302.5</ele><time>2026-04-26T09:06:13.817Z</time></trkpt><trkpt lat="42.8220807" lon="11.7904547"><ele>301.33333333333337</ele><time>2026-04-26T09:06:15.817Z</time></trkpt><trkpt lat="42.8220161" lon="11.7904679"><ele>300.1666666666667</ele><time>2026-04-26T09:06:16.817Z</time></trkpt><trkpt lat="42.821934" lon="11.7905395"><ele>299.0</ele><time>2026-04-26T09:06:17.817Z</time></trkpt><trkpt lat="42.8218634" lon="11.7906351"><ele>298.0</ele><time>2026-04-26T09:06:18.816Z</time></trkpt><trkpt lat="42.8217971" lon="11.790768"><ele>297.0</ele><time>2026-04-26T09:06:19.817Z</time></trkpt><trkpt lat="42.8217113" lon="11.7909156"><ele>296.0</ele><time>2026-04-26T09:06:20.817Z</time></trkpt><trkpt lat="42.8216185" lon="11.7910783"><ele>295.0</ele><time>2026-04-26T09:06:21.817Z</time></trkpt><trkpt lat="42.8215187" lon="11.7912553"><ele>295.0</ele><time>2026-04-26T09:06:22.816Z</time></trkpt><trkpt lat="42.8214135" lon="11.7914498"><ele>295.0</ele><time>2026-04-26T09:06:23.817Z</time></trkpt><trkpt lat="42.8213061" lon="11.7916474"><ele>295.0</ele><time>2026-04-26T09:06:24.816Z</time></trkpt><trkpt lat="42.8211948" lon="11.7918582"><ele>294.0</ele><time>2026-04-26T09:06:25.817Z</time></trkpt><trkpt lat="42.8210793" lon="11.7920708"><ele>293.0</ele><time>2026-04-26T09:06:26.817Z</time></trkpt><trkpt lat="42.8209548" lon="11.792297"><ele>292.0</ele><time>2026-04-26T09:06:27.817Z</time></trkpt><trkpt lat="42.8208268" lon="11.7925258"><ele>294.3333333333333</ele><time>2026-04-26T09:06:28.816Z</time></trkpt><trkpt lat="42.8206954" lon="11.7927619"><ele>296.6666666666667</ele><time>2026-04-26T09:06:29.817Z</time></trkpt><trkpt lat="42.820562" lon="11.7929975"><ele>299.0</ele><time>2026-04-26T09:06:30.817Z</time></trkpt><trkpt lat="42.8204294" lon="11.7932435"><ele>299.0</ele><time>2026-04-26T09:06:31.816Z</time></trkpt><trkpt lat="42.8202973" lon="11.7934874"><ele>299.0</ele><time>2026-04-26T09:06:32.816Z</time></trkpt><trkpt lat="42.8201687" lon="11.7937277"><ele>299.0</ele><time>2026-04-26T09:06:33.817Z</time></trkpt><trkpt lat="42.8200416" lon="11.7939645"><ele>299.0</ele><time>2026-04-26T09:06:34.816Z</time></trkpt><trkpt lat="42.8199105" lon="11.7941977"><ele>299.0</ele><time>2026-04-26T09:06:35.816Z</time></trkpt><trkpt lat="42.8197814" lon="11.7944309"><ele>299.0</ele><time>2026-04-26T09:06:36.817Z</time></trkpt><trkpt lat="42.8196537" lon="11.7946599"><ele>299.0</ele><time>2026-04-26T09:06:37.816Z</time></trkpt><trkpt lat="42.8195272" lon="11.7948913"><ele>299.0</ele><time>2026-04-26T09:06:38.817Z</time></trkpt><trkpt lat="42.8194019" lon="11.7951178"><ele>299.0</ele><time>2026-04-26T09:06:39.816Z</time></trkpt><trkpt lat="42.8192769" lon="11.7953408"><ele>297.0</ele><time>2026-04-26T09:06:40.817Z</time></trkpt><trkpt lat="42.8191482" lon="11.7955546"><ele>295.0</ele><time>2026-04-26T09:06:41.817Z</time></trkpt><trkpt lat="42.8190093" lon="11.7957607"><ele>293.0</ele><time>2026-04-26T09:06:42.817Z</time></trkpt><trkpt lat="42.8188633" lon="11.7959573"><ele>292.33333333333337</ele><time>2026-04-26T09:06:43.816Z</time></trkpt><trkpt lat="42.8187042" lon="11.7961469"><ele>291.6666666666667</ele><time>2026-04-26T09:06:44.817Z</time></trkpt><trkpt lat="42.8185412" lon="11.7963275"><ele>291.0</ele><time>2026-04-26T09:06:45.817Z</time></trkpt><trkpt lat="42.81837" lon="11.7964979"><ele>291.0</ele><time>2026-04-26T09:06:46.816Z</time></trkpt><trkpt lat="42.8181967" lon="11.7966583"><ele>291.0</ele><time>2026-04-26T09:06:47.817Z</time></trkpt><trkpt lat="42.8180168" lon="11.7968072"><ele>291.0</ele><time>2026-04-26T09:06:48.817Z</time></trkpt><trkpt lat="42.8178314" lon="11.7969471"><ele>290.6666666666667</ele><time>2026-04-26T09:06:49.816Z</time></trkpt><trkpt lat="42.8176425" lon="11.7970696"><ele>290.33333333333337</ele><time>2026-04-26T09:06:50.817Z</time></trkpt><trkpt lat="42.8174517" lon="11.7971931"><ele>290.0</ele><time>2026-04-26T09:06:51.817Z</time></trkpt><trkpt lat="42.8172565" lon="11.7973069"><ele>290.0</ele><time>2026-04-26T09:06:52.817Z</time></trkpt><trkpt lat="42.8170571" lon="11.7974245"><ele>290.0</ele><time>2026-04-26T09:06:53.817Z</time></trkpt><trkpt lat="42.8168562" lon="11.7975466"><ele>290.0</ele><time>2026-04-26T09:06:54.817Z</time></trkpt><trkpt lat="42.8166481" lon="11.7976709"><ele>290.5</ele><time>2026-04-26T09:06:55.817Z</time></trkpt><trkpt lat="42.8164399" lon="11.7977936"><ele>291.0</ele><time>2026-04-26T09:06:56.816Z</time></trkpt><trkpt lat="42.8162276" lon="11.7979236"><ele>291.0</ele><time>2026-04-26T09:06:57.816Z</time></trkpt><trkpt lat="42.816006" lon="11.7980652"><ele>291.0</ele><time>2026-04-26T09:06:58.817Z</time></trkpt><trkpt lat="42.8157816" lon="11.7982161"><ele>290.5</ele><time>2026-04-26T09:06:59.817Z</time></trkpt><trkpt lat="42.8155486" lon="11.7983704"><ele>290.0</ele><time>2026-04-26T09:07:00.817Z</time></trkpt><trkpt lat="42.8153101" lon="11.7985139"><ele>289.5</ele><time>2026-04-26T09:07:01.817Z</time></trkpt><trkpt lat="42.8150601" lon="11.7986612"><ele>289.0</ele><time>2026-04-26T09:07:02.817Z</time></trkpt><trkpt lat="42.8148044" lon="11.7988084"><ele>289.0</ele><time>2026-04-26T09:07:03.817Z</time></trkpt><trkpt lat="42.8145481" lon="11.7989581"><ele>289.0</ele><time>2026-04-26T09:07:04.817Z</time></trkpt><trkpt lat="42.8142875" lon="11.799114"><ele>289.5</ele><time>2026-04-26T09:07:05.816Z</time></trkpt><trkpt lat="42.8140316" lon="11.7992616"><ele>290.0</ele><time>2026-04-26T09:07:06.817Z</time></trkpt><trkpt lat="42.8137756" lon="11.7994137"><ele>290.0</ele><time>2026-04-26T09:07:07.817Z</time></trkpt><trkpt lat="42.813521" lon="11.7995663"><ele>290.0</ele><time>2026-04-26T09:07:08.816Z</time></trkpt><trkpt lat="42.8132647" lon="11.7997203"><ele>290.0</ele><time>2026-04-26T09:07:09.816Z</time></trkpt><trkpt lat="42.8130118" lon="11.7998734"><ele>290.0</ele><time>2026-04-26T09:07:10.817Z</time></trkpt><trkpt lat="42.8127569" lon="11.8000251"><ele>293.5</ele><time>2026-04-26T09:07:11.817Z</time></trkpt><trkpt lat="42.8125024" lon="11.8001796"><ele>297.0</ele><time>2026-04-26T09:07:12.817Z</time></trkpt><trkpt lat="42.8122476" lon="11.8003315"><ele>297.0</ele><time>2026-04-26T09:07:13.817Z</time></trkpt><trkpt lat="42.8119951" lon="11.8004888"><ele>297.0</ele><time>2026-04-26T09:07:14.817Z</time></trkpt><trkpt lat="42.8117437" lon="11.8006444"><ele>295.5</ele><time>2026-04-26T09:07:15.816Z</time></trkpt><trkpt lat="42.811494" lon="11.8007998"><ele>294.0</ele><time>2026-04-26T09:07:16.817Z</time></trkpt><trkpt lat="42.8112432" lon="11.8009531"><ele>298.5</ele><time>2026-04-26T09:07:17.817Z</time></trkpt><trkpt lat="42.8109916" lon="11.8011047"><ele>303.0</ele><time>2026-04-26T09:07:18.816Z</time></trkpt><trkpt lat="42.8107403" lon="11.8012575"><ele>303.0</ele><time>2026-04-26T09:07:19.816Z</time></trkpt><trkpt lat="42.8104866" lon="11.801404"><ele>303.0</ele><time>2026-04-26T09:07:20.817Z</time></trkpt><trkpt lat="42.8102356" lon="11.8015503"><ele>305.0</ele><time>2026-04-26T09:07:21.817Z</time></trkpt><trkpt lat="42.8099877" lon="11.8017022"><ele>307.0</ele><time>2026-04-26T09:07:22.817Z</time></trkpt><trkpt lat="42.8097406" lon="11.801858"><ele>307.0</ele><time>2026-04-26T09:07:23.816Z</time></trkpt><trkpt lat="42.809485" lon="11.8020113"><ele>307.0</ele><time>2026-04-26T09:07:24.817Z</time></trkpt><trkpt lat="42.8092335" lon="11.8021614"><ele>303.5</ele><time>2026-04-26T09:07:25.817Z</time></trkpt><trkpt lat="42.8089875" lon="11.802312"><ele>300.0</ele><time>2026-04-26T09:07:26.817Z</time></trkpt><trkpt lat="42.8087391" lon="11.8024626"><ele>298.5</ele><time>2026-04-26T09:07:27.817Z</time></trkpt><trkpt lat="42.8084864" lon="11.8026112"><ele>297.0</ele><time>2026-04-26T09:07:28.816Z</time></trkpt><trkpt lat="42.8082363" lon="11.8027595"><ele>297.0</ele><time>2026-04-26T09:07:29.816Z</time></trkpt><trkpt lat="42.8079858" lon="11.8029177"><ele>297.0</ele><time>2026-04-26T09:07:30.817Z</time></trkpt><trkpt lat="42.8077343" lon="11.8030645"><ele>296.0</ele><time>2026-04-26T09:07:31.817Z</time></trkpt><trkpt lat="42.8074826" lon="11.8032168"><ele>295.0</ele><time>2026-04-26T09:07:32.817Z</time></trkpt><trkpt lat="42.8072305" lon="11.8033672"><ele>294.5</ele><time>2026-04-26T09:07:33.817Z</time></trkpt><trkpt lat="42.8069806" lon="11.8035199"><ele>294.0</ele><time>2026-04-26T09:07:34.817Z</time></trkpt><trkpt lat="42.8067338" lon="11.8036684"><ele>294.0</ele><time>2026-04-26T09:07:35.817Z</time></trkpt><trkpt lat="42.8064843" lon="11.803822"><ele>294.0</ele><time>2026-04-26T09:07:36.816Z</time></trkpt><trkpt lat="42.8062393" lon="11.8039771"><ele>292.5</ele><time>2026-04-26T09:07:37.817Z</time></trkpt><trkpt lat="42.8059916" lon="11.8041321"><ele>291.0</ele><time>2026-04-26T09:07:38.816Z</time></trkpt><trkpt lat="42.8057454" lon="11.8042873"><ele>293.5</ele><time>2026-04-26T09:07:39.816Z</time></trkpt><trkpt lat="42.8054965" lon="11.8044352"><ele>296.0</ele><time>2026-04-26T09:07:40.817Z</time></trkpt><trkpt lat="42.8052443" lon="11.8045872"><ele>294.5</ele><time>2026-04-26T09:07:41.817Z</time></trkpt><trkpt lat="42.8049902" lon="11.8047338"><ele>293.0</ele><time>2026-04-26T09:07:42.817Z</time></trkpt><trkpt lat="42.8047423" lon="11.804883"><ele>293.0</ele><time>2026-04-26T09:07:43.817Z</time></trkpt><trkpt lat="42.804498" lon="11.8050345"><ele>293.0</ele><time>2026-04-26T09:07:44.817Z</time></trkpt><trkpt lat="42.8042465" lon="11.8051873"><ele>299.0</ele><time>2026-04-26T09:07:45.817Z</time></trkpt><trkpt lat="42.8039958" lon="11.8053373"><ele>305.0</ele><time>2026-04-26T09:07:46.817Z</time></trkpt><trkpt lat="42.8037428" lon="11.8054825"><ele>299.0</ele><time>2026-04-26T09:07:47.817Z</time></trkpt><trkpt lat="42.8034911" lon="11.8056308"><ele>293.0</ele><time>2026-04-26T09:07:48.817Z</time></trkpt><trkpt lat="42.8032399" lon="11.805784"><ele>293.0</ele><time>2026-04-26T09:07:49.817Z</time></trkpt><trkpt lat="42.8029882" lon="11.8059372"><ele>293.0</ele><time>2026-04-26T09:07:50.816Z</time></trkpt><trkpt lat="42.8027384" lon="11.8060875"><ele>291.0</ele><time>2026-04-26T09:07:51.817Z</time></trkpt><trkpt lat="42.8024914" lon="11.8062396"><ele>289.0</ele><time>2026-04-26T09:07:52.816Z</time></trkpt><trkpt lat="42.8022499" lon="11.8063839"><ele>289.0</ele><time>2026-04-26T09:07:53.817Z</time></trkpt><trkpt lat="42.8020156" lon="11.8065203"><ele>289.0</ele><time>2026-04-26T09:07:54.816Z</time></trkpt><trkpt lat="42.8017869" lon="11.8066657"><ele>286.5</ele><time>2026-04-26T09:07:55.817Z</time></trkpt><trkpt lat="42.8015723" lon="11.8068317"><ele>284.0</ele><time>2026-04-26T09:07:56.817Z</time></trkpt><trkpt lat="42.8013636" lon="11.8070269"><ele>284.0</ele><time>2026-04-26T09:07:57.817Z</time></trkpt><trkpt lat="42.8011652" lon="11.8072443"><ele>284.0</ele><time>2026-04-26T09:07:58.816Z</time></trkpt><trkpt lat="42.8009881" lon="11.8074938"><ele>279.5</ele><time>2026-04-26T09:07:59.816Z</time></trkpt><trkpt lat="42.8008289" lon="11.8077696"><ele>275.0</ele><time>2026-04-26T09:08:00.816Z</time></trkpt><trkpt lat="42.8006885" lon="11.8080668"><ele>275.0</ele><time>2026-04-26T09:08:01.817Z</time></trkpt><trkpt lat="42.8005651" lon="11.8083848"><ele>275.0</ele><time>2026-04-26T09:08:02.817Z</time></trkpt><trkpt lat="42.800459" lon="11.8087131"><ele>275.0</ele><time>2026-04-26T09:08:03.817Z</time></trkpt><trkpt lat="42.800351" lon="11.8090485"><ele>275.0</ele><time>2026-04-26T09:08:04.817Z</time></trkpt><trkpt lat="42.8002426" lon="11.8093847"><ele>275.5</ele><time>2026-04-26T09:08:05.817Z</time></trkpt><trkpt lat="42.8001303" lon="11.8097191"><ele>276.0</ele><time>2026-04-26T09:08:06.817Z</time></trkpt><trkpt lat="42.800018" lon="11.8100518"><ele>276.0</ele><time>2026-04-26T09:08:07.817Z</time></trkpt><trkpt lat="42.7999057" lon="11.8103818"><ele>276.0</ele><time>2026-04-26T09:08:08.817Z</time></trkpt><trkpt lat="42.7997967" lon="11.8107065"><ele>276.0</ele><time>2026-04-26T09:08:09.817Z</time></trkpt><trkpt lat="42.7996897" lon="11.8110299"><ele>276.0</ele><time>2026-04-26T09:08:10.816Z</time></trkpt><trkpt lat="42.799586" lon="11.8113407"><ele>276.0</ele><time>2026-04-26T09:08:11.817Z</time></trkpt><trkpt lat="42.7994876" lon="11.8116369"><ele>276.0</ele><time>2026-04-26T09:08:12.816Z</time></trkpt><trkpt lat="42.7993918" lon="11.81191"><ele>280.3333333333333</ele><time>2026-04-26T09:08:13.817Z</time></trkpt><trkpt lat="42.7992755" lon="11.8121432"><ele>284.66666666666663</ele><time>2026-04-26T09:08:14.817Z</time></trkpt><trkpt lat="42.7991401" lon="11.8123452"><ele>289.0</ele><time>2026-04-26T09:08:15.816Z</time></trkpt><trkpt lat="42.7989864" lon="11.8125254"><ele>289.66666666666663</ele><time>2026-04-26T09:08:16.817Z</time></trkpt><trkpt lat="42.7988056" lon="11.8126879"><ele>290.3333333333333</ele><time>2026-04-26T09:08:17.816Z</time></trkpt><trkpt lat="42.7986245" lon="11.8128357"><ele>291.0</ele><time>2026-04-26T09:08:18.817Z</time></trkpt><trkpt lat="42.7984391" lon="11.812992"><ele>289.6666666666667</ele><time>2026-04-26T09:08:19.817Z</time></trkpt><trkpt lat="42.7982541" lon="11.8131497"><ele>288.33333333333337</ele><time>2026-04-26T09:08:20.817Z</time></trkpt><trkpt lat="42.7980645" lon="11.8133134"><ele>287.0</ele><time>2026-04-26T09:08:21.817Z</time></trkpt><trkpt lat="42.7978756" lon="11.8134735"><ele>287.0</ele><time>2026-04-26T09:08:22.817Z</time></trkpt><trkpt lat="42.7976743" lon="11.8136376"><ele>287.0</ele><time>2026-04-26T09:08:23.817Z</time></trkpt><trkpt lat="42.7974735" lon="11.8138085"><ele>287.0</ele><time>2026-04-26T09:08:24.817Z</time></trkpt><trkpt lat="42.7972715" lon="11.8139725"><ele>287.0</ele><time>2026-04-26T09:08:25.816Z</time></trkpt><trkpt lat="42.7970646" lon="11.814152"><ele>287.0</ele><time>2026-04-26T09:08:26.817Z</time></trkpt><trkpt lat="42.7968504" lon="11.8143333"><ele>287.0</ele><time>2026-04-26T09:08:27.816Z</time></trkpt><trkpt lat="42.7966316" lon="11.8145205"><ele>287.0</ele><time>2026-04-26T09:08:28.817Z</time></trkpt><trkpt lat="42.796413" lon="11.8147084"><ele>287.0</ele><time>2026-04-26T09:08:29.817Z</time></trkpt><trkpt lat="42.7961924" lon="11.8148995"><ele>286.5</ele><time>2026-04-26T09:08:30.817Z</time></trkpt><trkpt lat="42.7959755" lon="11.8150944"><ele>286.0</ele><time>2026-04-26T09:08:31.816Z</time></trkpt><trkpt lat="42.7957572" lon="11.8153032"><ele>286.0</ele><time>2026-04-26T09:08:32.817Z</time></trkpt><trkpt lat="42.7955424" lon="11.8155142"><ele>286.0</ele><time>2026-04-26T09:08:33.816Z</time></trkpt><trkpt lat="42.795334" lon="11.8157367"><ele>285.0</ele><time>2026-04-26T09:08:34.816Z</time></trkpt><trkpt lat="42.795131" lon="11.815975"><ele>284.0</ele><time>2026-04-26T09:08:35.817Z</time></trkpt><trkpt lat="42.7949359" lon="11.8162172"><ele>284.0</ele><time>2026-04-26T09:08:36.817Z</time></trkpt><trkpt lat="42.7947472" lon="11.8164676"><ele>284.0</ele><time>2026-04-26T09:08:37.816Z</time></trkpt><trkpt lat="42.7945655" lon="11.8167275"><ele>283.5</ele><time>2026-04-26T09:08:38.817Z</time></trkpt><trkpt lat="42.7943938" lon="11.8169927"><ele>283.0</ele><time>2026-04-26T09:08:39.817Z</time></trkpt><trkpt lat="42.7942187" lon="11.8172623"><ele>283.0</ele><time>2026-04-26T09:08:40.817Z</time></trkpt><trkpt lat="42.7940521" lon="11.8175285"><ele>283.0</ele><time>2026-04-26T09:08:41.816Z</time></trkpt><trkpt lat="42.7938857" lon="11.8177881"><ele>286.5</ele><time>2026-04-26T09:08:42.817Z</time></trkpt><trkpt lat="42.7937295" lon="11.8180368"><ele>290.0</ele><time>2026-04-26T09:08:43.817Z</time></trkpt><trkpt lat="42.7935815" lon="11.8182689"><ele>289.0</ele><time>2026-04-26T09:08:44.817Z</time></trkpt><trkpt lat="42.7934397" lon="11.8184727"><ele>288.0</ele><time>2026-04-26T09:08:45.817Z</time></trkpt><trkpt lat="42.7932912" lon="11.8186737"><ele>287.0</ele><time>2026-04-26T09:08:46.817Z</time></trkpt><trkpt lat="42.7931285" lon="11.8188715"><ele>287.0</ele><time>2026-04-26T09:08:47.817Z</time></trkpt><trkpt lat="42.7929437" lon="11.8190532"><ele>287.0</ele><time>2026-04-26T09:08:48.816Z</time></trkpt><trkpt lat="42.7927531" lon="11.8192359"><ele>285.0</ele><time>2026-04-26T09:08:49.817Z</time></trkpt><trkpt lat="42.7925568" lon="11.8194303"><ele>283.0</ele><time>2026-04-26T09:08:50.817Z</time></trkpt><trkpt lat="42.7923606" lon="11.8196279"><ele>283.0</ele><time>2026-04-26T09:08:51.817Z</time></trkpt><trkpt lat="42.792164" lon="11.8198267"><ele>283.0</ele><time>2026-04-26T09:08:52.817Z</time></trkpt><trkpt lat="42.791967" lon="11.8200288"><ele>280.5</ele><time>2026-04-26T09:08:53.817Z</time></trkpt><trkpt lat="42.7917681" lon="11.8202324"><ele>278.0</ele><time>2026-04-26T09:08:54.817Z</time></trkpt><trkpt lat="42.7915672" lon="11.8204381"><ele>278.0</ele><time>2026-04-26T09:08:55.817Z</time></trkpt><trkpt lat="42.7913694" lon="11.8206437"><ele>278.0</ele><time>2026-04-26T09:08:56.817Z</time></trkpt><trkpt lat="42.7911728" lon="11.8208555"><ele>275.0</ele><time>2026-04-26T09:08:57.817Z</time></trkpt><trkpt lat="42.7909845" lon="11.8210725"><ele>272.0</ele><time>2026-04-26T09:08:58.817Z</time></trkpt><trkpt lat="42.7908063" lon="11.8213097"><ele>272.0</ele><time>2026-04-26T09:08:59.817Z</time></trkpt><trkpt lat="42.7906378" lon="11.821555"><ele>272.0</ele><time>2026-04-26T09:09:00.816Z</time></trkpt><trkpt lat="42.7904715" lon="11.8218089"><ele>272.5</ele><time>2026-04-26T09:09:01.816Z</time></trkpt><trkpt lat="42.7903071" lon="11.8220584"><ele>273.0</ele><time>2026-04-26T09:09:02.816Z</time></trkpt><trkpt lat="42.7901343" lon="11.8223027"><ele>273.0</ele><time>2026-04-26T09:09:03.816Z</time></trkpt><trkpt lat="42.7899608" lon="11.8225428"><ele>273.0</ele><time>2026-04-26T09:09:04.816Z</time></trkpt><trkpt lat="42.7897862" lon="11.8227725"><ele>275.0</ele><time>2026-04-26T09:09:05.816Z</time></trkpt><trkpt lat="42.789607" lon="11.8229977"><ele>277.0</ele><time>2026-04-26T09:09:06.817Z</time></trkpt><trkpt lat="42.7894322" lon="11.8232227"><ele>275.3333333333333</ele><time>2026-04-26T09:09:07.816Z</time></trkpt><trkpt lat="42.7892618" lon="11.8234342"><ele>273.6666666666667</ele><time>2026-04-26T09:09:08.817Z</time></trkpt><trkpt lat="42.7891067" lon="11.8236343"><ele>272.0</ele><time>2026-04-26T09:09:09.816Z</time></trkpt><trkpt lat="42.7889605" lon="11.8238255"><ele>272.0</ele><time>2026-04-26T09:09:10.816Z</time></trkpt><trkpt lat="42.7888195" lon="11.8240079"><ele>272.0</ele><time>2026-04-26T09:09:11.816Z</time></trkpt><trkpt lat="42.7886842" lon="11.8241816"><ele>272.0</ele><time>2026-04-26T09:09:12.817Z</time></trkpt><trkpt lat="42.7885543" lon="11.824345"><ele>272.33333333333337</ele><time>2026-04-26T09:09:13.817Z</time></trkpt><trkpt lat="42.7884291" lon="11.8245102"><ele>272.6666666666667</ele><time>2026-04-26T09:09:14.817Z</time></trkpt><trkpt lat="42.7883049" lon="11.8246697"><ele>273.0</ele><time>2026-04-26T09:09:15.816Z</time></trkpt><trkpt lat="42.7881807" lon="11.8248296"><ele>273.0</ele><time>2026-04-26T09:09:16.817Z</time></trkpt><trkpt lat="42.7880568" lon="11.8249862"><ele>273.0</ele><time>2026-04-26T09:09:17.817Z</time></trkpt><trkpt lat="42.7879326" lon="11.8251424"><ele>273.0</ele><time>2026-04-26T09:09:18.817Z</time></trkpt><trkpt lat="42.7878126" lon="11.8252978"><ele>273.3333333333333</ele><time>2026-04-26T09:09:19.817Z</time></trkpt><trkpt lat="42.7876971" lon="11.8254467"><ele>273.66666666666663</ele><time>2026-04-26T09:09:20.817Z</time></trkpt><trkpt lat="42.7875862" lon="11.8255863"><ele>274.0</ele><time>2026-04-26T09:09:21.816Z</time></trkpt><trkpt lat="42.7874852" lon="11.8257195"><ele>274.0</ele><time>2026-04-26T09:09:22.816Z</time></trkpt><trkpt lat="42.7873862" lon="11.8258674"><ele>274.0</ele><time>2026-04-26T09:09:23.817Z</time></trkpt><trkpt lat="42.787289" lon="11.826025"><ele>274.0</ele><time>2026-04-26T09:09:24.817Z</time></trkpt><trkpt lat="42.7871895" lon="11.8261871"><ele>274.66666666666663</ele><time>2026-04-26T09:09:25.817Z</time></trkpt><trkpt lat="42.7870901" lon="11.8263564"><ele>275.3333333333333</ele><time>2026-04-26T09:09:26.817Z</time></trkpt><trkpt lat="42.7869897" lon="11.8265344"><ele>276.0</ele><time>2026-04-26T09:09:27.817Z</time></trkpt><trkpt lat="42.7868889" lon="11.8267199"><ele>273.6666666666667</ele><time>2026-04-26T09:09:28.817Z</time></trkpt><trkpt lat="42.7867884" lon="11.8269147"><ele>271.33333333333337</ele><time>2026-04-26T09:09:29.817Z</time></trkpt><trkpt lat="42.7866871" lon="11.8271105"><ele>269.0</ele><time>2026-04-26T09:09:30.816Z</time></trkpt><trkpt lat="42.7865813" lon="11.8273259"><ele>269.0</ele><time>2026-04-26T09:09:31.817Z</time></trkpt><trkpt lat="42.7864688" lon="11.8275401"><ele>269.0</ele><time>2026-04-26T09:09:32.817Z</time></trkpt><trkpt lat="42.7863483" lon="11.8277575"><ele>269.0</ele><time>2026-04-26T09:09:33.817Z</time></trkpt><trkpt lat="42.7862195" lon="11.827985"><ele>268.6666666666667</ele><time>2026-04-26T09:09:34.817Z</time></trkpt><trkpt lat="42.7860857" lon="11.8282087"><ele>268.3333333333333</ele><time>2026-04-26T09:09:35.816Z</time></trkpt><trkpt lat="42.7859482" lon="11.8284405"><ele>268.0</ele><time>2026-04-26T09:09:36.817Z</time></trkpt><trkpt lat="42.7858087" lon="11.8286792"><ele>267.0</ele><time>2026-04-26T09:09:37.817Z</time></trkpt><trkpt lat="42.7856627" lon="11.8289182"><ele>266.0</ele><time>2026-04-26T09:09:38.817Z</time></trkpt><trkpt lat="42.7855096" lon="11.8291556"><ele>267.5</ele><time>2026-04-26T09:09:39.817Z</time></trkpt><trkpt lat="42.7853535" lon="11.8293964"><ele>269.0</ele><time>2026-04-26T09:09:40.817Z</time></trkpt><trkpt lat="42.7851972" lon="11.829637"><ele>265.5</ele><time>2026-04-26T09:09:41.817Z</time></trkpt><trkpt lat="42.7850376" lon="11.8298865"><ele>262.0</ele><time>2026-04-26T09:09:42.817Z</time></trkpt><trkpt lat="42.7848792" lon="11.8301374"><ele>266.0</ele><time>2026-04-26T09:09:43.817Z</time></trkpt><trkpt lat="42.7847214" lon="11.8303911"><ele>270.0</ele><time>2026-04-26T09:09:44.817Z</time></trkpt><trkpt lat="42.7845605" lon="11.830643"><ele>270.0</ele><time>2026-04-26T09:09:45.817Z</time></trkpt><trkpt lat="42.7843966" lon="11.8308953"><ele>270.0</ele><time>2026-04-26T09:09:46.817Z</time></trkpt><trkpt lat="42.7842334" lon="11.8311482"><ele>269.0</ele><time>2026-04-26T09:09:47.817Z</time></trkpt><trkpt lat="42.7840638" lon="11.8313964"><ele>268.0</ele><time>2026-04-26T09:09:48.817Z</time></trkpt><trkpt lat="42.7838908" lon="11.8316273"><ele>269.5</ele><time>2026-04-26T09:09:49.817Z</time></trkpt><trkpt lat="42.783697" lon="11.8318265"><ele>271.0</ele><time>2026-04-26T09:09:50.817Z</time></trkpt><trkpt lat="42.7834749" lon="11.8319822"><ele>271.0</ele><time>2026-04-26T09:09:51.817Z</time></trkpt><trkpt lat="42.7832439" lon="11.8320977"><ele>271.0</ele><time>2026-04-26T09:09:52.816Z</time></trkpt><trkpt lat="42.7830033" lon="11.8322"><ele>271.0</ele><time>2026-04-26T09:09:53.816Z</time></trkpt><trkpt lat="42.7827679" lon="11.8323031"><ele>271.0</ele><time>2026-04-26T09:09:54.817Z</time></trkpt><trkpt lat="42.7825373" lon="11.8324092"><ele>270.5</ele><time>2026-04-26T09:09:55.817Z</time></trkpt><trkpt lat="42.7823146" lon="11.8325249"><ele>270.0</ele><time>2026-04-26T09:09:56.816Z</time></trkpt><trkpt lat="42.7821012" lon="11.8326558"><ele>270.0</ele><time>2026-04-26T09:09:57.817Z</time></trkpt><trkpt lat="42.7818966" lon="11.8328126"><ele>270.0</ele><time>2026-04-26T09:09:58.817Z</time></trkpt><trkpt lat="42.7817052" lon="11.8330095"><ele>267.5</ele><time>2026-04-26T09:09:59.817Z</time></trkpt><trkpt lat="42.7815479" lon="11.8332583"><ele>265.0</ele><time>2026-04-26T09:10:00.817Z</time></trkpt><trkpt lat="42.7814021" lon="11.8335178"><ele>265.0</ele><time>2026-04-26T09:10:01.817Z</time></trkpt><trkpt lat="42.7812734" lon="11.8338013"><ele>265.0</ele><time>2026-04-26T09:10:02.816Z</time></trkpt><trkpt lat="42.7811468" lon="11.8340915"><ele>264.0</ele><time>2026-04-26T09:10:03.816Z</time></trkpt><trkpt lat="42.7810208" lon="11.8343845"><ele>263.0</ele><time>2026-04-26T09:10:04.816Z</time></trkpt><trkpt lat="42.780892" lon="11.8346737"><ele>263.0</ele><time>2026-04-26T09:10:05.817Z</time></trkpt><trkpt lat="42.7807563" lon="11.8349556"><ele>263.0</ele><time>2026-04-26T09:10:06.817Z</time></trkpt><trkpt lat="42.7806106" lon="11.8352365"><ele>264.5</ele><time>2026-04-26T09:10:07.817Z</time></trkpt><trkpt lat="42.7804585" lon="11.8355128"><ele>266.0</ele><time>2026-04-26T09:10:08.816Z</time></trkpt><trkpt lat="42.7803012" lon="11.8357843"><ele>264.0</ele><time>2026-04-26T09:10:09.817Z</time></trkpt><trkpt lat="42.7801366" lon="11.8360547"><ele>262.0</ele><time>2026-04-26T09:10:10.816Z</time></trkpt><trkpt lat="42.7799773" lon="11.8363285"><ele>262.0</ele><time>2026-04-26T09:10:11.816Z</time></trkpt><trkpt lat="42.7798153" lon="11.8366027"><ele>262.0</ele><time>2026-04-26T09:10:12.817Z</time></trkpt><trkpt lat="42.7796545" lon="11.8368784"><ele>261.0</ele><time>2026-04-26T09:10:13.817Z</time></trkpt><trkpt lat="42.7794914" lon="11.8371547"><ele>260.0</ele><time>2026-04-26T09:10:14.817Z</time></trkpt><trkpt lat="42.7793282" lon="11.8374289"><ele>260.0</ele><time>2026-04-26T09:10:15.817Z</time></trkpt><trkpt lat="42.7791662" lon="11.8377073"><ele>260.0</ele><time>2026-04-26T09:10:16.817Z</time></trkpt><trkpt lat="42.7790046" lon="11.8379841"><ele>260.0</ele><time>2026-04-26T09:10:17.817Z</time></trkpt><trkpt lat="42.7788465" lon="11.8382664"><ele>260.0</ele><time>2026-04-26T09:10:18.817Z</time></trkpt><trkpt lat="42.7786874" lon="11.8385466"><ele>260.0</ele><time>2026-04-26T09:10:19.817Z</time></trkpt><trkpt lat="42.7785261" lon="11.8388207"><ele>260.0</ele><time>2026-04-26T09:10:20.817Z</time></trkpt><trkpt lat="42.7783676" lon="11.8390963"><ele>261.5</ele><time>2026-04-26T09:10:21.816Z</time></trkpt><trkpt lat="42.7782119" lon="11.8393735"><ele>263.0</ele><time>2026-04-26T09:10:22.816Z</time></trkpt><trkpt lat="42.7780573" lon="11.8396486"><ele>263.0</ele><time>2026-04-26T09:10:23.817Z</time></trkpt><trkpt lat="42.7779046" lon="11.8399277"><ele>263.0</ele><time>2026-04-26T09:10:24.817Z</time></trkpt><trkpt lat="42.7777566" lon="11.8402047"><ele>263.0</ele><time>2026-04-26T09:10:25.817Z</time></trkpt><trkpt lat="42.7776113" lon="11.8404872"><ele>263.0</ele><time>2026-04-26T09:10:26.817Z</time></trkpt><trkpt lat="42.7774658" lon="11.8407717"><ele>264.5</ele><time>2026-04-26T09:10:27.817Z</time></trkpt><trkpt lat="42.7773214" lon="11.8410574"><ele>266.0</ele><time>2026-04-26T09:10:28.816Z</time></trkpt><trkpt lat="42.7771755" lon="11.8413383"><ele>266.0</ele><time>2026-04-26T09:10:29.817Z</time></trkpt><trkpt lat="42.7770316" lon="11.8416219"><ele>266.0</ele><time>2026-04-26T09:10:30.817Z</time></trkpt><trkpt lat="42.7768866" lon="11.8419001"><ele>264.5</ele><time>2026-04-26T09:10:31.817Z</time></trkpt><trkpt lat="42.7767393" lon="11.8421811"><ele>263.0</ele><time>2026-04-26T09:10:32.817Z</time></trkpt><trkpt lat="42.7765916" lon="11.8424659"><ele>263.5</ele><time>2026-04-26T09:10:33.816Z</time></trkpt><trkpt lat="42.7764425" lon="11.8427517"><ele>264.0</ele><time>2026-04-26T09:10:34.816Z</time></trkpt><trkpt lat="42.7762938" lon="11.8430297"><ele>264.0</ele><time>2026-04-26T09:10:35.816Z</time></trkpt><trkpt lat="42.7761485" lon="11.8433066"><ele>264.0</ele><time>2026-04-26T09:10:36.817Z</time></trkpt><trkpt lat="42.7760048" lon="11.8435825"><ele>263.5</ele><time>2026-04-26T09:10:37.82Z</time></trkpt><trkpt lat="42.775862" lon="11.8438631"><ele>263.0</ele><time>2026-04-26T09:10:38.82Z</time></trkpt><trkpt lat="42.7757275" lon="11.8441518"><ele>264.0</ele><time>2026-04-26T09:10:39.82Z</time></trkpt><trkpt lat="42.7756049" lon="11.8444536"><ele>265.0</ele><time>2026-04-26T09:10:40.82Z</time></trkpt><trkpt lat="42.7754954" lon="11.8447635"><ele>265.0</ele><time>2026-04-26T09:10:41.82Z</time></trkpt><trkpt lat="42.7753997" lon="11.8450808"><ele>265.0</ele><time>2026-04-26T09:10:42.82Z</time></trkpt><trkpt lat="42.7753187" lon="11.8454109"><ele>265.0</ele><time>2026-04-26T09:10:43.82Z</time></trkpt><trkpt lat="42.7752472" lon="11.8457408"><ele>265.0</ele><time>2026-04-26T09:10:44.82Z</time></trkpt><trkpt lat="42.7751818" lon="11.8460692"><ele>265.0</ele><time>2026-04-26T09:10:45.82Z</time></trkpt><trkpt lat="42.7751172" lon="11.8464022"><ele>265.0</ele><time>2026-04-26T09:10:46.82Z</time></trkpt><trkpt lat="42.7750515" lon="11.8467194"><ele>266.0</ele><time>2026-04-26T09:10:47.819Z</time></trkpt><trkpt lat="42.7749813" lon="11.8470346"><ele>267.0</ele><time>2026-04-26T09:10:48.82Z</time></trkpt><trkpt lat="42.7748904" lon="11.8473421"><ele>269.5</ele><time>2026-04-26T09:10:49.82Z</time></trkpt><trkpt lat="42.7747763" lon="11.8476332"><ele>272.0</ele><time>2026-04-26T09:10:50.82Z</time></trkpt><trkpt lat="42.7746317" lon="11.8479017"><ele>272.0</ele><time>2026-04-26T09:10:51.819Z</time></trkpt><trkpt lat="42.7744728" lon="11.8481577"><ele>272.0</ele><time>2026-04-26T09:10:52.82Z</time></trkpt><trkpt lat="42.7743058" lon="11.848403"><ele>271.0</ele><time>2026-04-26T09:10:53.82Z</time></trkpt><trkpt lat="42.7741335" lon="11.8486438"><ele>270.0</ele><time>2026-04-26T09:10:54.82Z</time></trkpt><trkpt lat="42.7739575" lon="11.8488859"><ele>270.0</ele><time>2026-04-26T09:10:55.82Z</time></trkpt><trkpt lat="42.7737781" lon="11.8491337"><ele>270.0</ele><time>2026-04-26T09:10:56.819Z</time></trkpt><trkpt lat="42.7735992" lon="11.849382"><ele>268.5</ele><time>2026-04-26T09:10:57.82Z</time></trkpt><trkpt lat="42.7734142" lon="11.8496253"><ele>267.0</ele><time>2026-04-26T09:10:58.819Z</time></trkpt><trkpt lat="42.7732312" lon="11.8498722"><ele>267.0</ele><time>2026-04-26T09:10:59.82Z</time></trkpt><trkpt lat="42.7730524" lon="11.8501221"><ele>267.0</ele><time>2026-04-26T09:11:00.82Z</time></trkpt><trkpt lat="42.7728719" lon="11.850373"><ele>267.5</ele><time>2026-04-26T09:11:01.82Z</time></trkpt><trkpt lat="42.7726883" lon="11.8506256"><ele>268.0</ele><time>2026-04-26T09:11:02.819Z</time></trkpt><trkpt lat="42.7725021" lon="11.8508696"><ele>270.5</ele><time>2026-04-26T09:11:03.82Z</time></trkpt><trkpt lat="42.7723224" lon="11.8511142"><ele>273.0</ele><time>2026-04-26T09:11:04.82Z</time></trkpt><trkpt lat="42.7721431" lon="11.8513539"><ele>273.0</ele><time>2026-04-26T09:11:05.82Z</time></trkpt><trkpt lat="42.7719756" lon="11.8515853"><ele>273.0</ele><time>2026-04-26T09:11:06.819Z</time></trkpt><trkpt lat="42.7718274" lon="11.8518068"><ele>270.6666666666667</ele><time>2026-04-26T09:11:07.819Z</time></trkpt><trkpt lat="42.7717004" lon="11.8520423"><ele>268.33333333333337</ele><time>2026-04-26T09:11:08.82Z</time></trkpt><trkpt lat="42.7716034" lon="11.8522923"><ele>266.0</ele><time>2026-04-26T09:11:09.819Z</time></trkpt><trkpt lat="42.7715326" lon="11.8525856"><ele>264.5</ele><time>2026-04-26T09:11:10.82Z</time></trkpt><trkpt lat="42.7714757" lon="11.8528853"><ele>263.0</ele><time>2026-04-26T09:11:11.82Z</time></trkpt><trkpt lat="42.771431" lon="11.8531919"><ele>263.5</ele><time>2026-04-26T09:11:12.819Z</time></trkpt><trkpt lat="42.7713917" lon="11.8535078"><ele>264.0</ele><time>2026-04-26T09:11:13.82Z</time></trkpt><trkpt lat="42.7713518" lon="11.8538165"><ele>264.0</ele><time>2026-04-26T09:11:14.819Z</time></trkpt><trkpt lat="42.7713109" lon="11.8541145"><ele>264.0</ele><time>2026-04-26T09:11:15.819Z</time></trkpt><trkpt lat="42.771272" lon="11.8543935"><ele>264.0</ele><time>2026-04-26T09:11:16.82Z</time></trkpt><trkpt lat="42.771216" lon="11.8546588"><ele>264.3333333333333</ele><time>2026-04-26T09:11:17.82Z</time></trkpt><trkpt lat="42.7711205" lon="11.8548982"><ele>264.66666666666663</ele><time>2026-04-26T09:11:18.82Z</time></trkpt><trkpt lat="42.7709984" lon="11.8551192"><ele>265.0</ele><time>2026-04-26T09:11:19.82Z</time></trkpt><trkpt lat="42.7708339" lon="11.8552858"><ele>263.66666666666663</ele><time>2026-04-26T09:11:20.82Z</time></trkpt><trkpt lat="42.7706528" lon="11.85542"><ele>262.3333333333333</ele><time>2026-04-26T09:11:21.82Z</time></trkpt><trkpt lat="42.7704549" lon="11.8555214"><ele>261.0</ele><time>2026-04-26T09:11:22.82Z</time></trkpt><trkpt lat="42.770241" lon="11.8555656"><ele>260.0</ele><time>2026-04-26T09:11:23.82Z</time></trkpt><trkpt lat="42.7700193" lon="11.8556095"><ele>259.0</ele><time>2026-04-26T09:11:24.82Z</time></trkpt><trkpt lat="42.7697938" lon="11.8556464"><ele>259.0</ele><time>2026-04-26T09:11:25.82Z</time></trkpt><trkpt lat="42.7695608" lon="11.8556862"><ele>259.0</ele><time>2026-04-26T09:11:26.82Z</time></trkpt><trkpt lat="42.7693256" lon="11.8557194"><ele>258.5</ele><time>2026-04-26T09:11:27.819Z</time></trkpt><trkpt lat="42.7690847" lon="11.855759"><ele>258.0</ele><time>2026-04-26T09:11:28.82Z</time></trkpt><trkpt lat="42.7688408" lon="11.8557983"><ele>258.0</ele><time>2026-04-26T09:11:29.82Z</time></trkpt><trkpt lat="42.7685936" lon="11.8558434"><ele>258.0</ele><time>2026-04-26T09:11:30.819Z</time></trkpt><trkpt lat="42.7683481" lon="11.8558859"><ele>256.5</ele><time>2026-04-26T09:11:31.819Z</time></trkpt><trkpt lat="42.7680963" lon="11.8559263"><ele>255.0</ele><time>2026-04-26T09:11:32.82Z</time></trkpt><trkpt lat="42.7678468" lon="11.8559626"><ele>254.0</ele><time>2026-04-26T09:11:33.82Z</time></trkpt><trkpt lat="42.7675935" lon="11.8560055"><ele>253.0</ele><time>2026-04-26T09:11:34.82Z</time></trkpt><trkpt lat="42.7673371" lon="11.856046"><ele>253.0</ele><time>2026-04-26T09:11:35.82Z</time></trkpt><trkpt lat="42.7670794" lon="11.8560859"><ele>253.0</ele><time>2026-04-26T09:11:36.819Z</time></trkpt><trkpt lat="42.7668227" lon="11.8561282"><ele>252.0</ele><time>2026-04-26T09:11:37.82Z</time></trkpt><trkpt lat="42.7665602" lon="11.8561725"><ele>251.0</ele><time>2026-04-26T09:11:38.819Z</time></trkpt><trkpt lat="42.766299" lon="11.8562182"><ele>251.0</ele><time>2026-04-26T09:11:39.819Z</time></trkpt><trkpt lat="42.7660407" lon="11.8562626"><ele>251.0</ele><time>2026-04-26T09:11:40.82Z</time></trkpt><trkpt lat="42.7657853" lon="11.8562887"><ele>249.0</ele><time>2026-04-26T09:11:41.819Z</time></trkpt><trkpt lat="42.7655331" lon="11.8563001"><ele>247.0</ele><time>2026-04-26T09:11:42.82Z</time></trkpt><trkpt lat="42.7652815" lon="11.8562985"><ele>247.0</ele><time>2026-04-26T09:11:43.82Z</time></trkpt><trkpt lat="42.76504" lon="11.8562999"><ele>247.0</ele><time>2026-04-26T09:11:44.82Z</time></trkpt><trkpt lat="42.7648156" lon="11.8563027"><ele>247.0</ele><time>2026-04-26T09:11:45.82Z</time></trkpt><trkpt lat="42.7646091" lon="11.8563018"><ele>247.0</ele><time>2026-04-26T09:11:46.82Z</time></trkpt><trkpt lat="42.7644066" lon="11.8562991"><ele>247.0</ele><time>2026-04-26T09:11:47.82Z</time></trkpt><trkpt lat="42.7641945" lon="11.8563009"><ele>246.66666666666666</ele><time>2026-04-26T09:11:48.82Z</time></trkpt><trkpt lat="42.7639828" lon="11.8562921"><ele>246.33333333333331</ele><time>2026-04-26T09:11:49.82Z</time></trkpt><trkpt lat="42.7637711" lon="11.8562858"><ele>246.0</ele><time>2026-04-26T09:11:50.82Z</time></trkpt><trkpt lat="42.763568" lon="11.8562895"><ele>246.33333333333331</ele><time>2026-04-26T09:11:51.82Z</time></trkpt><trkpt lat="42.7633711" lon="11.8563088"><ele>246.66666666666666</ele><time>2026-04-26T09:11:52.82Z</time></trkpt><trkpt lat="42.7631718" lon="11.8563583"><ele>247.0</ele><time>2026-04-26T09:11:53.82Z</time></trkpt><trkpt lat="42.7629781" lon="11.8564371"><ele>247.0</ele><time>2026-04-26T09:11:54.82Z</time></trkpt><trkpt lat="42.7627998" lon="11.8565431"><ele>247.0</ele><time>2026-04-26T09:11:55.82Z</time></trkpt><trkpt lat="42.762638" lon="11.8566732"><ele>247.0</ele><time>2026-04-26T09:11:56.819Z</time></trkpt><trkpt lat="42.762487" lon="11.8568338"><ele>247.33333333333331</ele><time>2026-04-26T09:11:57.82Z</time></trkpt><trkpt lat="42.7623447" lon="11.8570073"><ele>247.66666666666669</ele><time>2026-04-26T09:11:58.819Z</time></trkpt><trkpt lat="42.7622201" lon="11.8572134"><ele>248.0</ele><time>2026-04-26T09:11:59.82Z</time></trkpt><trkpt lat="42.7620981" lon="11.8574426"><ele>247.66666666666669</ele><time>2026-04-26T09:12:00.82Z</time></trkpt><trkpt lat="42.7619926" lon="11.8576863"><ele>247.33333333333331</ele><time>2026-04-26T09:12:01.82Z</time></trkpt><trkpt lat="42.7618933" lon="11.8579316"><ele>247.0</ele><time>2026-04-26T09:12:02.82Z</time></trkpt><trkpt lat="42.7617972" lon="11.8581926"><ele>249.0</ele><time>2026-04-26T09:12:03.82Z</time></trkpt><trkpt lat="42.7617079" lon="11.8584623"><ele>251.0</ele><time>2026-04-26T09:12:04.82Z</time></trkpt><trkpt lat="42.7616303" lon="11.8587475"><ele>253.0</ele><time>2026-04-26T09:12:05.82Z</time></trkpt><trkpt lat="42.7615711" lon="11.8590438"><ele>251.5</ele><time>2026-04-26T09:12:06.819Z</time></trkpt><trkpt lat="42.7615169" lon="11.8593458"><ele>250.0</ele><time>2026-04-26T09:12:07.82Z</time></trkpt><trkpt lat="42.7614602" lon="11.8596539"><ele>250.0</ele><time>2026-04-26T09:12:08.82Z</time></trkpt><trkpt lat="42.7614014" lon="11.8599574"><ele>250.0</ele><time>2026-04-26T09:12:09.82Z</time></trkpt><trkpt lat="42.7613339" lon="11.8602711"><ele>249.5</ele><time>2026-04-26T09:12:10.82Z</time></trkpt><trkpt lat="42.761274" lon="11.8605906"><ele>249.0</ele><time>2026-04-26T09:12:11.819Z</time></trkpt><trkpt lat="42.7612129" lon="11.8609086"><ele>249.0</ele><time>2026-04-26T09:12:12.819Z</time></trkpt><trkpt lat="42.7611528" lon="11.8612292"><ele>249.0</ele><time>2026-04-26T09:12:13.82Z</time></trkpt><trkpt lat="42.7610914" lon="11.8615478"><ele>250.0</ele><time>2026-04-26T09:12:14.82Z</time></trkpt><trkpt lat="42.7610292" lon="11.8618679"><ele>251.0</ele><time>2026-04-26T09:12:15.819Z</time></trkpt><trkpt lat="42.7609717" lon="11.8621799"><ele>251.0</ele><time>2026-04-26T09:12:16.82Z</time></trkpt><trkpt lat="42.7609082" lon="11.8624914"><ele>251.0</ele><time>2026-04-26T09:12:17.82Z</time></trkpt><trkpt lat="42.7608469" lon="11.8627874"><ele>251.0</ele><time>2026-04-26T09:12:18.82Z</time></trkpt><trkpt lat="42.7607683" lon="11.8630447"><ele>251.0</ele><time>2026-04-26T09:12:19.82Z</time></trkpt><trkpt lat="42.7606718" lon="11.8632675"><ele>251.0</ele><time>2026-04-26T09:12:20.82Z</time></trkpt><trkpt lat="42.7605514" lon="11.8634429"><ele>251.33333333333334</ele><time>2026-04-26T09:12:21.82Z</time></trkpt><trkpt lat="42.7604053" lon="11.8635582"><ele>251.66666666666669</ele><time>2026-04-26T09:12:22.819Z</time></trkpt><trkpt lat="42.760237" lon="11.863661"><ele>252.0</ele><time>2026-04-26T09:12:23.82Z</time></trkpt><trkpt lat="42.7600686" lon="11.8637421"><ele>252.0</ele><time>2026-04-26T09:12:24.82Z</time></trkpt><trkpt lat="42.759898" lon="11.863822"><ele>252.0</ele><time>2026-04-26T09:12:25.82Z</time></trkpt><trkpt lat="42.7597336" lon="11.863897"><ele>252.0</ele><time>2026-04-26T09:12:26.82Z</time></trkpt><trkpt lat="42.7595788" lon="11.8639723"><ele>252.0</ele><time>2026-04-26T09:12:27.82Z</time></trkpt><trkpt lat="42.7594248" lon="11.8640469"><ele>252.0</ele><time>2026-04-26T09:12:28.82Z</time></trkpt><trkpt lat="42.7592744" lon="11.8641205"><ele>252.0</ele><time>2026-04-26T09:12:29.82Z</time></trkpt><trkpt lat="42.759127" lon="11.8641894"><ele>251.33333333333331</ele><time>2026-04-26T09:12:30.819Z</time></trkpt><trkpt lat="42.7589805" lon="11.864246"><ele>250.66666666666666</ele><time>2026-04-26T09:12:31.82Z</time></trkpt><trkpt lat="42.75883" lon="11.8642967"><ele>250.0</ele><time>2026-04-26T09:12:32.82Z</time></trkpt><trkpt lat="42.7586815" lon="11.864343"><ele>251.75</ele><time>2026-04-26T09:12:33.82Z</time></trkpt><trkpt lat="42.7585341" lon="11.8643949"><ele>253.5</ele><time>2026-04-26T09:12:34.819Z</time></trkpt><trkpt lat="42.7583921" lon="11.8644565"><ele>255.25</ele><time>2026-04-26T09:12:35.819Z</time></trkpt><trkpt lat="42.7582579" lon="11.8645378"><ele>257.0</ele><time>2026-04-26T09:12:36.82Z</time></trkpt><trkpt lat="42.7581364" lon="11.864646"><ele>257.0</ele><time>2026-04-26T09:12:37.82Z</time></trkpt><trkpt lat="42.7580429" lon="11.8647817"><ele>257.0</ele><time>2026-04-26T09:12:38.82Z</time></trkpt><trkpt lat="42.7579663" lon="11.8649451"><ele>257.0</ele><time>2026-04-26T09:12:39.819Z</time></trkpt><trkpt lat="42.757891" lon="11.8651127"><ele>257.0</ele><time>2026-04-26T09:12:40.82Z</time></trkpt><trkpt lat="42.757805" lon="11.8652763"><ele>258.5</ele><time>2026-04-26T09:12:41.819Z</time></trkpt><trkpt lat="42.7577062" lon="11.865413"><ele>260.0</ele><time>2026-04-26T09:12:42.82Z</time></trkpt><trkpt lat="42.7575938" lon="11.8655224"><ele>261.5</ele><time>2026-04-26T09:12:43.819Z</time></trkpt><trkpt lat="42.7574662" lon="11.8655978"><ele>263.0</ele><time>2026-04-26T09:12:44.82Z</time></trkpt><trkpt lat="42.7573115" lon="11.8656412"><ele>263.0</ele><time>2026-04-26T09:12:45.819Z</time></trkpt><trkpt lat="42.7571541" lon="11.8656614"><ele>263.0</ele><time>2026-04-26T09:12:46.819Z</time></trkpt><trkpt lat="42.7569867" lon="11.8656596"><ele>263.0</ele><time>2026-04-26T09:12:47.819Z</time></trkpt><trkpt lat="42.7568211" lon="11.8656447"><ele>266.33333333333337</ele><time>2026-04-26T09:12:48.82Z</time></trkpt><trkpt lat="42.7566402" lon="11.8656356"><ele>269.6666666666667</ele><time>2026-04-26T09:12:49.819Z</time></trkpt><trkpt lat="42.7564584" lon="11.8656215"><ele>273.0</ele><time>2026-04-26T09:12:50.82Z</time></trkpt><trkpt lat="42.7562763" lon="11.8656039"><ele>273.0</ele><time>2026-04-26T09:12:51.819Z</time></trkpt><trkpt lat="42.7560942" lon="11.8655895"><ele>273.0</ele><time>2026-04-26T09:12:52.82Z</time></trkpt><trkpt lat="42.7559105" lon="11.8655696"><ele>273.0</ele><time>2026-04-26T09:12:53.82Z</time></trkpt><trkpt lat="42.7557258" lon="11.8655548"><ele>274.6666666666667</ele><time>2026-04-26T09:12:54.82Z</time></trkpt><trkpt lat="42.7555502" lon="11.8655441"><ele>276.33333333333337</ele><time>2026-04-26T09:12:55.82Z</time></trkpt><trkpt lat="42.7553778" lon="11.8655478"><ele>278.0</ele><time>2026-04-26T09:12:56.82Z</time></trkpt><trkpt lat="42.7552146" lon="11.8655565"><ele>281.33333333333337</ele><time>2026-04-26T09:12:57.82Z</time></trkpt><trkpt lat="42.7550448" lon="11.8655705"><ele>284.6666666666667</ele><time>2026-04-26T09:12:58.82Z</time></trkpt><trkpt lat="42.7548743" lon="11.8655714"><ele>288.0</ele><time>2026-04-26T09:12:59.819Z</time></trkpt><trkpt lat="42.7547038" lon="11.8655626"><ele>288.0</ele><time>2026-04-26T09:13:00.82Z</time></trkpt><trkpt lat="42.7545283" lon="11.8655553"><ele>288.0</ele><time>2026-04-26T09:13:01.82Z</time></trkpt><trkpt lat="42.7543524" lon="11.8655446"><ele>288.0</ele><time>2026-04-26T09:13:02.82Z</time></trkpt><trkpt lat="42.754177" lon="11.8655304"><ele>289.0</ele><time>2026-04-26T09:13:03.819Z</time></trkpt><trkpt lat="42.7540047" lon="11.8655179"><ele>290.0</ele><time>2026-04-26T09:13:04.82Z</time></trkpt><trkpt lat="42.7538309" lon="11.8654959"><ele>291.0</ele><time>2026-04-26T09:13:05.82Z</time></trkpt><trkpt lat="42.7536621" lon="11.8654704"><ele>290.6666666666667</ele><time>2026-04-26T09:13:06.82Z</time></trkpt><trkpt lat="42.7534976" lon="11.8654511"><ele>290.33333333333337</ele><time>2026-04-26T09:13:07.82Z</time></trkpt><trkpt lat="42.7533345" lon="11.8654267"><ele>290.0</ele><time>2026-04-26T09:13:08.82Z</time></trkpt><trkpt lat="42.7531752" lon="11.8653927"><ele>290.0</ele><time>2026-04-26T09:13:09.819Z</time></trkpt><trkpt lat="42.7530207" lon="11.8653324"><ele>290.0</ele><time>2026-04-26T09:13:10.82Z</time></trkpt><trkpt lat="42.7528775" lon="11.8652368"><ele>290.0</ele><time>2026-04-26T09:13:11.82Z</time></trkpt><trkpt lat="42.7527416" lon="11.8651093"><ele>293.33333333333337</ele><time>2026-04-26T09:13:12.82Z</time></trkpt><trkpt lat="42.7526122" lon="11.8649827"><ele>296.6666666666667</ele><time>2026-04-26T09:13:13.82Z</time></trkpt><trkpt lat="42.7524842" lon="11.8648637"><ele>300.0</ele><time>2026-04-26T09:13:14.819Z</time></trkpt><trkpt lat="42.7523609" lon="11.864756"><ele>300.0</ele><time>2026-04-26T09:13:15.82Z</time></trkpt><trkpt lat="42.7522244" lon="11.8646618"><ele>300.0</ele><time>2026-04-26T09:13:16.82Z</time></trkpt><trkpt lat="42.7520766" lon="11.8646022"><ele>300.0</ele><time>2026-04-26T09:13:17.82Z</time></trkpt><trkpt lat="42.7519201" lon="11.8645793"><ele>299.6666666666667</ele><time>2026-04-26T09:13:18.82Z</time></trkpt><trkpt lat="42.7517533" lon="11.8645995"><ele>299.33333333333337</ele><time>2026-04-26T09:13:19.82Z</time></trkpt><trkpt lat="42.7515946" lon="11.8646298"><ele>299.0</ele><time>2026-04-26T09:13:20.82Z</time></trkpt><trkpt lat="42.751427" lon="11.864669"><ele>299.0</ele><time>2026-04-26T09:13:21.82Z</time></trkpt><trkpt lat="42.7512499" lon="11.8647164"><ele>299.0</ele><time>2026-04-26T09:13:22.82Z</time></trkpt><trkpt lat="42.7510711" lon="11.8647703"><ele>299.0</ele><time>2026-04-26T09:13:23.82Z</time></trkpt><trkpt lat="42.7508851" lon="11.8648335"><ele>301.6666666666667</ele><time>2026-04-26T09:13:24.819Z</time></trkpt><trkpt lat="42.750686" lon="11.8648861"><ele>304.3333333333333</ele><time>2026-04-26T09:13:25.82Z</time></trkpt><trkpt lat="42.7504856" lon="11.8649188"><ele>307.0</ele><time>2026-04-26T09:13:26.82Z</time></trkpt><trkpt lat="42.7503028" lon="11.8649475"><ele>309.25</ele><time>2026-04-26T09:13:27.82Z</time></trkpt><trkpt lat="42.7501474" lon="11.8649786"><ele>311.5</ele><time>2026-04-26T09:13:28.82Z</time></trkpt><trkpt lat="42.7500227" lon="11.8650019"><ele>313.75</ele><time>2026-04-26T09:13:29.819Z</time></trkpt><trkpt lat="42.7499009" lon="11.8649955"><ele>316.0</ele><time>2026-04-26T09:13:30.819Z</time></trkpt><trkpt lat="42.7498004" lon="11.8649556"><ele>316.0</ele><time>2026-04-26T09:13:31.82Z</time></trkpt><trkpt lat="42.7497308" lon="11.8648612"><ele>316.0</ele><time>2026-04-26T09:13:32.82Z</time></trkpt><trkpt lat="42.74972" lon="11.8647474"><ele>316.0</ele><time>2026-04-26T09:13:33.82Z</time></trkpt><trkpt lat="42.7497535" lon="11.8646269"><ele>316.0</ele><time>2026-04-26T09:13:34.82Z</time></trkpt><trkpt lat="42.7498167" lon="11.8645166"><ele>316.0</ele><time>2026-04-26T09:13:35.82Z</time></trkpt><trkpt lat="42.7498893" lon="11.8644265"><ele>316.0</ele><time>2026-04-26T09:13:36.82Z</time></trkpt><trkpt lat="42.7499673" lon="11.8643523"><ele>316.0</ele><time>2026-04-26T09:13:37.819Z</time></trkpt><trkpt lat="42.7500524" lon="11.8642846"><ele>316.0</ele><time>2026-04-26T09:13:38.82Z</time></trkpt><trkpt lat="42.7501278" lon="11.8642077"><ele>316.0</ele><time>2026-04-26T09:13:39.82Z</time></trkpt><trkpt lat="42.7502025" lon="11.8641311"><ele>316.0</ele><time>2026-04-26T09:13:40.82Z</time></trkpt><trkpt lat="42.7502713" lon="11.8640714"><ele>316.8</ele><time>2026-04-26T09:13:41.82Z</time></trkpt><trkpt lat="42.7503379" lon="11.8640221"><ele>317.6</ele><time>2026-04-26T09:13:42.82Z</time></trkpt><trkpt lat="42.7503977" lon="11.8639697"><ele>318.4</ele><time>2026-04-26T09:13:43.82Z</time></trkpt><trkpt lat="42.7504919" lon="11.8638684"><ele>319.2</ele><time>2026-04-26T09:13:45.82Z</time></trkpt><trkpt lat="42.7505696" lon="11.8637924"><ele>320.0</ele><time>2026-04-26T09:13:47.819Z</time></trkpt><trkpt lat="42.7506746" lon="11.8636811"><ele>320.0</ele><time>2026-04-26T09:13:49.82Z</time></trkpt><trkpt lat="42.7507442" lon="11.8636051"><ele>320.0</ele><time>2026-04-26T09:13:50.819Z</time></trkpt><trkpt lat="42.7508193" lon="11.8635214"><ele>320.0</ele><time>2026-04-26T09:13:51.82Z</time></trkpt><trkpt lat="42.7509104" lon="11.8634391"><ele>320.0</ele><time>2026-04-26T09:13:52.82Z</time></trkpt><trkpt lat="42.7510199" lon="11.8633676"><ele>320.0</ele><time>2026-04-26T09:13:53.82Z</time></trkpt><trkpt lat="42.751136" lon="11.8633181"><ele>322.25</ele><time>2026-04-26T09:13:54.82Z</time></trkpt><trkpt lat="42.7512612" lon="11.8632887"><ele>324.5</ele><time>2026-04-26T09:13:55.819Z</time></trkpt><trkpt lat="42.751392" lon="11.8632791"><ele>326.75</ele><time>2026-04-26T09:13:56.819Z</time></trkpt><trkpt lat="42.7515244" lon="11.8632842"><ele>329.0</ele><time>2026-04-26T09:13:57.82Z</time></trkpt><trkpt lat="42.7516511" lon="11.8632946"><ele>329.0</ele><time>2026-04-26T09:13:58.82Z</time></trkpt><trkpt lat="42.7517713" lon="11.8633052"><ele>329.0</ele><time>2026-04-26T09:13:59.82Z</time></trkpt><trkpt lat="42.7518818" lon="11.8633148"><ele>329.0</ele><time>2026-04-26T09:14:00.82Z</time></trkpt><trkpt lat="42.7519826" lon="11.8633038"><ele>329.0</ele><time>2026-04-26T09:14:01.819Z</time></trkpt><trkpt lat="42.7520758" lon="11.8632576"><ele>329.0</ele><time>2026-04-26T09:14:02.82Z</time></trkpt><trkpt lat="42.7521405" lon="11.8631757"><ele>329.2</ele><time>2026-04-26T09:14:03.819Z</time></trkpt><trkpt lat="42.7521781" lon="11.8630559"><ele>329.4</ele><time>2026-04-26T09:14:04.82Z</time></trkpt><trkpt lat="42.7521862" lon="11.8629247"><ele>329.6</ele><time>2026-04-26T09:14:05.82Z</time></trkpt><trkpt lat="42.7521539" lon="11.8628027"><ele>329.8</ele><time>2026-04-26T09:14:06.819Z</time></trkpt><trkpt lat="42.7520827" lon="11.8627032"><ele>330.0</ele><time>2026-04-26T09:14:07.82Z</time></trkpt><trkpt lat="42.7519903" lon="11.8626465"><ele>330.0</ele><time>2026-04-26T09:14:08.82Z</time></trkpt><trkpt lat="42.7518856" lon="11.8626222"><ele>330.0</ele><time>2026-04-26T09:14:09.819Z</time></trkpt><trkpt lat="42.7517667" lon="11.8625962"><ele>330.0</ele><time>2026-04-26T09:14:10.82Z</time></trkpt><trkpt lat="42.7516468" lon="11.8625662"><ele>330.0</ele><time>2026-04-26T09:14:11.82Z</time></trkpt><trkpt lat="42.7515169" lon="11.8625372"><ele>333.25</ele><time>2026-04-26T09:14:12.82Z</time></trkpt><trkpt lat="42.7513881" lon="11.8625171"><ele>336.5</ele><time>2026-04-26T09:14:13.819Z</time></trkpt><trkpt lat="42.7512528" lon="11.8625045"><ele>339.75</ele><time>2026-04-26T09:14:14.82Z</time></trkpt><trkpt lat="42.7511216" lon="11.8624999"><ele>343.0</ele><time>2026-04-26T09:14:15.82Z</time></trkpt><trkpt lat="42.7509909" lon="11.8625028"><ele>345.5</ele><time>2026-04-26T09:14:16.819Z</time></trkpt><trkpt lat="42.7508615" lon="11.8625035"><ele>348.0</ele><time>2026-04-26T09:14:17.82Z</time></trkpt><trkpt lat="42.7507347" lon="11.8624958"><ele>350.5</ele><time>2026-04-26T09:14:18.82Z</time></trkpt><trkpt lat="42.7506077" lon="11.8624932"><ele>353.0</ele><time>2026-04-26T09:14:19.819Z</time></trkpt><trkpt lat="42.7504806" lon="11.8624944"><ele>353.0</ele><time>2026-04-26T09:14:20.82Z</time></trkpt><trkpt lat="42.7503544" lon="11.8624938"><ele>353.0</ele><time>2026-04-26T09:14:21.82Z</time></trkpt><trkpt lat="42.7502308" lon="11.8625036"><ele>353.0</ele><time>2026-04-26T09:14:22.82Z</time></trkpt><trkpt lat="42.7501024" lon="11.8625179"><ele>353.0</ele><time>2026-04-26T09:14:23.82Z</time></trkpt><trkpt lat="42.7499763" lon="11.8625357"><ele>351.5</ele><time>2026-04-26T09:14:24.82Z</time></trkpt><trkpt lat="42.7498459" lon="11.862566"><ele>350.0</ele><time>2026-04-26T09:14:25.819Z</time></trkpt><trkpt lat="42.7497124" lon="11.8625952"><ele>348.5</ele><time>2026-04-26T09:14:26.82Z</time></trkpt><trkpt lat="42.7495808" lon="11.8626253"><ele>347.0</ele><time>2026-04-26T09:14:27.82Z</time></trkpt><trkpt lat="42.7494504" lon="11.8626524"><ele>349.25</ele><time>2026-04-26T09:14:28.82Z</time></trkpt><trkpt lat="42.7493171" lon="11.8626685"><ele>351.5</ele><time>2026-04-26T09:14:29.819Z</time></trkpt><trkpt lat="42.7491904" lon="11.8626812"><ele>353.75</ele><time>2026-04-26T09:14:30.82Z</time></trkpt><trkpt lat="42.7490643" lon="11.8627028"><ele>356.0</ele><time>2026-04-26T09:14:31.82Z</time></trkpt><trkpt lat="42.7489364" lon="11.8627304"><ele>356.0</ele><time>2026-04-26T09:14:32.82Z</time></trkpt><trkpt lat="42.7488083" lon="11.8627634"><ele>356.0</ele><time>2026-04-26T09:14:33.82Z</time></trkpt><trkpt lat="42.7486775" lon="11.8627951"><ele>356.0</ele><time>2026-04-26T09:14:34.82Z</time></trkpt><trkpt lat="42.748543" lon="11.8628258"><ele>356.0</ele><time>2026-04-26T09:14:35.82Z</time></trkpt><trkpt lat="42.7484132" lon="11.8628635"><ele>355.75</ele><time>2026-04-26T09:14:36.82Z</time></trkpt><trkpt lat="42.748283" lon="11.8628915"><ele>355.5</ele><time>2026-04-26T09:14:37.82Z</time></trkpt><trkpt lat="42.7481527" lon="11.862918"><ele>355.25</ele><time>2026-04-26T09:14:38.819Z</time></trkpt><trkpt lat="42.748026" lon="11.8629406"><ele>355.0</ele><time>2026-04-26T09:14:39.82Z</time></trkpt><trkpt lat="42.7479067" lon="11.8629735"><ele>355.0</ele><time>2026-04-26T09:14:40.82Z</time></trkpt><trkpt lat="42.7477905" lon="11.8630034"><ele>355.0</ele><time>2026-04-26T09:14:41.82Z</time></trkpt><trkpt lat="42.7476795" lon="11.8630253"><ele>355.0</ele><time>2026-04-26T09:14:42.82Z</time></trkpt><trkpt lat="42.747569" lon="11.8630415"><ele>355.0</ele><time>2026-04-26T09:14:43.82Z</time></trkpt><trkpt lat="42.7474584" lon="11.8630579"><ele>356.6</ele><time>2026-04-26T09:14:44.82Z</time></trkpt><trkpt lat="42.7473473" lon="11.8630749"><ele>358.2</ele><time>2026-04-26T09:14:45.82Z</time></trkpt><trkpt lat="42.7472427" lon="11.8630941"><ele>359.79999999999995</ele><time>2026-04-26T09:14:46.82Z</time></trkpt><trkpt lat="42.7471364" lon="11.8631104"><ele>361.4</ele><time>2026-04-26T09:14:47.82Z</time></trkpt><trkpt lat="42.7470354" lon="11.8631342"><ele>363.0</ele><time>2026-04-26T09:14:48.82Z</time></trkpt><trkpt lat="42.7469318" lon="11.8631532"><ele>365.79999999999995</ele><time>2026-04-26T09:14:49.82Z</time></trkpt><trkpt lat="42.7468302" lon="11.8631727"><ele>368.6</ele><time>2026-04-26T09:14:50.82Z</time></trkpt><trkpt lat="42.7467299" lon="11.8631917"><ele>371.4</ele><time>2026-04-26T09:14:51.82Z</time></trkpt><trkpt lat="42.7466278" lon="11.8632006"><ele>374.20000000000005</ele><time>2026-04-26T09:14:52.82Z</time></trkpt><trkpt lat="42.7465234" lon="11.8631936"><ele>377.0</ele><time>2026-04-26T09:14:53.82Z</time></trkpt><trkpt lat="42.7464185" lon="11.8631878"><ele>377.0</ele><time>2026-04-26T09:14:54.82Z</time></trkpt><trkpt lat="42.7463152" lon="11.8631723"><ele>377.0</ele><time>2026-04-26T09:14:55.819Z</time></trkpt><trkpt lat="42.7462111" lon="11.8631508"><ele>377.0</ele><time>2026-04-26T09:14:56.82Z</time></trkpt><trkpt lat="42.7461116" lon="11.8631366"><ele>377.0</ele><time>2026-04-26T09:14:57.82Z</time></trkpt><trkpt lat="42.7460039" lon="11.8631223"><ele>377.0</ele><time>2026-04-26T09:14:58.82Z</time></trkpt><trkpt lat="42.7458835" lon="11.8631119"><ele>377.6</ele><time>2026-04-26T09:14:59.82Z</time></trkpt><trkpt lat="42.7457725" lon="11.8631043"><ele>378.20000000000005</ele><time>2026-04-26T09:15:00.82Z</time></trkpt><trkpt lat="42.7456672" lon="11.8630944"><ele>378.8</ele><time>2026-04-26T09:15:01.82Z</time></trkpt><trkpt lat="42.745558" lon="11.8630906"><ele>379.4</ele><time>2026-04-26T09:15:02.82Z</time></trkpt><trkpt lat="42.7454464" lon="11.8630872"><ele>380.0</ele><time>2026-04-26T09:15:03.82Z</time></trkpt><trkpt lat="42.7453338" lon="11.8630785"><ele>380.0</ele><time>2026-04-26T09:15:04.82Z</time></trkpt><trkpt lat="42.7452212" lon="11.8630692"><ele>380.0</ele><time>2026-04-26T09:15:05.82Z</time></trkpt><trkpt lat="42.7451073" lon="11.8630653"><ele>380.0</ele><time>2026-04-26T09:15:06.82Z</time></trkpt><trkpt lat="42.7449947" lon="11.8630634"><ele>380.0</ele><time>2026-04-26T09:15:07.819Z</time></trkpt><trkpt lat="42.7448812" lon="11.8630625"><ele>381.6</ele><time>2026-04-26T09:15:08.819Z</time></trkpt><trkpt lat="42.744771" lon="11.8630626"><ele>383.2</ele><time>2026-04-26T09:15:09.82Z</time></trkpt><trkpt lat="42.7446588" lon="11.8630601"><ele>384.79999999999995</ele><time>2026-04-26T09:15:10.82Z</time></trkpt><trkpt lat="42.7445475" lon="11.8630583"><ele>386.4</ele><time>2026-04-26T09:15:11.82Z</time></trkpt><trkpt lat="42.7444377" lon="11.8630576"><ele>388.0</ele><time>2026-04-26T09:15:12.82Z</time></trkpt><trkpt lat="42.7443302" lon="11.8630534"><ele>389.2</ele><time>2026-04-26T09:15:13.82Z</time></trkpt><trkpt lat="42.7442268" lon="11.8630465"><ele>390.4</ele><time>2026-04-26T09:15:14.82Z</time></trkpt><trkpt lat="42.7441237" lon="11.8630363"><ele>391.59999999999997</ele><time>2026-04-26T09:15:15.82Z</time></trkpt><trkpt lat="42.7440243" lon="11.8630278"><ele>392.79999999999995</ele><time>2026-04-26T09:15:16.82Z</time></trkpt><trkpt lat="42.7439286" lon="11.8630322"><ele>394.0</ele><time>2026-04-26T09:15:17.82Z</time></trkpt><trkpt lat="42.7438338" lon="11.8630353"><ele>394.00000000000006</ele><time>2026-04-26T09:15:18.82Z</time></trkpt><trkpt lat="42.7437508" lon="11.8630597"><ele>394.0</ele><time>2026-04-26T09:15:19.819Z</time></trkpt><trkpt lat="42.7436723" lon="11.8630989"><ele>394.0</ele><time>2026-04-26T09:15:20.819Z</time></trkpt><trkpt lat="42.7435885" lon="11.8631362"><ele>394.0</ele><time>2026-04-26T09:15:21.82Z</time></trkpt><trkpt lat="42.743505" lon="11.8631909"><ele>394.00000000000006</ele><time>2026-04-26T09:15:22.82Z</time></trkpt><trkpt lat="42.7434223" lon="11.8632433"><ele>394.0</ele><time>2026-04-26T09:15:23.82Z</time></trkpt><trkpt lat="42.7433405" lon="11.8632894"><ele>394.0</ele><time>2026-04-26T09:15:24.819Z</time></trkpt><trkpt lat="42.7432543" lon="11.8633393"><ele>394.0</ele><time>2026-04-26T09:15:25.819Z</time></trkpt><trkpt lat="42.7431681" lon="11.8634028"><ele>394.0</ele><time>2026-04-26T09:15:26.819Z</time></trkpt><trkpt lat="42.7430764" lon="11.8634635"><ele>394.0</ele><time>2026-04-26T09:15:27.819Z</time></trkpt><trkpt lat="42.7429844" lon="11.8635212"><ele>394.0</ele><time>2026-04-26T09:15:28.82Z</time></trkpt><trkpt lat="42.7428958" lon="11.8635702"><ele>394.0</ele><time>2026-04-26T09:15:29.82Z</time></trkpt><trkpt lat="42.7428054" lon="11.8636261"><ele>394.0</ele><time>2026-04-26T09:15:30.82Z</time></trkpt><trkpt lat="42.7427101" lon="11.8636786"><ele>394.0</ele><time>2026-04-26T09:15:31.819Z</time></trkpt><trkpt lat="42.7426182" lon="11.8637266"><ele>394.0</ele><time>2026-04-26T09:15:32.82Z</time></trkpt><trkpt lat="42.742528" lon="11.8637794"><ele>394.0</ele><time>2026-04-26T09:15:33.82Z</time></trkpt><trkpt lat="42.7424391" lon="11.8638514"><ele>393.2</ele><time>2026-04-26T09:15:34.82Z</time></trkpt><trkpt lat="42.7423663" lon="11.8639404"><ele>392.4</ele><time>2026-04-26T09:15:35.82Z</time></trkpt><trkpt lat="42.7423387" lon="11.8640789"><ele>391.6</ele><time>2026-04-26T09:15:36.82Z</time></trkpt><trkpt lat="42.7423488" lon="11.8642223"><ele>390.8</ele><time>2026-04-26T09:15:37.819Z</time></trkpt><trkpt lat="42.7423392" lon="11.8643573"><ele>390.0</ele><time>2026-04-26T09:15:38.82Z</time></trkpt><trkpt lat="42.7423242" lon="11.8644701"><ele>390.0</ele><time>2026-04-26T09:15:39.82Z</time></trkpt><trkpt lat="42.742273" lon="11.8645766"><ele>390.0</ele><time>2026-04-26T09:15:40.82Z</time></trkpt><trkpt lat="42.7422013" lon="11.8646161"><ele>390.0</ele><time>2026-04-26T09:15:41.819Z</time></trkpt><trkpt lat="42.7421159" lon="11.8646226"><ele>390.0</ele><time>2026-04-26T09:15:42.82Z</time></trkpt><trkpt lat="42.7420358" lon="11.8645969"><ele>390.0</ele><time>2026-04-26T09:15:43.82Z</time></trkpt><trkpt lat="42.7419623" lon="11.864561"><ele>390.0</ele><time>2026-04-26T09:15:44.82Z</time></trkpt><trkpt lat="42.7418938" lon="11.8645202"><ele>389.8333333333333</ele><time>2026-04-26T09:15:45.82Z</time></trkpt><trkpt lat="42.7418189" lon="11.864479"><ele>389.66666666666663</ele><time>2026-04-26T09:15:46.82Z</time></trkpt><trkpt lat="42.7417435" lon="11.8644492"><ele>389.5</ele><time>2026-04-26T09:15:47.82Z</time></trkpt><trkpt lat="42.7416645" lon="11.8644378"><ele>389.3333333333333</ele><time>2026-04-26T09:15:48.82Z</time></trkpt><trkpt lat="42.7415882" lon="11.8644469"><ele>389.16666666666663</ele><time>2026-04-26T09:15:49.82Z</time></trkpt><trkpt lat="42.7415134" lon="11.8644887"><ele>389.0</ele><time>2026-04-26T09:15:50.819Z</time></trkpt><trkpt lat="42.7414487" lon="11.8645435"><ele>388.99999999999994</ele><time>2026-04-26T09:15:51.82Z</time></trkpt><trkpt lat="42.7413954" lon="11.8646059"><ele>389.0</ele><time>2026-04-26T09:15:52.82Z</time></trkpt><trkpt lat="42.7413217" lon="11.8647094"><ele>389.0</ele><time>2026-04-26T09:15:54.819Z</time></trkpt><trkpt lat="42.7412656" lon="11.8647711"><ele>389.0</ele><time>2026-04-26T09:15:56.82Z</time></trkpt><trkpt lat="42.7412523" lon="11.8648556"><ele>388.99999999999994</ele><time>2026-04-26T09:16:00.82Z</time></trkpt><trkpt lat="42.7412784" lon="11.8649662"><ele>389.0</ele><time>2026-04-26T09:16:09.82Z</time></trkpt><trkpt lat="42.7413281" lon="11.8650842"><ele>388.2</ele><time>2026-04-26T09:16:11.82Z</time></trkpt><trkpt lat="42.7413558" lon="11.865272"><ele>387.4</ele><time>2026-04-26T09:16:13.82Z</time></trkpt><trkpt lat="42.7413668" lon="11.8653793"><ele>386.6</ele><time>2026-04-26T09:16:14.82Z</time></trkpt><trkpt lat="42.7413879" lon="11.8654975"><ele>385.8</ele><time>2026-04-26T09:16:15.819Z</time></trkpt><trkpt lat="42.7414136" lon="11.8656196"><ele>385.0</ele><time>2026-04-26T09:16:16.819Z</time></trkpt><trkpt lat="42.7414397" lon="11.8657437"><ele>385.0</ele><time>2026-04-26T09:16:17.82Z</time></trkpt><trkpt lat="42.741465" lon="11.8658627"><ele>385.0</ele><time>2026-04-26T09:16:18.82Z</time></trkpt><trkpt lat="42.7414889" lon="11.8659915"><ele>385.0</ele><time>2026-04-26T09:16:19.82Z</time></trkpt><trkpt lat="42.741514" lon="11.8661255"><ele>385.0</ele><time>2026-04-26T09:16:20.819Z</time></trkpt><trkpt lat="42.7415394" lon="11.8662589"><ele>385.0</ele><time>2026-04-26T09:16:21.82Z</time></trkpt><trkpt lat="42.7415655" lon="11.8663947"><ele>384.8</ele><time>2026-04-26T09:16:22.82Z</time></trkpt><trkpt lat="42.7415913" lon="11.8665267"><ele>384.6</ele><time>2026-04-26T09:16:23.82Z</time></trkpt><trkpt lat="42.7416187" lon="11.8666566"><ele>384.4</ele><time>2026-04-26T09:16:24.819Z</time></trkpt><trkpt lat="42.741643" lon="11.8667802"><ele>384.2</ele><time>2026-04-26T09:16:25.819Z</time></trkpt><trkpt lat="42.7416657" lon="11.8668921"><ele>384.0</ele><time>2026-04-26T09:16:26.819Z</time></trkpt><trkpt lat="42.7416921" lon="11.8669915"><ele>384.0</ele><time>2026-04-26T09:16:27.819Z</time></trkpt><trkpt lat="42.7417154" lon="11.8670822"><ele>384.0</ele><time>2026-04-26T09:16:28.82Z</time></trkpt><trkpt lat="42.7417511" lon="11.8672019"><ele>384.0</ele><time>2026-04-26T09:16:30.819Z</time></trkpt><trkpt lat="42.7417958" lon="11.8672655"><ele>384.0</ele><time>2026-04-26T09:16:33.82Z</time></trkpt><trkpt lat="42.7418704" lon="11.8672593"><ele>384.0</ele><time>2026-04-26T09:16:36.82Z</time></trkpt><trkpt lat="42.7417939" lon="11.8673069"><ele>384.0</ele><time>2026-04-26T09:17:06.819Z</time></trkpt><trkpt lat="42.7417878" lon="11.8674636"><ele>384.0</ele><time>2026-04-26T09:17:08.82Z</time></trkpt><trkpt lat="42.7417962" lon="11.8675615"><ele>384.0</ele><time>2026-04-26T09:17:09.819Z</time></trkpt><trkpt lat="42.7418235" lon="11.867672"><ele>384.0</ele><time>2026-04-26T09:17:10.82Z</time></trkpt><trkpt lat="42.7418418" lon="11.8677651"><ele>384.0</ele><time>2026-04-26T09:17:11.82Z</time></trkpt><trkpt lat="42.7418546" lon="11.8678547"><ele>384.0</ele><time>2026-04-26T09:17:12.82Z</time></trkpt><trkpt lat="42.7418581" lon="11.8679408"><ele>384.0</ele><time>2026-04-26T09:17:13.819Z</time></trkpt><trkpt lat="42.7418325" lon="11.8680921"><ele>384.1666666666667</ele><time>2026-04-26T09:17:15.82Z</time></trkpt><trkpt lat="42.7418206" lon="11.868216"><ele>384.33333333333337</ele><time>2026-04-26T09:17:17.82Z</time></trkpt><trkpt lat="42.7418346" lon="11.8683185"><ele>384.5</ele><time>2026-04-26T09:17:20.82Z</time></trkpt><trkpt lat="42.7418319" lon="11.8684109"><ele>384.6666666666667</ele><time>2026-04-26T09:22:54.82Z</time></trkpt><trkpt lat="42.7418894" lon="11.868481"><ele>384.83333333333337</ele><time>2026-04-26T09:22:56.82Z</time></trkpt><trkpt lat="42.741973" lon="11.8685294"><ele>385.0</ele><time>2026-04-26T09:22:59.82Z</time></trkpt><trkpt lat="42.7420377" lon="11.8686297"><ele>386.00000000000006</ele><time>2026-04-26T09:23:01.82Z</time></trkpt><trkpt lat="42.7420698" lon="11.8687187"><ele>387.0</ele><time>2026-04-26T09:23:02.82Z</time></trkpt><trkpt lat="42.7421074" lon="11.8688088"><ele>388.0</ele><time>2026-04-26T09:23:03.82Z</time></trkpt><trkpt lat="42.7421636" lon="11.8688984"><ele>389.0</ele><time>2026-04-26T09:23:04.819Z</time></trkpt><trkpt lat="42.7422203" lon="11.8690013"><ele>390.00000000000006</ele><time>2026-04-26T09:23:05.82Z</time></trkpt><trkpt lat="42.7422718" lon="11.8691252"><ele>391.0</ele><time>2026-04-26T09:23:06.82Z</time></trkpt><trkpt lat="42.7423292" lon="11.8692515"><ele>391.5</ele><time>2026-04-26T09:23:07.819Z</time></trkpt><trkpt lat="42.7423884" lon="11.8693881"><ele>392.0</ele><time>2026-04-26T09:23:08.82Z</time></trkpt><trkpt lat="42.7424454" lon="11.8695219"><ele>392.5</ele><time>2026-04-26T09:23:09.82Z</time></trkpt><trkpt lat="42.7425004" lon="11.8696619"><ele>393.0</ele><time>2026-04-26T09:23:10.82Z</time></trkpt><trkpt lat="42.7425497" lon="11.8698158"><ele>393.0</ele><time>2026-04-26T09:23:11.82Z</time></trkpt><trkpt lat="42.7425799" lon="11.8699768"><ele>393.0</ele><time>2026-04-26T09:23:12.82Z</time></trkpt><trkpt lat="42.7426021" lon="11.8701449"><ele>393.0</ele><time>2026-04-26T09:23:13.82Z</time></trkpt><trkpt lat="42.7426087" lon="11.8703134"><ele>393.0</ele><time>2026-04-26T09:23:14.819Z</time></trkpt><trkpt lat="42.7426052" lon="11.870479"><ele>392.0</ele><time>2026-04-26T09:23:15.82Z</time></trkpt><trkpt lat="42.7425819" lon="11.8706471"><ele>391.0</ele><time>2026-04-26T09:23:16.82Z</time></trkpt><trkpt lat="42.7425372" lon="11.8707988"><ele>390.0</ele><time>2026-04-26T09:23:17.82Z</time></trkpt><trkpt lat="42.742477" lon="11.8709483"><ele>389.0</ele><time>2026-04-26T09:23:18.82Z</time></trkpt><trkpt lat="42.7424125" lon="11.871101"><ele>388.25</ele><time>2026-04-26T09:23:19.82Z</time></trkpt><trkpt lat="42.7423477" lon="11.8712596"><ele>387.5</ele><time>2026-04-26T09:23:20.819Z</time></trkpt><trkpt lat="42.7422788" lon="11.8714209"><ele>386.75</ele><time>2026-04-26T09:23:21.82Z</time></trkpt><trkpt lat="42.7422173" lon="11.8715858"><ele>386.0</ele><time>2026-04-26T09:23:22.819Z</time></trkpt><trkpt lat="42.7421677" lon="11.871751"><ele>387.0</ele><time>2026-04-26T09:23:23.82Z</time></trkpt><trkpt lat="42.7421334" lon="11.8719226"><ele>388.0</ele><time>2026-04-26T09:23:24.82Z</time></trkpt><trkpt lat="42.742099" lon="11.8720984"><ele>389.0</ele><time>2026-04-26T09:23:25.82Z</time></trkpt><trkpt lat="42.7420679" lon="11.8722796"><ele>390.0</ele><time>2026-04-26T09:23:26.82Z</time></trkpt><trkpt lat="42.7420411" lon="11.8724688"><ele>391.5</ele><time>2026-04-26T09:23:27.82Z</time></trkpt><trkpt lat="42.7420119" lon="11.8726541"><ele>393.0</ele><time>2026-04-26T09:23:28.819Z</time></trkpt><trkpt lat="42.7419823" lon="11.8728387"><ele>394.5</ele><time>2026-04-26T09:23:29.82Z</time></trkpt><trkpt lat="42.7419538" lon="11.8730272"><ele>396.0</ele><time>2026-04-26T09:23:30.82Z</time></trkpt><trkpt lat="42.7419238" lon="11.8732153"><ele>396.0</ele><time>2026-04-26T09:23:31.82Z</time></trkpt><trkpt lat="42.741895" lon="11.8734053"><ele>396.0</ele><time>2026-04-26T09:23:32.819Z</time></trkpt><trkpt lat="42.7418633" lon="11.8736024"><ele>396.0</ele><time>2026-04-26T09:23:33.819Z</time></trkpt><trkpt lat="42.74183" lon="11.8738025"><ele>396.0</ele><time>2026-04-26T09:23:34.82Z</time></trkpt><trkpt lat="42.7417958" lon="11.8740123"><ele>395.0</ele><time>2026-04-26T09:23:35.819Z</time></trkpt><trkpt lat="42.7417618" lon="11.874224"><ele>394.0</ele><time>2026-04-26T09:23:36.819Z</time></trkpt><trkpt lat="42.7417271" lon="11.8744333"><ele>393.0</ele><time>2026-04-26T09:23:37.82Z</time></trkpt><trkpt lat="42.7416917" lon="11.8746451"><ele>396.0</ele><time>2026-04-26T09:23:38.82Z</time></trkpt><trkpt lat="42.7416567" lon="11.8748609"><ele>399.0</ele><time>2026-04-26T09:23:39.82Z</time></trkpt><trkpt lat="42.7416234" lon="11.8750721"><ele>402.0</ele><time>2026-04-26T09:23:40.82Z</time></trkpt><trkpt lat="42.7415871" lon="11.8752866"><ele>402.66666666666663</ele><time>2026-04-26T09:23:41.819Z</time></trkpt><trkpt lat="42.7415505" lon="11.8755016"><ele>403.3333333333333</ele><time>2026-04-26T09:23:42.82Z</time></trkpt><trkpt lat="42.7415182" lon="11.8757242"><ele>404.0</ele><time>2026-04-26T09:23:43.82Z</time></trkpt><trkpt lat="42.741484" lon="11.8759468"><ele>404.0</ele><time>2026-04-26T09:23:44.82Z</time></trkpt><trkpt lat="42.7414498" lon="11.8761635"><ele>404.0</ele><time>2026-04-26T09:23:45.819Z</time></trkpt><trkpt lat="42.7414173" lon="11.8763888"><ele>404.0</ele><time>2026-04-26T09:23:46.82Z</time></trkpt><trkpt lat="42.7413809" lon="11.8766085"><ele>405.0</ele><time>2026-04-26T09:23:47.82Z</time></trkpt><trkpt lat="42.74134" lon="11.8768349"><ele>406.0</ele><time>2026-04-26T09:23:48.819Z</time></trkpt><trkpt lat="42.7412999" lon="11.8770513"><ele>407.0</ele><time>2026-04-26T09:23:49.82Z</time></trkpt><trkpt lat="42.7412716" lon="11.8772694"><ele>407.0</ele><time>2026-04-26T09:23:50.82Z</time></trkpt><trkpt lat="42.7412411" lon="11.8774731"><ele>407.0</ele><time>2026-04-26T09:23:51.82Z</time></trkpt><trkpt lat="42.7412097" lon="11.8776633"><ele>407.0</ele><time>2026-04-26T09:23:52.82Z</time></trkpt><trkpt lat="42.7411795" lon="11.8778494"><ele>407.0</ele><time>2026-04-26T09:23:53.819Z</time></trkpt><trkpt lat="42.7411522" lon="11.8780315"><ele>407.25</ele><time>2026-04-26T09:23:54.82Z</time></trkpt><trkpt lat="42.7411194" lon="11.8782072"><ele>407.5</ele><time>2026-04-26T09:23:55.82Z</time></trkpt><trkpt lat="42.7410846" lon="11.8783832"><ele>407.75</ele><time>2026-04-26T09:23:56.82Z</time></trkpt><trkpt lat="42.7410541" lon="11.8785593"><ele>408.0</ele><time>2026-04-26T09:23:57.82Z</time></trkpt><trkpt lat="42.7410167" lon="11.8787347"><ele>408.0</ele><time>2026-04-26T09:23:58.819Z</time></trkpt><trkpt lat="42.7409775" lon="11.8789225"><ele>408.0</ele><time>2026-04-26T09:23:59.82Z</time></trkpt><trkpt lat="42.7409127" lon="11.8791068"><ele>408.0</ele><time>2026-04-26T09:24:00.82Z</time></trkpt><trkpt lat="42.7408396" lon="11.8792811"><ele>408.0</ele><time>2026-04-26T09:24:01.819Z</time></trkpt><trkpt lat="42.7407625" lon="11.8794536"><ele>408.0</ele><time>2026-04-26T09:24:02.82Z</time></trkpt><trkpt lat="42.7406808" lon="11.8796243"><ele>408.0</ele><time>2026-04-26T09:24:03.82Z</time></trkpt><trkpt lat="42.7406029" lon="11.8797874"><ele>408.0</ele><time>2026-04-26T09:24:04.82Z</time></trkpt><trkpt lat="42.7405197" lon="11.8799581"><ele>408.0</ele><time>2026-04-26T09:24:05.82Z</time></trkpt><trkpt lat="42.7404366" lon="11.8801341"><ele>408.0</ele><time>2026-04-26T09:24:06.819Z</time></trkpt><trkpt lat="42.7403486" lon="11.880319"><ele>408.0</ele><time>2026-04-26T09:24:07.82Z</time></trkpt><trkpt lat="42.7402573" lon="11.8805064"><ele>408.0</ele><time>2026-04-26T09:24:08.82Z</time></trkpt><trkpt lat="42.7401622" lon="11.8807002"><ele>408.33333333333337</ele><time>2026-04-26T09:24:09.82Z</time></trkpt><trkpt lat="42.7400657" lon="11.8809126"><ele>408.6666666666667</ele><time>2026-04-26T09:24:10.819Z</time></trkpt><trkpt lat="42.7399647" lon="11.8811447"><ele>409.0</ele><time>2026-04-26T09:24:11.82Z</time></trkpt><trkpt lat="42.7398523" lon="11.881383"><ele>409.33333333333337</ele><time>2026-04-26T09:24:12.82Z</time></trkpt><trkpt lat="42.7397372" lon="11.8816171"><ele>409.66666666666663</ele><time>2026-04-26T09:24:13.82Z</time></trkpt><trkpt lat="42.7396085" lon="11.8818481"><ele>410.0</ele><time>2026-04-26T09:24:14.82Z</time></trkpt><trkpt lat="42.739472" lon="11.8820698"><ele>412.0</ele><time>2026-04-26T09:24:15.82Z</time></trkpt><trkpt lat="42.739332" lon="11.8822853"><ele>414.0</ele><time>2026-04-26T09:24:16.82Z</time></trkpt><trkpt lat="42.739176" lon="11.8824936"><ele>416.0</ele><time>2026-04-26T09:24:17.82Z</time></trkpt><trkpt lat="42.7390174" lon="11.8826968"><ele>418.3333333333333</ele><time>2026-04-26T09:24:18.82Z</time></trkpt><trkpt lat="42.7388565" lon="11.8828993"><ele>420.66666666666663</ele><time>2026-04-26T09:24:19.82Z</time></trkpt><trkpt lat="42.7386909" lon="11.8830988"><ele>423.0</ele><time>2026-04-26T09:24:20.82Z</time></trkpt><trkpt lat="42.7385293" lon="11.8832894"><ele>423.66666666666663</ele><time>2026-04-26T09:24:21.82Z</time></trkpt><trkpt lat="42.7383627" lon="11.8834622"><ele>424.3333333333333</ele><time>2026-04-26T09:24:22.82Z</time></trkpt><trkpt lat="42.7381886" lon="11.8835941"><ele>425.0</ele><time>2026-04-26T09:24:23.82Z</time></trkpt><trkpt lat="42.7379995" lon="11.8836705"><ele>425.0</ele><time>2026-04-26T09:24:24.82Z</time></trkpt><trkpt lat="42.7378008" lon="11.883713"><ele>425.0</ele><time>2026-04-26T09:24:25.82Z</time></trkpt><trkpt lat="42.7375942" lon="11.8837015"><ele>425.0</ele><time>2026-04-26T09:24:26.82Z</time></trkpt><trkpt lat="42.7373822" lon="11.8836924"><ele>425.0</ele><time>2026-04-26T09:24:27.82Z</time></trkpt><trkpt lat="42.7371723" lon="11.8836825"><ele>425.0</ele><time>2026-04-26T09:24:28.819Z</time></trkpt><trkpt lat="42.736956" lon="11.883671"><ele>425.0</ele><time>2026-04-26T09:24:29.82Z</time></trkpt><trkpt lat="42.7367426" lon="11.8836619"><ele>426.66666666666663</ele><time>2026-04-26T09:24:30.82Z</time></trkpt><trkpt lat="42.7365272" lon="11.8836505"><ele>428.33333333333337</ele><time>2026-04-26T09:24:31.82Z</time></trkpt><trkpt lat="42.7363111" lon="11.8836372"><ele>430.0</ele><time>2026-04-26T09:24:32.82Z</time></trkpt><trkpt lat="42.7360988" lon="11.8836244"><ele>431.0</ele><time>2026-04-26T09:24:33.82Z</time></trkpt><trkpt lat="42.7358868" lon="11.8836264"><ele>432.0</ele><time>2026-04-26T09:24:34.819Z</time></trkpt><trkpt lat="42.7356768" lon="11.8836486"><ele>433.0</ele><time>2026-04-26T09:24:35.819Z</time></trkpt><trkpt lat="42.7354681" lon="11.8837073"><ele>433.0</ele><time>2026-04-26T09:24:36.819Z</time></trkpt><trkpt lat="42.7352619" lon="11.8837906"><ele>433.0</ele><time>2026-04-26T09:24:37.82Z</time></trkpt><trkpt lat="42.7350545" lon="11.8838737"><ele>433.0</ele><time>2026-04-26T09:24:38.82Z</time></trkpt><trkpt lat="42.7348414" lon="11.8839493"><ele>432.6666666666667</ele><time>2026-04-26T09:24:39.82Z</time></trkpt><trkpt lat="42.734625" lon="11.8840104"><ele>432.33333333333337</ele><time>2026-04-26T09:24:40.82Z</time></trkpt><trkpt lat="42.7344016" lon="11.8840569"><ele>432.0</ele><time>2026-04-26T09:24:41.82Z</time></trkpt><trkpt lat="42.7341733" lon="11.884088"><ele>432.0</ele><time>2026-04-26T09:24:42.82Z</time></trkpt><trkpt lat="42.7339515" lon="11.8841112"><ele>432.0</ele><time>2026-04-26T09:24:43.82Z</time></trkpt><trkpt lat="42.7337245" lon="11.8841313"><ele>433.0</ele><time>2026-04-26T09:24:44.82Z</time></trkpt><trkpt lat="42.7334945" lon="11.8841502"><ele>434.0</ele><time>2026-04-26T09:24:45.819Z</time></trkpt><trkpt lat="42.7332661" lon="11.8841669"><ele>434.0</ele><time>2026-04-26T09:24:46.82Z</time></trkpt><trkpt lat="42.7330412" lon="11.8841928"><ele>434.0</ele><time>2026-04-26T09:24:47.819Z</time></trkpt><trkpt lat="42.7328204" lon="11.8842227"><ele>434.0</ele><time>2026-04-26T09:24:48.82Z</time></trkpt><trkpt lat="42.7326066" lon="11.8842617"><ele>432.66666666666663</ele><time>2026-04-26T09:24:49.82Z</time></trkpt><trkpt lat="42.7323875" lon="11.8843"><ele>431.33333333333337</ele><time>2026-04-26T09:24:50.82Z</time></trkpt><trkpt lat="42.7321608" lon="11.8843333"><ele>430.0</ele><time>2026-04-26T09:24:51.819Z</time></trkpt><trkpt lat="42.7319338" lon="11.8843486"><ele>430.5</ele><time>2026-04-26T09:24:52.82Z</time></trkpt><trkpt lat="42.7317003" lon="11.8843548"><ele>431.0</ele><time>2026-04-26T09:24:53.82Z</time></trkpt><trkpt lat="42.731467" lon="11.8843668"><ele>431.0</ele><time>2026-04-26T09:24:54.819Z</time></trkpt><trkpt lat="42.7312367" lon="11.8844086"><ele>431.0</ele><time>2026-04-26T09:24:55.82Z</time></trkpt><trkpt lat="42.7310135" lon="11.8844676"><ele>431.66666666666663</ele><time>2026-04-26T09:24:56.819Z</time></trkpt><trkpt lat="42.7307945" lon="11.8845386"><ele>432.33333333333337</ele><time>2026-04-26T09:24:57.82Z</time></trkpt><trkpt lat="42.7305771" lon="11.8845948"><ele>433.0</ele><time>2026-04-26T09:24:58.82Z</time></trkpt><trkpt lat="42.7303612" lon="11.8846389"><ele>433.6666666666667</ele><time>2026-04-26T09:24:59.819Z</time></trkpt><trkpt lat="42.7301485" lon="11.8846658"><ele>434.33333333333337</ele><time>2026-04-26T09:25:00.82Z</time></trkpt><trkpt lat="42.7299355" lon="11.8846986"><ele>435.0</ele><time>2026-04-26T09:25:01.82Z</time></trkpt><trkpt lat="42.729734" lon="11.8847505"><ele>435.0</ele><time>2026-04-26T09:25:02.82Z</time></trkpt><trkpt lat="42.729534" lon="11.8848371"><ele>435.0</ele><time>2026-04-26T09:25:03.82Z</time></trkpt><trkpt lat="42.7293488" lon="11.8849406"><ele>435.0</ele><time>2026-04-26T09:25:04.82Z</time></trkpt><trkpt lat="42.7291667" lon="11.8850818"><ele>434.66666666666663</ele><time>2026-04-26T09:25:05.82Z</time></trkpt><trkpt lat="42.728996" lon="11.8852499"><ele>434.3333333333333</ele><time>2026-04-26T09:25:06.82Z</time></trkpt><trkpt lat="42.7288295" lon="11.8854319"><ele>434.0</ele><time>2026-04-26T09:25:07.819Z</time></trkpt><trkpt lat="42.7286661" lon="11.8856193"><ele>434.0</ele><time>2026-04-26T09:25:08.819Z</time></trkpt><trkpt lat="42.7285052" lon="11.8858202"><ele>434.0</ele><time>2026-04-26T09:25:09.82Z</time></trkpt><trkpt lat="42.7283385" lon="11.8860269"><ele>434.0</ele><time>2026-04-26T09:25:10.819Z</time></trkpt><trkpt lat="42.7281713" lon="11.886226"><ele>434.0</ele><time>2026-04-26T09:25:11.819Z</time></trkpt><trkpt lat="42.7279984" lon="11.8864275"><ele>434.0</ele><time>2026-04-26T09:25:12.82Z</time></trkpt><trkpt lat="42.7278249" lon="11.8866327"><ele>435.5</ele><time>2026-04-26T09:25:13.82Z</time></trkpt><trkpt lat="42.727651" lon="11.8868392"><ele>437.0</ele><time>2026-04-26T09:25:14.82Z</time></trkpt><trkpt lat="42.7274787" lon="11.8870454"><ele>437.0</ele><time>2026-04-26T09:25:15.82Z</time></trkpt><trkpt lat="42.7273059" lon="11.8872572"><ele>437.0</ele><time>2026-04-26T09:25:16.82Z</time></trkpt><trkpt lat="42.7271304" lon="11.8874653"><ele>439.0</ele><time>2026-04-26T09:25:17.82Z</time></trkpt><trkpt lat="42.7269576" lon="11.8876691"><ele>441.0</ele><time>2026-04-26T09:25:18.819Z</time></trkpt><trkpt lat="42.7267878" lon="11.8878765"><ele>441.0</ele><time>2026-04-26T09:25:19.82Z</time></trkpt><trkpt lat="42.7266188" lon="11.8880837"><ele>441.0</ele><time>2026-04-26T09:25:20.819Z</time></trkpt><trkpt lat="42.7264538" lon="11.8882943"><ele>441.0</ele><time>2026-04-26T09:25:21.82Z</time></trkpt><trkpt lat="42.7262983" lon="11.8885122"><ele>441.0</ele><time>2026-04-26T09:25:22.819Z</time></trkpt><trkpt lat="42.7261499" lon="11.8887252"><ele>441.0</ele><time>2026-04-26T09:25:23.819Z</time></trkpt><trkpt lat="42.7260014" lon="11.8889421"><ele>441.0</ele><time>2026-04-26T09:25:24.819Z</time></trkpt><trkpt lat="42.7258541" lon="11.8891541"><ele>441.0</ele><time>2026-04-26T09:25:25.82Z</time></trkpt><trkpt lat="42.7257002" lon="11.889367"><ele>441.0</ele><time>2026-04-26T09:25:26.819Z</time></trkpt><trkpt lat="42.7255461" lon="11.8895754"><ele>441.33333333333337</ele><time>2026-04-26T09:25:27.819Z</time></trkpt><trkpt lat="42.7253901" lon="11.8897861"><ele>441.6666666666667</ele><time>2026-04-26T09:25:28.82Z</time></trkpt><trkpt lat="42.7252257" lon="11.8899802"><ele>442.0</ele><time>2026-04-26T09:25:29.82Z</time></trkpt><trkpt lat="42.7250563" lon="11.8901643"><ele>442.0</ele><time>2026-04-26T09:25:30.82Z</time></trkpt><trkpt lat="42.7248786" lon="11.890336"><ele>442.0</ele><time>2026-04-26T09:25:31.82Z</time></trkpt><trkpt lat="42.7247014" lon="11.8905014"><ele>442.0</ele><time>2026-04-26T09:25:32.819Z</time></trkpt><trkpt lat="42.7245177" lon="11.8906591"><ele>442.0</ele><time>2026-04-26T09:25:33.819Z</time></trkpt><trkpt lat="42.7243296" lon="11.890797"><ele>442.0</ele><time>2026-04-26T09:25:34.819Z</time></trkpt><trkpt lat="42.7241307" lon="11.890933"><ele>442.0</ele><time>2026-04-26T09:25:35.82Z</time></trkpt><trkpt lat="42.7239248" lon="11.8910692"><ele>442.0</ele><time>2026-04-26T09:25:36.819Z</time></trkpt><trkpt lat="42.7237164" lon="11.891194"><ele>442.0</ele><time>2026-04-26T09:25:37.82Z</time></trkpt><trkpt lat="42.7235052" lon="11.8913194"><ele>441.5</ele><time>2026-04-26T09:25:38.82Z</time></trkpt><trkpt lat="42.7232883" lon="11.8914372"><ele>441.0</ele><time>2026-04-26T09:25:39.819Z</time></trkpt><trkpt lat="42.7230682" lon="11.8915515"><ele>441.0</ele><time>2026-04-26T09:25:40.82Z</time></trkpt><trkpt lat="42.7228449" lon="11.8916587"><ele>441.0</ele><time>2026-04-26T09:25:41.819Z</time></trkpt><trkpt lat="42.7226175" lon="11.8917732"><ele>443.0</ele><time>2026-04-26T09:25:42.82Z</time></trkpt><trkpt lat="42.7223914" lon="11.8918906"><ele>445.0</ele><time>2026-04-26T09:25:43.82Z</time></trkpt><trkpt lat="42.7221684" lon="11.8920027"><ele>445.0</ele><time>2026-04-26T09:25:44.82Z</time></trkpt><trkpt lat="42.7219454" lon="11.8921112"><ele>445.0</ele><time>2026-04-26T09:25:45.82Z</time></trkpt><trkpt lat="42.7217229" lon="11.892227"><ele>445.0</ele><time>2026-04-26T09:25:46.819Z</time></trkpt><trkpt lat="42.7214994" lon="11.8923398"><ele>445.0</ele><time>2026-04-26T09:25:47.82Z</time></trkpt><trkpt lat="42.7212772" lon="11.8924598"><ele>445.0</ele><time>2026-04-26T09:25:48.82Z</time></trkpt><trkpt lat="42.721061" lon="11.8925789"><ele>445.0</ele><time>2026-04-26T09:25:49.819Z</time></trkpt><trkpt lat="42.720847" lon="11.892684"><ele>447.0</ele><time>2026-04-26T09:25:50.819Z</time></trkpt><trkpt lat="42.7206346" lon="11.8927978"><ele>449.0</ele><time>2026-04-26T09:25:51.82Z</time></trkpt><trkpt lat="42.7204268" lon="11.8929188"><ele>447.0</ele><time>2026-04-26T09:25:52.819Z</time></trkpt><trkpt lat="42.7202282" lon="11.8930675"><ele>445.0</ele><time>2026-04-26T09:25:53.82Z</time></trkpt><trkpt lat="42.7200244" lon="11.8932216"><ele>445.0</ele><time>2026-04-26T09:25:54.819Z</time></trkpt><trkpt lat="42.7198213" lon="11.8933783"><ele>445.0</ele><time>2026-04-26T09:25:55.82Z</time></trkpt><trkpt lat="42.7196137" lon="11.8935313"><ele>445.0</ele><time>2026-04-26T09:25:56.82Z</time></trkpt><trkpt lat="42.7194035" lon="11.8936863"><ele>445.0</ele><time>2026-04-26T09:25:57.82Z</time></trkpt><trkpt lat="42.719195" lon="11.8938395"><ele>444.5</ele><time>2026-04-26T09:25:58.82Z</time></trkpt><trkpt lat="42.718981" lon="11.8939797"><ele>444.0</ele><time>2026-04-26T09:25:59.82Z</time></trkpt><trkpt lat="42.7187576" lon="11.8941025"><ele>444.0</ele><time>2026-04-26T09:26:00.82Z</time></trkpt><trkpt lat="42.7185296" lon="11.8942063"><ele>444.0</ele><time>2026-04-26T09:26:01.82Z</time></trkpt><trkpt lat="42.7183041" lon="11.8942969"><ele>444.5</ele><time>2026-04-26T09:26:02.82Z</time></trkpt><trkpt lat="42.7180766" lon="11.8943853"><ele>445.0</ele><time>2026-04-26T09:26:03.82Z</time></trkpt><trkpt lat="42.7178508" lon="11.8944813"><ele>445.0</ele><time>2026-04-26T09:26:04.82Z</time></trkpt><trkpt lat="42.7176242" lon="11.8945741"><ele>445.0</ele><time>2026-04-26T09:26:05.819Z</time></trkpt><trkpt lat="42.7173962" lon="11.8946735"><ele>445.0</ele><time>2026-04-26T09:26:06.819Z</time></trkpt><trkpt lat="42.7171641" lon="11.8947683"><ele>445.0</ele><time>2026-04-26T09:26:07.82Z</time></trkpt><trkpt lat="42.7169308" lon="11.8948548"><ele>445.0</ele><time>2026-04-26T09:26:08.819Z</time></trkpt><trkpt lat="42.7167016" lon="11.8949498"><ele>445.0</ele><time>2026-04-26T09:26:09.82Z</time></trkpt><trkpt lat="42.7164735" lon="11.8950447"><ele>445.5</ele><time>2026-04-26T09:26:10.82Z</time></trkpt><trkpt lat="42.716246" lon="11.8951385"><ele>446.0</ele><time>2026-04-26T09:26:11.82Z</time></trkpt><trkpt lat="42.7160132" lon="11.8952319"><ele>446.0</ele><time>2026-04-26T09:26:12.82Z</time></trkpt><trkpt lat="42.7157843" lon="11.8953227"><ele>446.0</ele><time>2026-04-26T09:26:13.82Z</time></trkpt><trkpt lat="42.7155566" lon="11.8954188"><ele>446.0</ele><time>2026-04-26T09:26:14.82Z</time></trkpt><trkpt lat="42.7153322" lon="11.8955261"><ele>446.0</ele><time>2026-04-26T09:26:15.82Z</time></trkpt><trkpt lat="42.7151105" lon="11.8956401"><ele>446.0</ele><time>2026-04-26T09:26:16.819Z</time></trkpt><trkpt lat="42.7148891" lon="11.8957595"><ele>446.0</ele><time>2026-04-26T09:26:17.82Z</time></trkpt><trkpt lat="42.7146705" lon="11.8958865"><ele>447.0</ele><time>2026-04-26T09:26:18.82Z</time></trkpt><trkpt lat="42.7144491" lon="11.8960146"><ele>448.0</ele><time>2026-04-26T09:26:19.82Z</time></trkpt><trkpt lat="42.714232" lon="11.8961456"><ele>448.0</ele><time>2026-04-26T09:26:20.82Z</time></trkpt><trkpt lat="42.7140172" lon="11.896274"><ele>448.0</ele><time>2026-04-26T09:26:21.82Z</time></trkpt><trkpt lat="42.7138001" lon="11.8964036"><ele>448.0</ele><time>2026-04-26T09:26:22.82Z</time></trkpt><trkpt lat="42.7135822" lon="11.8965289"><ele>448.0</ele><time>2026-04-26T09:26:23.819Z</time></trkpt><trkpt lat="42.7133629" lon="11.8966518"><ele>448.5</ele><time>2026-04-26T09:26:24.82Z</time></trkpt><trkpt lat="42.713144" lon="11.8967734"><ele>449.0</ele><time>2026-04-26T09:26:25.82Z</time></trkpt><trkpt lat="42.7129248" lon="11.8968942"><ele>447.5</ele><time>2026-04-26T09:26:26.819Z</time></trkpt><trkpt lat="42.7127058" lon="11.8970145"><ele>446.0</ele><time>2026-04-26T09:26:27.819Z</time></trkpt><trkpt lat="42.7124867" lon="11.8971391"><ele>446.0</ele><time>2026-04-26T09:26:28.82Z</time></trkpt><trkpt lat="42.7122689" lon="11.8972568"><ele>446.0</ele><time>2026-04-26T09:26:29.82Z</time></trkpt><trkpt lat="42.7120456" lon="11.8973835"><ele>446.0</ele><time>2026-04-26T09:26:30.82Z</time></trkpt><trkpt lat="42.7118214" lon="11.8975043"><ele>446.0</ele><time>2026-04-26T09:26:31.82Z</time></trkpt><trkpt lat="42.7115936" lon="11.8976205"><ele>445.5</ele><time>2026-04-26T09:26:32.82Z</time></trkpt><trkpt lat="42.7113673" lon="11.8977357"><ele>445.0</ele><time>2026-04-26T09:26:33.82Z</time></trkpt><trkpt lat="42.7111374" lon="11.8978488"><ele>445.0</ele><time>2026-04-26T09:26:34.819Z</time></trkpt><trkpt lat="42.7109098" lon="11.8979516"><ele>445.0</ele><time>2026-04-26T09:26:35.82Z</time></trkpt><trkpt lat="42.7106784" lon="11.8980578"><ele>445.0</ele><time>2026-04-26T09:26:36.82Z</time></trkpt><trkpt lat="42.7104483" lon="11.8981601"><ele>445.0</ele><time>2026-04-26T09:26:37.819Z</time></trkpt><trkpt lat="42.7102207" lon="11.8982726"><ele>445.5</ele><time>2026-04-26T09:26:38.82Z</time></trkpt><trkpt lat="42.7099969" lon="11.8983887"><ele>446.0</ele><time>2026-04-26T09:26:39.82Z</time></trkpt><trkpt lat="42.7097726" lon="11.8985178"><ele>446.0</ele><time>2026-04-26T09:26:40.819Z</time></trkpt><trkpt lat="42.7095485" lon="11.898652"><ele>446.0</ele><time>2026-04-26T09:26:41.819Z</time></trkpt><trkpt lat="42.7093258" lon="11.8987808"><ele>447.5</ele><time>2026-04-26T09:26:42.82Z</time></trkpt><trkpt lat="42.7090999" lon="11.8989152"><ele>449.0</ele><time>2026-04-26T09:26:43.82Z</time></trkpt><trkpt lat="42.7088737" lon="11.8990471"><ele>449.0</ele><time>2026-04-26T09:26:44.82Z</time></trkpt><trkpt lat="42.7086468" lon="11.8991783"><ele>449.0</ele><time>2026-04-26T09:26:45.82Z</time></trkpt><trkpt lat="42.7084207" lon="11.8993103"><ele>448.5</ele><time>2026-04-26T09:26:46.82Z</time></trkpt><trkpt lat="42.7081974" lon="11.8994434"><ele>448.0</ele><time>2026-04-26T09:26:47.82Z</time></trkpt><trkpt lat="42.7079725" lon="11.8995732"><ele>448.0</ele><time>2026-04-26T09:26:48.819Z</time></trkpt><trkpt lat="42.7077458" lon="11.8996974"><ele>448.0</ele><time>2026-04-26T09:26:49.82Z</time></trkpt><trkpt lat="42.7075149" lon="11.8998084"><ele>448.5</ele><time>2026-04-26T09:26:50.82Z</time></trkpt><trkpt lat="42.7072792" lon="11.8999053"><ele>449.0</ele><time>2026-04-26T09:26:51.82Z</time></trkpt><trkpt lat="42.7070428" lon="11.8999813"><ele>449.0</ele><time>2026-04-26T09:26:52.82Z</time></trkpt><trkpt lat="42.7067966" lon="11.9000504"><ele>449.0</ele><time>2026-04-26T09:26:53.819Z</time></trkpt><trkpt lat="42.7065542" lon="11.9001079"><ele>449.0</ele><time>2026-04-26T09:26:54.82Z</time></trkpt><trkpt lat="42.7063116" lon="11.9001586"><ele>449.0</ele><time>2026-04-26T09:26:55.819Z</time></trkpt><trkpt lat="42.7060725" lon="11.9002077"><ele>449.5</ele><time>2026-04-26T09:26:56.82Z</time></trkpt><trkpt lat="42.7058337" lon="11.9002601"><ele>450.0</ele><time>2026-04-26T09:26:57.819Z</time></trkpt><trkpt lat="42.7055949" lon="11.9003113"><ele>450.0</ele><time>2026-04-26T09:26:58.819Z</time></trkpt><trkpt lat="42.705359" lon="11.9003615"><ele>450.0</ele><time>2026-04-26T09:26:59.82Z</time></trkpt><trkpt lat="42.7051221" lon="11.9004136"><ele>450.5</ele><time>2026-04-26T09:27:00.82Z</time></trkpt><trkpt lat="42.704888" lon="11.9004744"><ele>451.0</ele><time>2026-04-26T09:27:01.82Z</time></trkpt><trkpt lat="42.7046563" lon="11.9005454"><ele>451.0</ele><time>2026-04-26T09:27:02.82Z</time></trkpt><trkpt lat="42.7044283" lon="11.9006367"><ele>451.0</ele><time>2026-04-26T09:27:03.819Z</time></trkpt><trkpt lat="42.7042025" lon="11.9007394"><ele>452.5</ele><time>2026-04-26T09:27:04.82Z</time></trkpt><trkpt lat="42.7039817" lon="11.9008344"><ele>454.0</ele><time>2026-04-26T09:27:05.82Z</time></trkpt><trkpt lat="42.703756" lon="11.9009186"><ele>455.0</ele><time>2026-04-26T09:27:06.82Z</time></trkpt><trkpt lat="42.7035245" lon="11.9009849"><ele>456.0</ele><time>2026-04-26T09:27:07.82Z</time></trkpt><trkpt lat="42.7032938" lon="11.9010214"><ele>456.0</ele><time>2026-04-26T09:27:08.82Z</time></trkpt><trkpt lat="42.7030628" lon="11.901047"><ele>456.0</ele><time>2026-04-26T09:27:09.82Z</time></trkpt><trkpt lat="42.7028306" lon="11.901055"><ele>455.5</ele><time>2026-04-26T09:27:10.82Z</time></trkpt><trkpt lat="42.7026019" lon="11.9010518"><ele>455.0</ele><time>2026-04-26T09:27:11.82Z</time></trkpt><trkpt lat="42.7023729" lon="11.9010462"><ele>455.0</ele><time>2026-04-26T09:27:12.82Z</time></trkpt><trkpt lat="42.7021429" lon="11.9010413"><ele>455.0</ele><time>2026-04-26T09:27:13.82Z</time></trkpt><trkpt lat="42.7019134" lon="11.9010401"><ele>455.3333333333333</ele><time>2026-04-26T09:27:14.82Z</time></trkpt><trkpt lat="42.7016934" lon="11.901039"><ele>455.66666666666663</ele><time>2026-04-26T09:27:15.82Z</time></trkpt><trkpt lat="42.7014875" lon="11.9010459"><ele>456.0</ele><time>2026-04-26T09:27:16.819Z</time></trkpt><trkpt lat="42.7012847" lon="11.9010751"><ele>456.0</ele><time>2026-04-26T09:27:17.82Z</time></trkpt><trkpt lat="42.7010787" lon="11.9011168"><ele>456.0</ele><time>2026-04-26T09:27:18.82Z</time></trkpt><trkpt lat="42.700864" lon="11.9011646"><ele>456.0</ele><time>2026-04-26T09:27:19.82Z</time></trkpt><trkpt lat="42.7006443" lon="11.9012331"><ele>456.0</ele><time>2026-04-26T09:27:20.82Z</time></trkpt><trkpt lat="42.7004219" lon="11.9013087"><ele>456.0</ele><time>2026-04-26T09:27:21.82Z</time></trkpt><trkpt lat="42.7001912" lon="11.9013808"><ele>456.5</ele><time>2026-04-26T09:27:22.82Z</time></trkpt><trkpt lat="42.6999568" lon="11.901457"><ele>457.0</ele><time>2026-04-26T09:27:23.82Z</time></trkpt><trkpt lat="42.6997219" lon="11.9015322"><ele>457.0</ele><time>2026-04-26T09:27:24.82Z</time></trkpt><trkpt lat="42.6994899" lon="11.90161"><ele>457.0</ele><time>2026-04-26T09:27:25.819Z</time></trkpt><trkpt lat="42.699252" lon="11.9016775"><ele>458.0</ele><time>2026-04-26T09:27:26.819Z</time></trkpt><trkpt lat="42.6990158" lon="11.9017185"><ele>459.0</ele><time>2026-04-26T09:27:27.819Z</time></trkpt><trkpt lat="42.6987829" lon="11.9017449"><ele>461.5</ele><time>2026-04-26T09:27:28.82Z</time></trkpt><trkpt lat="42.6985516" lon="11.9018"><ele>464.0</ele><time>2026-04-26T09:27:29.819Z</time></trkpt><trkpt lat="42.6983273" lon="11.9018736"><ele>464.0</ele><time>2026-04-26T09:27:30.82Z</time></trkpt><trkpt lat="42.6981018" lon="11.9019686"><ele>464.0</ele><time>2026-04-26T09:27:31.82Z</time></trkpt><trkpt lat="42.697871" lon="11.9020778"><ele>462.0</ele><time>2026-04-26T09:27:32.82Z</time></trkpt><trkpt lat="42.697648" lon="11.9021863"><ele>460.0</ele><time>2026-04-26T09:27:33.82Z</time></trkpt><trkpt lat="42.6974202" lon="11.9022956"><ele>460.0</ele><time>2026-04-26T09:27:34.82Z</time></trkpt><trkpt lat="42.6971944" lon="11.9023991"><ele>460.0</ele><time>2026-04-26T09:27:35.82Z</time></trkpt><trkpt lat="42.6969662" lon="11.9024978"><ele>460.5</ele><time>2026-04-26T09:27:36.82Z</time></trkpt><trkpt lat="42.6967327" lon="11.9025752"><ele>461.0</ele><time>2026-04-26T09:27:37.82Z</time></trkpt><trkpt lat="42.6965016" lon="11.9026124"><ele>462.0</ele><time>2026-04-26T09:27:38.819Z</time></trkpt><trkpt lat="42.696266" lon="11.9026252"><ele>463.0</ele><time>2026-04-26T09:27:39.819Z</time></trkpt><trkpt lat="42.6960241" lon="11.9026311"><ele>463.5</ele><time>2026-04-26T09:27:40.819Z</time></trkpt><trkpt lat="42.6957844" lon="11.9026345"><ele>464.0</ele><time>2026-04-26T09:27:41.82Z</time></trkpt><trkpt lat="42.6955455" lon="11.9026359"><ele>464.0</ele><time>2026-04-26T09:27:42.82Z</time></trkpt><trkpt lat="42.6953057" lon="11.9026481"><ele>464.0</ele><time>2026-04-26T09:27:43.82Z</time></trkpt><trkpt lat="42.6950643" lon="11.9026732"><ele>464.0</ele><time>2026-04-26T09:27:44.819Z</time></trkpt><trkpt lat="42.6948208" lon="11.9027066"><ele>464.0</ele><time>2026-04-26T09:27:45.819Z</time></trkpt><trkpt lat="42.6945813" lon="11.9027464"><ele>465.0</ele><time>2026-04-26T09:27:46.82Z</time></trkpt><trkpt lat="42.6943399" lon="11.902793"><ele>466.0</ele><time>2026-04-26T09:27:47.82Z</time></trkpt><trkpt lat="42.6940961" lon="11.9028405"><ele>466.0</ele><time>2026-04-26T09:27:48.82Z</time></trkpt><trkpt lat="42.6938515" lon="11.9028919"><ele>466.0</ele><time>2026-04-26T09:27:49.819Z</time></trkpt><trkpt lat="42.6936097" lon="11.9029415"><ele>466.5</ele><time>2026-04-26T09:27:50.819Z</time></trkpt><trkpt lat="42.6933685" lon="11.9029933"><ele>467.0</ele><time>2026-04-26T09:27:51.82Z</time></trkpt><trkpt lat="42.6931285" lon="11.9030398"><ele>467.0</ele><time>2026-04-26T09:27:52.82Z</time></trkpt><trkpt lat="42.6928878" lon="11.9030799"><ele>467.0</ele><time>2026-04-26T09:27:53.82Z</time></trkpt><trkpt lat="42.6926466" lon="11.903124"><ele>467.5</ele><time>2026-04-26T09:27:54.819Z</time></trkpt><trkpt lat="42.6924093" lon="11.9031668"><ele>468.0</ele><time>2026-04-26T09:27:55.82Z</time></trkpt><trkpt lat="42.6921731" lon="11.9032124"><ele>468.0</ele><time>2026-04-26T09:27:56.82Z</time></trkpt><trkpt lat="42.6919382" lon="11.9032576"><ele>468.0</ele><time>2026-04-26T09:27:57.82Z</time></trkpt><trkpt lat="42.6917043" lon="11.9032987"><ele>470.0</ele><time>2026-04-26T09:27:58.82Z</time></trkpt><trkpt lat="42.6914713" lon="11.9033466"><ele>472.0</ele><time>2026-04-26T09:27:59.82Z</time></trkpt><trkpt lat="42.6912478" lon="11.90341"><ele>471.5</ele><time>2026-04-26T09:28:00.82Z</time></trkpt><trkpt lat="42.6910166" lon="11.9034911"><ele>471.0</ele><time>2026-04-26T09:28:01.82Z</time></trkpt><trkpt lat="42.6907933" lon="11.903591"><ele>471.0</ele><time>2026-04-26T09:28:02.819Z</time></trkpt><trkpt lat="42.6905792" lon="11.9037133"><ele>471.0</ele><time>2026-04-26T09:28:03.82Z</time></trkpt><trkpt lat="42.6903667" lon="11.903834"><ele>473.0</ele><time>2026-04-26T09:28:04.819Z</time></trkpt><trkpt lat="42.6901604" lon="11.9039412"><ele>475.0</ele><time>2026-04-26T09:28:05.82Z</time></trkpt><trkpt lat="42.6899577" lon="11.90403"><ele>477.0</ele><time>2026-04-26T09:28:06.82Z</time></trkpt><trkpt lat="42.6897596" lon="11.904086"><ele>477.0</ele><time>2026-04-26T09:28:07.819Z</time></trkpt><trkpt lat="42.6895612" lon="11.9040919"><ele>477.0</ele><time>2026-04-26T09:28:08.82Z</time></trkpt><trkpt lat="42.6893693" lon="11.9040613"><ele>477.0</ele><time>2026-04-26T09:28:09.82Z</time></trkpt><trkpt lat="42.6891831" lon="11.9040683"><ele>478.33333333333337</ele><time>2026-04-26T09:28:10.82Z</time></trkpt><trkpt lat="42.6889965" lon="11.9040963"><ele>479.6666666666667</ele><time>2026-04-26T09:28:11.819Z</time></trkpt><trkpt lat="42.6888189" lon="11.9041729"><ele>481.0</ele><time>2026-04-26T09:28:12.82Z</time></trkpt><trkpt lat="42.6886443" lon="11.9042821"><ele>483.0</ele><time>2026-04-26T09:28:13.82Z</time></trkpt><trkpt lat="42.6884799" lon="11.9043909"><ele>485.0</ele><time>2026-04-26T09:28:14.819Z</time></trkpt><trkpt lat="42.6883124" lon="11.9045049"><ele>487.0</ele><time>2026-04-26T09:28:15.82Z</time></trkpt><trkpt lat="42.6881484" lon="11.9046219"><ele>487.0</ele><time>2026-04-26T09:28:16.82Z</time></trkpt><trkpt lat="42.6879941" lon="11.9047347"><ele>487.0</ele><time>2026-04-26T09:28:17.819Z</time></trkpt><trkpt lat="42.6878432" lon="11.9048459"><ele>487.0</ele><time>2026-04-26T09:28:18.82Z</time></trkpt><trkpt lat="42.6876938" lon="11.904957"><ele>487.0</ele><time>2026-04-26T09:28:19.819Z</time></trkpt><trkpt lat="42.6875523" lon="11.9050611"><ele>487.0</ele><time>2026-04-26T09:28:20.819Z</time></trkpt><trkpt lat="42.6874208" lon="11.9051565"><ele>487.0</ele><time>2026-04-26T09:28:21.82Z</time></trkpt><trkpt lat="42.6872966" lon="11.9052398"><ele>487.0</ele><time>2026-04-26T09:28:22.819Z</time></trkpt><trkpt lat="42.6871831" lon="11.9053193"><ele>488.0</ele><time>2026-04-26T09:28:23.82Z</time></trkpt><trkpt lat="42.687073" lon="11.9053886"><ele>489.0</ele><time>2026-04-26T09:28:24.82Z</time></trkpt><trkpt lat="42.6869808" lon="11.9054548"><ele>490.0</ele><time>2026-04-26T09:28:25.82Z</time></trkpt><trkpt lat="42.6868763" lon="11.9055201"><ele>491.0</ele><time>2026-04-26T09:28:26.82Z</time></trkpt><trkpt lat="42.6867741" lon="11.9055929"><ele>491.75</ele><time>2026-04-26T09:28:27.82Z</time></trkpt><trkpt lat="42.6866608" lon="11.9056832"><ele>492.5</ele><time>2026-04-26T09:28:28.82Z</time></trkpt><trkpt lat="42.6865491" lon="11.9057708"><ele>493.25</ele><time>2026-04-26T09:28:29.82Z</time></trkpt><trkpt lat="42.6864303" lon="11.9058575"><ele>494.0</ele><time>2026-04-26T09:28:30.82Z</time></trkpt><trkpt lat="42.6863049" lon="11.9059462"><ele>494.25</ele><time>2026-04-26T09:28:31.819Z</time></trkpt><trkpt lat="42.6861808" lon="11.9060454"><ele>494.5</ele><time>2026-04-26T09:28:32.82Z</time></trkpt><trkpt lat="42.6860577" lon="11.9061314"><ele>494.75</ele><time>2026-04-26T09:28:33.82Z</time></trkpt><trkpt lat="42.6859443" lon="11.9062072"><ele>495.0</ele><time>2026-04-26T09:28:34.82Z</time></trkpt><trkpt lat="42.6858334" lon="11.9062807"><ele>495.0</ele><time>2026-04-26T09:28:35.82Z</time></trkpt><trkpt lat="42.6857351" lon="11.906346"><ele>495.0</ele><time>2026-04-26T09:28:36.82Z</time></trkpt><trkpt lat="42.6856403" lon="11.9064179"><ele>495.0</ele><time>2026-04-26T09:28:37.82Z</time></trkpt><trkpt lat="42.6855508" lon="11.9064834"><ele>495.0</ele><time>2026-04-26T09:28:38.819Z</time></trkpt><trkpt lat="42.6854686" lon="11.9065463"><ele>495.0</ele><time>2026-04-26T09:28:39.82Z</time></trkpt><trkpt lat="42.6853889" lon="11.9066118"><ele>495.0</ele><time>2026-04-26T09:28:40.82Z</time></trkpt><trkpt lat="42.6853004" lon="11.9066695"><ele>495.0</ele><time>2026-04-26T09:28:41.82Z</time></trkpt><trkpt lat="42.6852166" lon="11.9067173"><ele>495.0</ele><time>2026-04-26T09:28:42.82Z</time></trkpt><trkpt lat="42.6851277" lon="11.9067621"><ele>495.0</ele><time>2026-04-26T09:28:43.819Z</time></trkpt><trkpt lat="42.6850452" lon="11.906814"><ele>495.0</ele><time>2026-04-26T09:28:44.82Z</time></trkpt><trkpt lat="42.6849597" lon="11.9068699"><ele>494.8</ele><time>2026-04-26T09:28:45.82Z</time></trkpt><trkpt lat="42.6848731" lon="11.9069372"><ele>494.6</ele><time>2026-04-26T09:28:46.82Z</time></trkpt><trkpt lat="42.6847848" lon="11.9070087"><ele>494.4</ele><time>2026-04-26T09:28:47.82Z</time></trkpt><trkpt lat="42.6846897" lon="11.9070793"><ele>494.2</ele><time>2026-04-26T09:28:48.819Z</time></trkpt><trkpt lat="42.6845934" lon="11.9071522"><ele>494.0</ele><time>2026-04-26T09:28:49.819Z</time></trkpt><trkpt lat="42.6845002" lon="11.9072317"><ele>491.75</ele><time>2026-04-26T09:28:50.819Z</time></trkpt><trkpt lat="42.6844069" lon="11.907323"><ele>489.5</ele><time>2026-04-26T09:28:51.819Z</time></trkpt><trkpt lat="42.6843172" lon="11.9074317"><ele>487.25</ele><time>2026-04-26T09:28:52.819Z</time></trkpt><trkpt lat="42.6842395" lon="11.9075524"><ele>485.0</ele><time>2026-04-26T09:28:53.82Z</time></trkpt><trkpt lat="42.6841711" lon="11.9076867"><ele>484.5</ele><time>2026-04-26T09:28:54.82Z</time></trkpt><trkpt lat="42.684113" lon="11.9078321"><ele>484.0</ele><time>2026-04-26T09:28:55.819Z</time></trkpt><trkpt lat="42.684076" lon="11.90799"><ele>483.5</ele><time>2026-04-26T09:28:56.82Z</time></trkpt><trkpt lat="42.6840562" lon="11.9081479"><ele>483.0</ele><time>2026-04-26T09:28:57.82Z</time></trkpt><trkpt lat="42.6840525" lon="11.9083022"><ele>481.0</ele><time>2026-04-26T09:28:58.82Z</time></trkpt><trkpt lat="42.6840644" lon="11.9084653"><ele>479.0</ele><time>2026-04-26T09:28:59.82Z</time></trkpt><trkpt lat="42.6840826" lon="11.9086185"><ele>477.0</ele><time>2026-04-26T09:29:00.82Z</time></trkpt><trkpt lat="42.6841136" lon="11.9087706"><ele>475.0</ele><time>2026-04-26T09:29:01.82Z</time></trkpt><trkpt lat="42.6841615" lon="11.9089157"><ele>475.0</ele><time>2026-04-26T09:29:02.82Z</time></trkpt><trkpt lat="42.6842164" lon="11.909062"><ele>475.0</ele><time>2026-04-26T09:29:03.82Z</time></trkpt><trkpt lat="42.6842715" lon="11.9092177"><ele>475.0</ele><time>2026-04-26T09:29:04.819Z</time></trkpt><trkpt lat="42.684322" lon="11.9093731"><ele>475.0</ele><time>2026-04-26T09:29:05.82Z</time></trkpt><trkpt lat="42.684369" lon="11.9095284"><ele>473.25</ele><time>2026-04-26T09:29:06.819Z</time></trkpt><trkpt lat="42.6844208" lon="11.9096881"><ele>471.5</ele><time>2026-04-26T09:29:07.819Z</time></trkpt><trkpt lat="42.684463" lon="11.9098512"><ele>469.75</ele><time>2026-04-26T09:29:08.82Z</time></trkpt><trkpt lat="42.6845025" lon="11.910027"><ele>468.0</ele><time>2026-04-26T09:29:09.82Z</time></trkpt><trkpt lat="42.6845409" lon="11.9102067"><ele>472.5</ele><time>2026-04-26T09:29:10.819Z</time></trkpt><trkpt lat="42.6845687" lon="11.9103844"><ele>477.0</ele><time>2026-04-26T09:29:11.82Z</time></trkpt><trkpt lat="42.6845822" lon="11.9105629"><ele>481.5</ele><time>2026-04-26T09:29:12.82Z</time></trkpt><trkpt lat="42.6845938" lon="11.9107412"><ele>486.0</ele><time>2026-04-26T09:29:13.82Z</time></trkpt><trkpt lat="42.6845976" lon="11.9109251"><ele>486.0</ele><time>2026-04-26T09:29:14.82Z</time></trkpt><trkpt lat="42.6845953" lon="11.9111059"><ele>486.0</ele><time>2026-04-26T09:29:15.819Z</time></trkpt><trkpt lat="42.6845899" lon="11.9112917"><ele>486.0</ele><time>2026-04-26T09:29:16.82Z</time></trkpt><trkpt lat="42.6845975" lon="11.9114821"><ele>486.0</ele><time>2026-04-26T09:29:17.82Z</time></trkpt><trkpt lat="42.6846133" lon="11.9116808"><ele>485.0</ele><time>2026-04-26T09:29:18.82Z</time></trkpt><trkpt lat="42.6846285" lon="11.9118865"><ele>484.0</ele><time>2026-04-26T09:29:19.819Z</time></trkpt><trkpt lat="42.6846528" lon="11.9120908"><ele>483.0</ele><time>2026-04-26T09:29:20.819Z</time></trkpt><trkpt lat="42.6846818" lon="11.9122883"><ele>483.0</ele><time>2026-04-26T09:29:21.819Z</time></trkpt><trkpt lat="42.6847109" lon="11.9124843"><ele>483.0</ele><time>2026-04-26T09:29:22.819Z</time></trkpt><trkpt lat="42.6847491" lon="11.9126891"><ele>483.0</ele><time>2026-04-26T09:29:23.82Z</time></trkpt><trkpt lat="42.6847836" lon="11.9128975"><ele>481.33333333333337</ele><time>2026-04-26T09:29:24.82Z</time></trkpt><trkpt lat="42.6848215" lon="11.9131087"><ele>479.6666666666667</ele><time>2026-04-26T09:29:25.819Z</time></trkpt><trkpt lat="42.6848574" lon="11.9133138"><ele>478.0</ele><time>2026-04-26T09:29:26.82Z</time></trkpt><trkpt lat="42.6848919" lon="11.9135199"><ele>475.6666666666667</ele><time>2026-04-26T09:29:27.819Z</time></trkpt><trkpt lat="42.6849263" lon="11.9137185"><ele>473.33333333333337</ele><time>2026-04-26T09:29:28.82Z</time></trkpt><trkpt lat="42.6849483" lon="11.9139202"><ele>471.0</ele><time>2026-04-26T09:29:29.82Z</time></trkpt><trkpt lat="42.6849639" lon="11.9141258"><ele>468.66666666666663</ele><time>2026-04-26T09:29:30.82Z</time></trkpt><trkpt lat="42.6849598" lon="11.9143273"><ele>466.3333333333333</ele><time>2026-04-26T09:29:31.82Z</time></trkpt><trkpt lat="42.6849161" lon="11.9145294"><ele>464.0</ele><time>2026-04-26T09:29:32.82Z</time></trkpt><trkpt lat="42.6848684" lon="11.9147386"><ele>464.0</ele><time>2026-04-26T09:29:33.819Z</time></trkpt><trkpt lat="42.6847989" lon="11.9149376"><ele>464.0</ele><time>2026-04-26T09:29:34.82Z</time></trkpt><trkpt lat="42.6846992" lon="11.9151276"><ele>464.0</ele><time>2026-04-26T09:29:35.82Z</time></trkpt><trkpt lat="42.6845808" lon="11.9152991"><ele>464.66666666666663</ele><time>2026-04-26T09:29:36.82Z</time></trkpt><trkpt lat="42.6844656" lon="11.9154716"><ele>465.33333333333337</ele><time>2026-04-26T09:29:37.82Z</time></trkpt><trkpt lat="42.6843497" lon="11.9156476"><ele>466.0</ele><time>2026-04-26T09:29:38.82Z</time></trkpt><trkpt lat="42.6842348" lon="11.9158237"><ele>460.33333333333337</ele><time>2026-04-26T09:29:39.82Z</time></trkpt><trkpt lat="42.6841203" lon="11.9160051"><ele>454.66666666666663</ele><time>2026-04-26T09:29:40.82Z</time></trkpt><trkpt lat="42.6840041" lon="11.9161874"><ele>449.0</ele><time>2026-04-26T09:29:41.82Z</time></trkpt><trkpt lat="42.6838929" lon="11.9163647"><ele>449.0</ele><time>2026-04-26T09:29:42.82Z</time></trkpt><trkpt lat="42.6837843" lon="11.9165273"><ele>449.0</ele><time>2026-04-26T09:29:43.82Z</time></trkpt><trkpt lat="42.6836756" lon="11.9166766"><ele>449.0</ele><time>2026-04-26T09:29:44.82Z</time></trkpt><trkpt lat="42.6835629" lon="11.9168077"><ele>448.0</ele><time>2026-04-26T09:29:45.82Z</time></trkpt><trkpt lat="42.6834394" lon="11.9168921"><ele>447.0</ele><time>2026-04-26T09:29:46.82Z</time></trkpt><trkpt lat="42.6832977" lon="11.9169465"><ele>446.0</ele><time>2026-04-26T09:29:47.819Z</time></trkpt><trkpt lat="42.6831482" lon="11.9169309"><ele>445.0</ele><time>2026-04-26T09:29:48.82Z</time></trkpt><trkpt lat="42.6829886" lon="11.916882"><ele>445.0</ele><time>2026-04-26T09:29:49.82Z</time></trkpt><trkpt lat="42.6828292" lon="11.9168179"><ele>445.0</ele><time>2026-04-26T09:29:50.819Z</time></trkpt><trkpt lat="42.6826737" lon="11.9167367"><ele>445.0</ele><time>2026-04-26T09:29:51.82Z</time></trkpt><trkpt lat="42.6825135" lon="11.9166351"><ele>444.33333333333337</ele><time>2026-04-26T09:29:52.82Z</time></trkpt><trkpt lat="42.682348" lon="11.9165365"><ele>443.66666666666663</ele><time>2026-04-26T09:29:53.82Z</time></trkpt><trkpt lat="42.6821801" lon="11.9164286"><ele>443.0</ele><time>2026-04-26T09:29:54.819Z</time></trkpt><trkpt lat="42.6820118" lon="11.9163243"><ele>443.0</ele><time>2026-04-26T09:29:55.82Z</time></trkpt><trkpt lat="42.6818311" lon="11.9162328"><ele>443.0</ele><time>2026-04-26T09:29:56.82Z</time></trkpt><trkpt lat="42.6816451" lon="11.9161704"><ele>443.0</ele><time>2026-04-26T09:29:57.82Z</time></trkpt><trkpt lat="42.6814544" lon="11.9161385"><ele>443.0</ele><time>2026-04-26T09:29:58.82Z</time></trkpt><trkpt lat="42.6812568" lon="11.9161523"><ele>443.0</ele><time>2026-04-26T09:29:59.82Z</time></trkpt><trkpt lat="42.6810723" lon="11.9162059"><ele>443.0</ele><time>2026-04-26T09:30:00.819Z</time></trkpt><trkpt lat="42.6808962" lon="11.9162953"><ele>440.66666666666663</ele><time>2026-04-26T09:30:01.82Z</time></trkpt><trkpt lat="42.6807383" lon="11.9164333"><ele>438.33333333333337</ele><time>2026-04-26T09:30:02.82Z</time></trkpt><trkpt lat="42.680589" lon="11.9166094"><ele>436.0</ele><time>2026-04-26T09:30:03.82Z</time></trkpt><trkpt lat="42.6804512" lon="11.9167936"><ele>436.0</ele><time>2026-04-26T09:30:04.82Z</time></trkpt><trkpt lat="42.6803368" lon="11.9170049"><ele>436.0</ele><time>2026-04-26T09:30:05.819Z</time></trkpt><trkpt lat="42.6802309" lon="11.9172326"><ele>436.0</ele><time>2026-04-26T09:30:06.82Z</time></trkpt><trkpt lat="42.6801103" lon="11.9174556"><ele>432.6666666666667</ele><time>2026-04-26T09:30:07.819Z</time></trkpt><trkpt lat="42.6799826" lon="11.917676"><ele>429.33333333333337</ele><time>2026-04-26T09:30:08.82Z</time></trkpt><trkpt lat="42.6798281" lon="11.9178569"><ele>426.0</ele><time>2026-04-26T09:30:09.82Z</time></trkpt><trkpt lat="42.6796739" lon="11.9180174"><ele>426.0</ele><time>2026-04-26T09:30:10.82Z</time></trkpt><trkpt lat="42.6795125" lon="11.9181484"><ele>426.0</ele><time>2026-04-26T09:30:11.82Z</time></trkpt><trkpt lat="42.6793336" lon="11.9182647"><ele>426.0</ele><time>2026-04-26T09:30:12.82Z</time></trkpt><trkpt lat="42.679147" lon="11.9183518"><ele>422.33333333333337</ele><time>2026-04-26T09:30:13.82Z</time></trkpt><trkpt lat="42.6789568" lon="11.9184075"><ele>418.6666666666667</ele><time>2026-04-26T09:30:14.819Z</time></trkpt><trkpt lat="42.6787602" lon="11.9184616"><ele>415.0</ele><time>2026-04-26T09:30:15.82Z</time></trkpt><trkpt lat="42.6785585" lon="11.9184984"><ele>412.33333333333337</ele><time>2026-04-26T09:30:16.82Z</time></trkpt><trkpt lat="42.6783515" lon="11.9185153"><ele>409.66666666666663</ele><time>2026-04-26T09:30:17.819Z</time></trkpt><trkpt lat="42.6781449" lon="11.9185255"><ele>407.0</ele><time>2026-04-26T09:30:18.82Z</time></trkpt><trkpt lat="42.6779348" lon="11.9185328"><ele>405.3333333333333</ele><time>2026-04-26T09:30:19.819Z</time></trkpt><trkpt lat="42.677722" lon="11.9185389"><ele>403.66666666666663</ele><time>2026-04-26T09:30:20.819Z</time></trkpt><trkpt lat="42.6775084" lon="11.9185486"><ele>402.0</ele><time>2026-04-26T09:30:21.82Z</time></trkpt><trkpt lat="42.6772932" lon="11.9185559"><ele>402.0</ele><time>2026-04-26T09:30:22.82Z</time></trkpt><trkpt lat="42.6770741" lon="11.9185589"><ele>402.0</ele><time>2026-04-26T09:30:23.82Z</time></trkpt><trkpt lat="42.67685" lon="11.9185708"><ele>402.0</ele><time>2026-04-26T09:30:24.819Z</time></trkpt><trkpt lat="42.6766282" lon="11.9185788"><ele>401.0</ele><time>2026-04-26T09:30:25.82Z</time></trkpt><trkpt lat="42.6764039" lon="11.9185808"><ele>400.0</ele><time>2026-04-26T09:30:26.82Z</time></trkpt><trkpt lat="42.6761848" lon="11.9185868"><ele>399.0</ele><time>2026-04-26T09:30:27.82Z</time></trkpt><trkpt lat="42.6759727" lon="11.9185942"><ele>397.33333333333337</ele><time>2026-04-26T09:30:28.819Z</time></trkpt><trkpt lat="42.6757649" lon="11.9185994"><ele>395.6666666666667</ele><time>2026-04-26T09:30:29.82Z</time></trkpt><trkpt lat="42.6755652" lon="11.9186061"><ele>394.0</ele><time>2026-04-26T09:30:30.82Z</time></trkpt><trkpt lat="42.6753709" lon="11.9186118"><ele>392.33333333333337</ele><time>2026-04-26T09:30:31.82Z</time></trkpt><trkpt lat="42.6751846" lon="11.9186108"><ele>390.66666666666663</ele><time>2026-04-26T09:30:32.819Z</time></trkpt><trkpt lat="42.6749995" lon="11.9186139"><ele>389.0</ele><time>2026-04-26T09:30:33.819Z</time></trkpt><trkpt lat="42.6748157" lon="11.9186209"><ele>389.0</ele><time>2026-04-26T09:30:34.82Z</time></trkpt><trkpt lat="42.6746331" lon="11.9186259"><ele>389.0</ele><time>2026-04-26T09:30:35.819Z</time></trkpt><trkpt lat="42.6744561" lon="11.9186229"><ele>389.0</ele><time>2026-04-26T09:30:36.82Z</time></trkpt><trkpt lat="42.6742907" lon="11.9186304"><ele>387.3333333333333</ele><time>2026-04-26T09:30:37.819Z</time></trkpt><trkpt lat="42.67413" lon="11.9186358"><ele>385.66666666666663</ele><time>2026-04-26T09:30:38.82Z</time></trkpt><trkpt lat="42.6739732" lon="11.9186366"><ele>384.0</ele><time>2026-04-26T09:30:39.819Z</time></trkpt><trkpt lat="42.6738172" lon="11.9186417"><ele>384.0</ele><time>2026-04-26T09:30:40.82Z</time></trkpt><trkpt lat="42.6736582" lon="11.918654"><ele>384.0</ele><time>2026-04-26T09:30:41.82Z</time></trkpt><trkpt lat="42.6734989" lon="11.9186668"><ele>384.0</ele><time>2026-04-26T09:30:42.82Z</time></trkpt><trkpt lat="42.6733331" lon="11.9186744"><ele>382.0</ele><time>2026-04-26T09:30:43.82Z</time></trkpt><trkpt lat="42.6731693" lon="11.9186758"><ele>380.0</ele><time>2026-04-26T09:30:44.82Z</time></trkpt><trkpt lat="42.6730017" lon="11.9186802"><ele>378.0</ele><time>2026-04-26T09:30:45.82Z</time></trkpt><trkpt lat="42.6728264" lon="11.9186906"><ele>377.0</ele><time>2026-04-26T09:30:46.82Z</time></trkpt><trkpt lat="42.6726506" lon="11.9186988"><ele>376.0</ele><time>2026-04-26T09:30:47.82Z</time></trkpt><trkpt lat="42.6724684" lon="11.9187061"><ele>375.0</ele><time>2026-04-26T09:30:48.82Z</time></trkpt><trkpt lat="42.6722877" lon="11.918716"><ele>375.0</ele><time>2026-04-26T09:30:49.82Z</time></trkpt><trkpt lat="42.6721051" lon="11.918729"><ele>375.0</ele><time>2026-04-26T09:30:50.82Z</time></trkpt><trkpt lat="42.6719152" lon="11.9187304"><ele>375.0</ele><time>2026-04-26T09:30:51.82Z</time></trkpt><trkpt lat="42.6717231" lon="11.918732"><ele>376.6666666666667</ele><time>2026-04-26T09:30:52.82Z</time></trkpt><trkpt lat="42.6715358" lon="11.9187294"><ele>378.33333333333337</ele><time>2026-04-26T09:30:53.819Z</time></trkpt><trkpt lat="42.671351" lon="11.9187287"><ele>380.0</ele><time>2026-04-26T09:30:54.82Z</time></trkpt><trkpt lat="42.6711642" lon="11.9187177"><ele>380.6666666666667</ele><time>2026-04-26T09:30:55.819Z</time></trkpt><trkpt lat="42.6709821" lon="11.9186817"><ele>381.3333333333333</ele><time>2026-04-26T09:30:56.82Z</time></trkpt><trkpt lat="42.6708074" lon="11.918627"><ele>382.0</ele><time>2026-04-26T09:30:57.819Z</time></trkpt><trkpt lat="42.6706376" lon="11.9185564"><ele>382.0</ele><time>2026-04-26T09:30:58.82Z</time></trkpt><trkpt lat="42.6704702" lon="11.9184694"><ele>382.0</ele><time>2026-04-26T09:30:59.82Z</time></trkpt><trkpt lat="42.6703088" lon="11.9183713"><ele>382.0</ele><time>2026-04-26T09:31:00.82Z</time></trkpt><trkpt lat="42.6701518" lon="11.9182434"><ele>380.3333333333333</ele><time>2026-04-26T09:31:01.82Z</time></trkpt><trkpt lat="42.6700032" lon="11.9181088"><ele>378.6666666666667</ele><time>2026-04-26T09:31:02.82Z</time></trkpt><trkpt lat="42.6698657" lon="11.9179611"><ele>377.0</ele><time>2026-04-26T09:31:03.819Z</time></trkpt><trkpt lat="42.6697361" lon="11.9178033"><ele>377.0</ele><time>2026-04-26T09:31:04.82Z</time></trkpt><trkpt lat="42.6696179" lon="11.9176346"><ele>377.0</ele><time>2026-04-26T09:31:05.82Z</time></trkpt><trkpt lat="42.6695063" lon="11.9174546"><ele>377.0</ele><time>2026-04-26T09:31:06.82Z</time></trkpt><trkpt lat="42.6694037" lon="11.917263"><ele>376.0</ele><time>2026-04-26T09:31:07.819Z</time></trkpt><trkpt lat="42.6693102" lon="11.9170666"><ele>375.0</ele><time>2026-04-26T09:31:08.819Z</time></trkpt><trkpt lat="42.6692253" lon="11.9168533"><ele>374.0</ele><time>2026-04-26T09:31:09.82Z</time></trkpt><trkpt lat="42.6691564" lon="11.9166366"><ele>373.6666666666667</ele><time>2026-04-26T09:31:10.82Z</time></trkpt><trkpt lat="42.6691013" lon="11.9164073"><ele>373.3333333333333</ele><time>2026-04-26T09:31:11.82Z</time></trkpt><trkpt lat="42.669056" lon="11.9161774"><ele>373.0</ele><time>2026-04-26T09:31:12.819Z</time></trkpt><trkpt lat="42.6690096" lon="11.9159518"><ele>373.0</ele><time>2026-04-26T09:31:13.82Z</time></trkpt><trkpt lat="42.6689617" lon="11.9157346"><ele>373.0</ele><time>2026-04-26T09:31:14.82Z</time></trkpt><trkpt lat="42.6689268" lon="11.9155352"><ele>373.0</ele><time>2026-04-26T09:31:15.82Z</time></trkpt><trkpt lat="42.6688964" lon="11.9153378"><ele>373.0</ele><time>2026-04-26T09:31:16.819Z</time></trkpt><trkpt lat="42.6688921" lon="11.9151315"><ele>373.0</ele><time>2026-04-26T09:31:17.82Z</time></trkpt><trkpt lat="42.6689067" lon="11.9149239"><ele>373.0</ele><time>2026-04-26T09:31:18.82Z</time></trkpt><trkpt lat="42.6689361" lon="11.9147116"><ele>371.0</ele><time>2026-04-26T09:31:19.819Z</time></trkpt><trkpt lat="42.668976" lon="11.9144936"><ele>369.0</ele><time>2026-04-26T09:31:20.82Z</time></trkpt><trkpt lat="42.6690159" lon="11.9142717"><ele>367.0</ele><time>2026-04-26T09:31:21.819Z</time></trkpt><trkpt lat="42.6690553" lon="11.9140373"><ele>366.3333333333333</ele><time>2026-04-26T09:31:22.82Z</time></trkpt><trkpt lat="42.6690897" lon="11.9138066"><ele>365.6666666666667</ele><time>2026-04-26T09:31:23.819Z</time></trkpt><trkpt lat="42.6691137" lon="11.9135747"><ele>365.0</ele><time>2026-04-26T09:31:24.82Z</time></trkpt><trkpt lat="42.6691159" lon="11.9133392"><ele>363.6666666666667</ele><time>2026-04-26T09:31:25.82Z</time></trkpt><trkpt lat="42.6690941" lon="11.9130867"><ele>362.3333333333333</ele><time>2026-04-26T09:31:26.82Z</time></trkpt><trkpt lat="42.6690708" lon="11.9128576"><ele>361.0</ele><time>2026-04-26T09:31:27.82Z</time></trkpt><trkpt lat="42.6690399" lon="11.9126208"><ele>359.0</ele><time>2026-04-26T09:31:28.82Z</time></trkpt><trkpt lat="42.6690061" lon="11.9123807"><ele>357.0</ele><time>2026-04-26T09:31:29.82Z</time></trkpt><trkpt lat="42.6689629" lon="11.9121409"><ele>355.0</ele><time>2026-04-26T09:31:30.82Z</time></trkpt><trkpt lat="42.66891" lon="11.91191"><ele>352.3333333333333</ele><time>2026-04-26T09:31:31.82Z</time></trkpt><trkpt lat="42.668832" lon="11.9116922"><ele>349.6666666666667</ele><time>2026-04-26T09:31:32.82Z</time></trkpt><trkpt lat="42.6687437" lon="11.9114955"><ele>347.0</ele><time>2026-04-26T09:31:33.82Z</time></trkpt><trkpt lat="42.6686538" lon="11.9112874"><ele>350.6666666666667</ele><time>2026-04-26T09:31:34.819Z</time></trkpt><trkpt lat="42.6685672" lon="11.911073"><ele>354.3333333333333</ele><time>2026-04-26T09:31:35.82Z</time></trkpt><trkpt lat="42.6684934" lon="11.9108523"><ele>358.0</ele><time>2026-04-26T09:31:36.819Z</time></trkpt><trkpt lat="42.6684342" lon="11.9106277"><ele>358.0</ele><time>2026-04-26T09:31:37.82Z</time></trkpt><trkpt lat="42.6683885" lon="11.9103936"><ele>358.0</ele><time>2026-04-26T09:31:38.82Z</time></trkpt><trkpt lat="42.668357" lon="11.9101601"><ele>358.0</ele><time>2026-04-26T09:31:39.82Z</time></trkpt><trkpt lat="42.6683334" lon="11.9099385"><ele>356.0</ele><time>2026-04-26T09:31:40.82Z</time></trkpt><trkpt lat="42.6683045" lon="11.9097267"><ele>354.0</ele><time>2026-04-26T09:31:41.82Z</time></trkpt><trkpt lat="42.6682556" lon="11.9095204"><ele>352.0</ele><time>2026-04-26T09:31:42.819Z</time></trkpt><trkpt lat="42.6681837" lon="11.9093275"><ele>347.3333333333333</ele><time>2026-04-26T09:31:43.82Z</time></trkpt><trkpt lat="42.6680784" lon="11.9091605"><ele>342.6666666666667</ele><time>2026-04-26T09:31:44.819Z</time></trkpt><trkpt lat="42.6679566" lon="11.9090089"><ele>338.0</ele><time>2026-04-26T09:31:45.819Z</time></trkpt><trkpt lat="42.667817" lon="11.9088908"><ele>342.33333333333337</ele><time>2026-04-26T09:31:46.82Z</time></trkpt><trkpt lat="42.6676553" lon="11.9088168"><ele>346.6666666666667</ele><time>2026-04-26T09:31:47.82Z</time></trkpt><trkpt lat="42.6674822" lon="11.9087879"><ele>351.0</ele><time>2026-04-26T09:31:48.82Z</time></trkpt><trkpt lat="42.6673" lon="11.9087737"><ele>351.0</ele><time>2026-04-26T09:31:49.82Z</time></trkpt><trkpt lat="42.6671159" lon="11.9087579"><ele>351.0</ele><time>2026-04-26T09:31:50.82Z</time></trkpt><trkpt lat="42.6669336" lon="11.9087496"><ele>351.0</ele><time>2026-04-26T09:31:51.82Z</time></trkpt><trkpt lat="42.6667465" lon="11.9087427"><ele>351.3333333333333</ele><time>2026-04-26T09:31:52.819Z</time></trkpt><trkpt lat="42.6665614" lon="11.9087432"><ele>351.66666666666663</ele><time>2026-04-26T09:31:53.82Z</time></trkpt><trkpt lat="42.6663778" lon="11.9087374"><ele>352.0</ele><time>2026-04-26T09:31:54.819Z</time></trkpt><trkpt lat="42.6661946" lon="11.9087387"><ele>351.66666666666663</ele><time>2026-04-26T09:31:55.819Z</time></trkpt><trkpt lat="42.6660121" lon="11.9087297"><ele>351.3333333333333</ele><time>2026-04-26T09:31:56.82Z</time></trkpt><trkpt lat="42.6658443" lon="11.9087144"><ele>351.0</ele><time>2026-04-26T09:31:57.819Z</time></trkpt><trkpt lat="42.6656851" lon="11.9086756"><ele>351.0</ele><time>2026-04-26T09:31:58.82Z</time></trkpt><trkpt lat="42.6655276" lon="11.9086274"><ele>351.0</ele><time>2026-04-26T09:31:59.819Z</time></trkpt><trkpt lat="42.6653836" lon="11.9085731"><ele>351.0</ele><time>2026-04-26T09:32:00.819Z</time></trkpt><trkpt lat="42.6652374" lon="11.9085286"><ele>349.75</ele><time>2026-04-26T09:32:01.82Z</time></trkpt><trkpt lat="42.6650947" lon="11.9084977"><ele>348.5</ele><time>2026-04-26T09:32:02.82Z</time></trkpt><trkpt lat="42.6649597" lon="11.9084718"><ele>347.25</ele><time>2026-04-26T09:32:03.82Z</time></trkpt><trkpt lat="42.6648219" lon="11.9084718"><ele>346.0</ele><time>2026-04-26T09:32:04.82Z</time></trkpt><trkpt lat="42.6646929" lon="11.9084809"><ele>346.0</ele><time>2026-04-26T09:32:05.82Z</time></trkpt><trkpt lat="42.6645639" lon="11.9085062"><ele>346.0</ele><time>2026-04-26T09:32:06.82Z</time></trkpt><trkpt lat="42.6644437" lon="11.9085313"><ele>346.0</ele><time>2026-04-26T09:32:07.819Z</time></trkpt><trkpt lat="42.664329" lon="11.9085837"><ele>346.0</ele><time>2026-04-26T09:32:08.82Z</time></trkpt><trkpt lat="42.6642078" lon="11.9086227"><ele>343.8</ele><time>2026-04-26T09:32:09.82Z</time></trkpt><trkpt lat="42.6641033" lon="11.9086618"><ele>341.6</ele><time>2026-04-26T09:32:10.82Z</time></trkpt><trkpt lat="42.6640022" lon="11.9087007"><ele>339.4</ele><time>2026-04-26T09:32:11.82Z</time></trkpt><trkpt lat="42.6639063" lon="11.9087453"><ele>337.2</ele><time>2026-04-26T09:32:12.819Z</time></trkpt><trkpt lat="42.663806" lon="11.9087774"><ele>335.0</ele><time>2026-04-26T09:32:13.82Z</time></trkpt><trkpt lat="42.6637132" lon="11.9087981"><ele>334.6</ele><time>2026-04-26T09:32:14.819Z</time></trkpt><trkpt lat="42.6636105" lon="11.9088116"><ele>334.2</ele><time>2026-04-26T09:32:15.819Z</time></trkpt><trkpt lat="42.6635324" lon="11.9088344"><ele>333.79999999999995</ele><time>2026-04-26T09:32:16.819Z</time></trkpt><trkpt lat="42.6634433" lon="11.9088465"><ele>333.4</ele><time>2026-04-26T09:32:17.82Z</time></trkpt><trkpt lat="42.6633445" lon="11.9088514"><ele>333.0</ele><time>2026-04-26T09:32:18.82Z</time></trkpt><trkpt lat="42.6632299" lon="11.9088302"><ele>333.0</ele><time>2026-04-26T09:32:19.819Z</time></trkpt><trkpt lat="42.6631155" lon="11.9087918"><ele>333.0</ele><time>2026-04-26T09:32:20.82Z</time></trkpt><trkpt lat="42.6630041" lon="11.9087652"><ele>333.0</ele><time>2026-04-26T09:32:21.82Z</time></trkpt><trkpt lat="42.6628788" lon="11.9087345"><ele>333.0</ele><time>2026-04-26T09:32:22.82Z</time></trkpt><trkpt lat="42.6627523" lon="11.908702"><ele>332.25</ele><time>2026-04-26T09:32:23.82Z</time></trkpt><trkpt lat="42.6626221" lon="11.9086678"><ele>331.5</ele><time>2026-04-26T09:32:24.82Z</time></trkpt><trkpt lat="42.6624799" lon="11.9086433"><ele>330.75</ele><time>2026-04-26T09:32:25.82Z</time></trkpt><trkpt lat="42.6623275" lon="11.9086244"><ele>330.0</ele><time>2026-04-26T09:32:26.82Z</time></trkpt><trkpt lat="42.6621637" lon="11.9086139"><ele>330.0</ele><time>2026-04-26T09:32:27.819Z</time></trkpt><trkpt lat="42.6620079" lon="11.9085863"><ele>330.0</ele><time>2026-04-26T09:32:28.82Z</time></trkpt><trkpt lat="42.661868" lon="11.9085467"><ele>330.0</ele><time>2026-04-26T09:32:29.82Z</time></trkpt><trkpt lat="42.6617391" lon="11.9085177"><ele>330.0</ele><time>2026-04-26T09:32:30.819Z</time></trkpt><trkpt lat="42.6616208" lon="11.9085042"><ele>329.0</ele><time>2026-04-26T09:32:31.82Z</time></trkpt><trkpt lat="42.6615051" lon="11.9085034"><ele>328.0</ele><time>2026-04-26T09:32:32.82Z</time></trkpt><trkpt lat="42.6613828" lon="11.9085242"><ele>327.0</ele><time>2026-04-26T09:32:33.82Z</time></trkpt><trkpt lat="42.6612429" lon="11.908565"><ele>326.0</ele><time>2026-04-26T09:32:34.82Z</time></trkpt><trkpt lat="42.6610898" lon="11.9086411"><ele>324.33333333333337</ele><time>2026-04-26T09:32:35.819Z</time></trkpt><trkpt lat="42.6609201" lon="11.9087182"><ele>322.6666666666667</ele><time>2026-04-26T09:32:36.82Z</time></trkpt><trkpt lat="42.6607436" lon="11.9087875"><ele>321.0</ele><time>2026-04-26T09:32:37.819Z</time></trkpt><trkpt lat="42.6605584" lon="11.908858"><ele>321.0</ele><time>2026-04-26T09:32:38.819Z</time></trkpt><trkpt lat="42.6603746" lon="11.9089332"><ele>321.0</ele><time>2026-04-26T09:32:39.82Z</time></trkpt><trkpt lat="42.6601978" lon="11.9090074"><ele>321.0</ele><time>2026-04-26T09:32:40.82Z</time></trkpt><trkpt lat="42.6600329" lon="11.9090764"><ele>320.3333333333333</ele><time>2026-04-26T09:32:41.82Z</time></trkpt><trkpt lat="42.6598834" lon="11.9091339"><ele>319.66666666666663</ele><time>2026-04-26T09:32:42.82Z</time></trkpt><trkpt lat="42.6597382" lon="11.9092027"><ele>319.0</ele><time>2026-04-26T09:32:43.82Z</time></trkpt><trkpt lat="42.659599" lon="11.9092625"><ele>319.0</ele><time>2026-04-26T09:32:44.819Z</time></trkpt><trkpt lat="42.6594654" lon="11.9093177"><ele>319.0</ele><time>2026-04-26T09:32:45.82Z</time></trkpt><trkpt lat="42.6593321" lon="11.9093723"><ele>319.0</ele><time>2026-04-26T09:32:46.819Z</time></trkpt><trkpt lat="42.6592062" lon="11.9094304"><ele>319.0</ele><time>2026-04-26T09:32:47.82Z</time></trkpt><trkpt lat="42.6590818" lon="11.9095026"><ele>317.75</ele><time>2026-04-26T09:32:48.82Z</time></trkpt><trkpt lat="42.6589658" lon="11.9095883"><ele>316.5</ele><time>2026-04-26T09:32:49.82Z</time></trkpt><trkpt lat="42.6588672" lon="11.9097031"><ele>315.25</ele><time>2026-04-26T09:32:50.82Z</time></trkpt><trkpt lat="42.6587868" lon="11.9098556"><ele>314.0</ele><time>2026-04-26T09:32:51.82Z</time></trkpt><trkpt lat="42.6587042" lon="11.9100131"><ele>313.75</ele><time>2026-04-26T09:32:52.82Z</time></trkpt><trkpt lat="42.6586234" lon="11.9101683"><ele>313.5</ele><time>2026-04-26T09:32:53.82Z</time></trkpt><trkpt lat="42.6585335" lon="11.9103175"><ele>313.25</ele><time>2026-04-26T09:32:54.82Z</time></trkpt><trkpt lat="42.6584347" lon="11.9104589"><ele>313.0</ele><time>2026-04-26T09:32:55.819Z</time></trkpt><trkpt lat="42.6583287" lon="11.9106029"><ele>313.0</ele><time>2026-04-26T09:32:56.82Z</time></trkpt><trkpt lat="42.6582352" lon="11.910757"><ele>313.0</ele><time>2026-04-26T09:32:57.819Z</time></trkpt><trkpt lat="42.6581481" lon="11.910896"><ele>313.0</ele><time>2026-04-26T09:32:58.82Z</time></trkpt><trkpt lat="42.6580745" lon="11.9110299"><ele>313.0</ele><time>2026-04-26T09:32:59.82Z</time></trkpt><trkpt lat="42.6580179" lon="11.9111628"><ele>313.5</ele><time>2026-04-26T09:33:00.819Z</time></trkpt><trkpt lat="42.6579635" lon="11.9113008"><ele>314.0</ele><time>2026-04-26T09:33:01.82Z</time></trkpt><trkpt lat="42.6578986" lon="11.9114477"><ele>314.5</ele><time>2026-04-26T09:33:02.82Z</time></trkpt><trkpt lat="42.6578383" lon="11.9116271"><ele>315.0</ele><time>2026-04-26T09:33:03.82Z</time></trkpt><trkpt lat="42.6577736" lon="11.9118245"><ele>315.0</ele><time>2026-04-26T09:33:04.819Z</time></trkpt><trkpt lat="42.657692" lon="11.9120331"><ele>315.0</ele><time>2026-04-26T09:33:05.82Z</time></trkpt><trkpt lat="42.657592" lon="11.9122643"><ele>315.0</ele><time>2026-04-26T09:33:06.819Z</time></trkpt><trkpt lat="42.6574902" lon="11.9124765"><ele>315.6666666666667</ele><time>2026-04-26T09:33:07.82Z</time></trkpt><trkpt lat="42.6573832" lon="11.9127017"><ele>316.33333333333337</ele><time>2026-04-26T09:33:08.82Z</time></trkpt><trkpt lat="42.6572761" lon="11.9129204"><ele>317.0</ele><time>2026-04-26T09:33:09.82Z</time></trkpt><trkpt lat="42.6571659" lon="11.9131473"><ele>317.0</ele><time>2026-04-26T09:33:10.82Z</time></trkpt><trkpt lat="42.6570536" lon="11.9133779"><ele>317.0</ele><time>2026-04-26T09:33:11.819Z</time></trkpt><trkpt lat="42.6569399" lon="11.9136104"><ele>317.0</ele><time>2026-04-26T09:33:12.82Z</time></trkpt><trkpt lat="42.6568271" lon="11.9138433"><ele>316.0</ele><time>2026-04-26T09:33:13.82Z</time></trkpt><trkpt lat="42.656715" lon="11.9140716"><ele>315.0</ele><time>2026-04-26T09:33:14.82Z</time></trkpt><trkpt lat="42.656606" lon="11.9142977"><ele>314.0</ele><time>2026-04-26T09:33:15.82Z</time></trkpt><trkpt lat="42.6564915" lon="11.914542"><ele>314.0</ele><time>2026-04-26T09:33:16.82Z</time></trkpt><trkpt lat="42.6563892" lon="11.914799"><ele>314.0</ele><time>2026-04-26T09:33:17.82Z</time></trkpt><trkpt lat="42.6562982" lon="11.9150574"><ele>314.0</ele><time>2026-04-26T09:33:18.819Z</time></trkpt><trkpt lat="42.6562136" lon="11.9153261"><ele>314.0</ele><time>2026-04-26T09:33:19.82Z</time></trkpt><trkpt lat="42.6561332" lon="11.9155998"><ele>314.0</ele><time>2026-04-26T09:33:20.82Z</time></trkpt><trkpt lat="42.656056" lon="11.9158784"><ele>314.0</ele><time>2026-04-26T09:33:21.82Z</time></trkpt><trkpt lat="42.6559766" lon="11.9161585"><ele>312.6666666666667</ele><time>2026-04-26T09:33:22.819Z</time></trkpt><trkpt lat="42.6559002" lon="11.9164413"><ele>311.3333333333333</ele><time>2026-04-26T09:33:23.82Z</time></trkpt><trkpt lat="42.6558303" lon="11.9167257"><ele>310.0</ele><time>2026-04-26T09:33:24.82Z</time></trkpt><trkpt lat="42.655763" lon="11.9170143"><ele>310.0</ele><time>2026-04-26T09:33:25.819Z</time></trkpt><trkpt lat="42.6556992" lon="11.9173067"><ele>310.0</ele><time>2026-04-26T09:33:26.82Z</time></trkpt><trkpt lat="42.6556375" lon="11.9176031"><ele>310.0</ele><time>2026-04-26T09:33:27.82Z</time></trkpt><trkpt lat="42.655589" lon="11.9179013"><ele>310.0</ele><time>2026-04-26T09:33:28.82Z</time></trkpt><trkpt lat="42.6555469" lon="11.9181946"><ele>310.0</ele><time>2026-04-26T09:33:29.82Z</time></trkpt><trkpt lat="42.655516" lon="11.9184909"><ele>310.0</ele><time>2026-04-26T09:33:30.82Z</time></trkpt><trkpt lat="42.6555078" lon="11.9187882"><ele>310.0</ele><time>2026-04-26T09:33:31.82Z</time></trkpt><trkpt lat="42.6555229" lon="11.9190888"><ele>310.0</ele><time>2026-04-26T09:33:32.82Z</time></trkpt><trkpt lat="42.6555526" lon="11.9193893"><ele>309.5</ele><time>2026-04-26T09:33:33.82Z</time></trkpt><trkpt lat="42.6555824" lon="11.9196934"><ele>309.0</ele><time>2026-04-26T09:33:34.819Z</time></trkpt><trkpt lat="42.6556193" lon="11.9200016"><ele>308.5</ele><time>2026-04-26T09:33:35.82Z</time></trkpt><trkpt lat="42.6556611" lon="11.9203005"><ele>308.0</ele><time>2026-04-26T09:33:36.819Z</time></trkpt><trkpt lat="42.6557088" lon="11.9206016"><ele>309.0</ele><time>2026-04-26T09:33:37.82Z</time></trkpt><trkpt lat="42.6557551" lon="11.9209053"><ele>310.0</ele><time>2026-04-26T09:33:38.82Z</time></trkpt><trkpt lat="42.6558032" lon="11.921207"><ele>310.0</ele><time>2026-04-26T09:33:39.82Z</time></trkpt><trkpt lat="42.6558566" lon="11.9215082"><ele>310.0</ele><time>2026-04-26T09:33:40.82Z</time></trkpt><trkpt lat="42.6559144" lon="11.9218069"><ele>310.0</ele><time>2026-04-26T09:33:41.82Z</time></trkpt><trkpt lat="42.6559766" lon="11.9221039"><ele>310.0</ele><time>2026-04-26T09:33:42.82Z</time></trkpt><trkpt lat="42.656046" lon="11.922397"><ele>309.5</ele><time>2026-04-26T09:33:43.819Z</time></trkpt><trkpt lat="42.6561141" lon="11.9226904"><ele>309.0</ele><time>2026-04-26T09:33:44.82Z</time></trkpt><trkpt lat="42.6561799" lon="11.9229825"><ele>309.6666666666667</ele><time>2026-04-26T09:33:45.82Z</time></trkpt><trkpt lat="42.6562344" lon="11.9232772"><ele>310.33333333333337</ele><time>2026-04-26T09:33:46.82Z</time></trkpt><trkpt lat="42.656275" lon="11.9235741"><ele>311.0</ele><time>2026-04-26T09:33:47.82Z</time></trkpt><trkpt lat="42.6562941" lon="11.9238805"><ele>311.0</ele><time>2026-04-26T09:33:48.82Z</time></trkpt><trkpt lat="42.6562959" lon="11.924184"><ele>311.0</ele><time>2026-04-26T09:33:49.82Z</time></trkpt><trkpt lat="42.6562955" lon="11.9244894"><ele>311.0</ele><time>2026-04-26T09:33:50.819Z</time></trkpt><trkpt lat="42.6562887" lon="11.9247974"><ele>311.0</ele><time>2026-04-26T09:33:51.82Z</time></trkpt><trkpt lat="42.6562858" lon="11.9251058"><ele>311.0</ele><time>2026-04-26T09:33:52.82Z</time></trkpt><trkpt lat="42.6562949" lon="11.9254138"><ele>311.0</ele><time>2026-04-26T09:33:53.82Z</time></trkpt><trkpt lat="42.6563036" lon="11.9257217"><ele>311.0</ele><time>2026-04-26T09:33:54.819Z</time></trkpt><trkpt lat="42.6563186" lon="11.9260325"><ele>311.0</ele><time>2026-04-26T09:33:55.819Z</time></trkpt><trkpt lat="42.6563322" lon="11.9263421"><ele>311.0</ele><time>2026-04-26T09:33:56.82Z</time></trkpt><trkpt lat="42.6563447" lon="11.9266573"><ele>311.5</ele><time>2026-04-26T09:33:57.82Z</time></trkpt><trkpt lat="42.6563632" lon="11.9269688"><ele>312.0</ele><time>2026-04-26T09:33:58.819Z</time></trkpt><trkpt lat="42.6563829" lon="11.9272871"><ele>311.5</ele><time>2026-04-26T09:33:59.82Z</time></trkpt><trkpt lat="42.6564056" lon="11.927599"><ele>311.0</ele><time>2026-04-26T09:34:00.82Z</time></trkpt><trkpt lat="42.6564326" lon="11.9279094"><ele>311.0</ele><time>2026-04-26T09:34:01.819Z</time></trkpt><trkpt lat="42.6564598" lon="11.9282157"><ele>311.0</ele><time>2026-04-26T09:34:02.82Z</time></trkpt><trkpt lat="42.6564869" lon="11.9285234"><ele>311.33333333333337</ele><time>2026-04-26T09:34:03.82Z</time></trkpt><trkpt lat="42.6565114" lon="11.9288249"><ele>311.6666666666667</ele><time>2026-04-26T09:34:04.819Z</time></trkpt><trkpt lat="42.6565248" lon="11.9291262"><ele>312.0</ele><time>2026-04-26T09:34:05.82Z</time></trkpt><trkpt lat="42.6565228" lon="11.9294366"><ele>311.0</ele><time>2026-04-26T09:34:06.82Z</time></trkpt><trkpt lat="42.6565132" lon="11.9297468"><ele>310.0</ele><time>2026-04-26T09:34:07.82Z</time></trkpt><trkpt lat="42.6565099" lon="11.9300609"><ele>309.5</ele><time>2026-04-26T09:34:08.819Z</time></trkpt><trkpt lat="42.6565114" lon="11.9303769"><ele>309.0</ele><time>2026-04-26T09:34:09.82Z</time></trkpt><trkpt lat="42.656514" lon="11.9306992"><ele>309.5</ele><time>2026-04-26T09:34:10.82Z</time></trkpt><trkpt lat="42.6565281" lon="11.9310216"><ele>310.0</ele><time>2026-04-26T09:34:11.82Z</time></trkpt><trkpt lat="42.6565455" lon="11.9313447"><ele>310.0</ele><time>2026-04-26T09:34:12.819Z</time></trkpt><trkpt lat="42.6565689" lon="11.9316662"><ele>310.0</ele><time>2026-04-26T09:34:13.82Z</time></trkpt><trkpt lat="42.6565929" lon="11.9319853"><ele>311.0</ele><time>2026-04-26T09:34:14.82Z</time></trkpt><trkpt lat="42.6566184" lon="11.9323028"><ele>312.0</ele><time>2026-04-26T09:34:15.82Z</time></trkpt><trkpt lat="42.6566345" lon="11.9326136"><ele>312.0</ele><time>2026-04-26T09:34:16.82Z</time></trkpt><trkpt lat="42.6566469" lon="11.9329304"><ele>312.0</ele><time>2026-04-26T09:34:17.819Z</time></trkpt><trkpt lat="42.656647" lon="11.933244"><ele>311.5</ele><time>2026-04-26T09:34:18.82Z</time></trkpt><trkpt lat="42.6566368" lon="11.9335566"><ele>311.0</ele><time>2026-04-26T09:34:19.819Z</time></trkpt><trkpt lat="42.6566182" lon="11.9338731"><ele>311.0</ele><time>2026-04-26T09:34:20.82Z</time></trkpt><trkpt lat="42.6566016" lon="11.9341916"><ele>311.0</ele><time>2026-04-26T09:34:21.82Z</time></trkpt><trkpt lat="42.656585" lon="11.9345052"><ele>311.0</ele><time>2026-04-26T09:34:22.82Z</time></trkpt><trkpt lat="42.6565695" lon="11.9348159"><ele>311.0</ele><time>2026-04-26T09:34:23.82Z</time></trkpt><trkpt lat="42.6565521" lon="11.9351242"><ele>311.0</ele><time>2026-04-26T09:34:24.819Z</time></trkpt><trkpt lat="42.6565327" lon="11.9354262"><ele>311.0</ele><time>2026-04-26T09:34:25.82Z</time></trkpt><trkpt lat="42.6565094" lon="11.9357253"><ele>311.0</ele><time>2026-04-26T09:34:26.82Z</time></trkpt><trkpt lat="42.65648" lon="11.9360126"><ele>311.0</ele><time>2026-04-26T09:34:27.819Z</time></trkpt><trkpt lat="42.6564355" lon="11.9362886"><ele>311.0</ele><time>2026-04-26T09:34:28.82Z</time></trkpt><trkpt lat="42.656371" lon="11.9365627"><ele>311.0</ele><time>2026-04-26T09:34:29.82Z</time></trkpt><trkpt lat="42.6562823" lon="11.936836"><ele>311.0</ele><time>2026-04-26T09:34:30.82Z</time></trkpt><trkpt lat="42.6561711" lon="11.9370997"><ele>311.0</ele><time>2026-04-26T09:34:31.82Z</time></trkpt><trkpt lat="42.656059" lon="11.9373674"><ele>310.0</ele><time>2026-04-26T09:34:32.82Z</time></trkpt><trkpt lat="42.655944" lon="11.9376313"><ele>309.0</ele><time>2026-04-26T09:34:33.82Z</time></trkpt><trkpt lat="42.6558257" lon="11.9379015"><ele>309.0</ele><time>2026-04-26T09:34:34.82Z</time></trkpt><trkpt lat="42.6557132" lon="11.9381721"><ele>309.0</ele><time>2026-04-26T09:34:35.819Z</time></trkpt><trkpt lat="42.6556059" lon="11.9384445"><ele>309.5</ele><time>2026-04-26T09:34:36.82Z</time></trkpt><trkpt lat="42.6554915" lon="11.9387191"><ele>310.0</ele><time>2026-04-26T09:34:37.82Z</time></trkpt><trkpt lat="42.6553796" lon="11.9389979"><ele>309.5</ele><time>2026-04-26T09:34:38.82Z</time></trkpt><trkpt lat="42.655269" lon="11.9392741"><ele>309.0</ele><time>2026-04-26T09:34:39.82Z</time></trkpt><trkpt lat="42.6551579" lon="11.9395563"><ele>309.0</ele><time>2026-04-26T09:34:40.82Z</time></trkpt><trkpt lat="42.6550458" lon="11.9398388"><ele>309.0</ele><time>2026-04-26T09:34:41.82Z</time></trkpt><trkpt lat="42.6549407" lon="11.9401262"><ele>308.0</ele><time>2026-04-26T09:34:42.82Z</time></trkpt><trkpt lat="42.6548279" lon="11.9404128"><ele>307.0</ele><time>2026-04-26T09:34:43.82Z</time></trkpt><trkpt lat="42.6547194" lon="11.9406987"><ele>307.0</ele><time>2026-04-26T09:34:44.82Z</time></trkpt><trkpt lat="42.6546086" lon="11.9409852"><ele>307.0</ele><time>2026-04-26T09:34:45.82Z</time></trkpt><trkpt lat="42.6544979" lon="11.9412691"><ele>307.0</ele><time>2026-04-26T09:34:46.819Z</time></trkpt><trkpt lat="42.6543886" lon="11.941554"><ele>307.0</ele><time>2026-04-26T09:34:47.82Z</time></trkpt><trkpt lat="42.6542793" lon="11.9418385"><ele>306.0</ele><time>2026-04-26T09:34:48.819Z</time></trkpt><trkpt lat="42.6541692" lon="11.9421204"><ele>305.0</ele><time>2026-04-26T09:34:49.82Z</time></trkpt><trkpt lat="42.6540574" lon="11.9423996"><ele>306.0</ele><time>2026-04-26T09:34:50.82Z</time></trkpt><trkpt lat="42.6539499" lon="11.9426821"><ele>307.0</ele><time>2026-04-26T09:34:51.82Z</time></trkpt><trkpt lat="42.6538387" lon="11.942967"><ele>307.0</ele><time>2026-04-26T09:34:52.82Z</time></trkpt><trkpt lat="42.6537259" lon="11.9432493"><ele>307.0</ele><time>2026-04-26T09:34:53.82Z</time></trkpt><trkpt lat="42.653614" lon="11.9435268"><ele>307.0</ele><time>2026-04-26T09:34:54.82Z</time></trkpt><trkpt lat="42.6535035" lon="11.9437966"><ele>307.0</ele><time>2026-04-26T09:34:55.82Z</time></trkpt><trkpt lat="42.6533975" lon="11.944062"><ele>307.0</ele><time>2026-04-26T09:34:56.82Z</time></trkpt><trkpt lat="42.6532974" lon="11.9443172"><ele>307.0</ele><time>2026-04-26T09:34:57.82Z</time></trkpt><trkpt lat="42.6531981" lon="11.9445685"><ele>307.0</ele><time>2026-04-26T09:34:58.82Z</time></trkpt><trkpt lat="42.6530987" lon="11.9448102"><ele>307.0</ele><time>2026-04-26T09:34:59.82Z</time></trkpt><trkpt lat="42.652998" lon="11.9450464"><ele>307.0</ele><time>2026-04-26T09:35:00.819Z</time></trkpt><trkpt lat="42.6529018" lon="11.945281"><ele>307.0</ele><time>2026-04-26T09:35:01.819Z</time></trkpt><trkpt lat="42.65281" lon="11.9455144"><ele>307.0</ele><time>2026-04-26T09:35:02.819Z</time></trkpt><trkpt lat="42.6527229" lon="11.945752"><ele>306.66666666666663</ele><time>2026-04-26T09:35:03.82Z</time></trkpt><trkpt lat="42.6526531" lon="11.9459927"><ele>306.3333333333333</ele><time>2026-04-26T09:35:04.82Z</time></trkpt><trkpt lat="42.65261" lon="11.9462435"><ele>306.0</ele><time>2026-04-26T09:35:05.82Z</time></trkpt><trkpt lat="42.6525925" lon="11.9465082"><ele>305.6666666666667</ele><time>2026-04-26T09:35:06.82Z</time></trkpt><trkpt lat="42.652586" lon="11.946783"><ele>305.33333333333337</ele><time>2026-04-26T09:35:07.82Z</time></trkpt><trkpt lat="42.6525761" lon="11.9470545"><ele>305.0</ele><time>2026-04-26T09:35:08.82Z</time></trkpt><trkpt lat="42.6525568" lon="11.9473298"><ele>305.0</ele><time>2026-04-26T09:35:09.82Z</time></trkpt><trkpt lat="42.6525375" lon="11.9476063"><ele>305.0</ele><time>2026-04-26T09:35:10.82Z</time></trkpt><trkpt lat="42.6525151" lon="11.9478788"><ele>305.0</ele><time>2026-04-26T09:35:11.82Z</time></trkpt><trkpt lat="42.652496" lon="11.9481584"><ele>305.33333333333337</ele><time>2026-04-26T09:35:12.82Z</time></trkpt><trkpt lat="42.6524769" lon="11.948441"><ele>305.6666666666667</ele><time>2026-04-26T09:35:13.82Z</time></trkpt><trkpt lat="42.6524577" lon="11.9487268"><ele>306.0</ele><time>2026-04-26T09:35:14.82Z</time></trkpt><trkpt lat="42.6524329" lon="11.9490114"><ele>306.0</ele><time>2026-04-26T09:35:15.819Z</time></trkpt><trkpt lat="42.6524075" lon="11.9492991"><ele>306.0</ele><time>2026-04-26T09:35:16.82Z</time></trkpt><trkpt lat="42.6523812" lon="11.9495895"><ele>306.0</ele><time>2026-04-26T09:35:17.82Z</time></trkpt><trkpt lat="42.6523572" lon="11.9498789"><ele>306.3333333333333</ele><time>2026-04-26T09:35:18.819Z</time></trkpt><trkpt lat="42.6523303" lon="11.9501669"><ele>306.66666666666663</ele><time>2026-04-26T09:35:19.82Z</time></trkpt><trkpt lat="42.6523062" lon="11.950455"><ele>307.0</ele><time>2026-04-26T09:35:20.82Z</time></trkpt><trkpt lat="42.652286" lon="11.9507465"><ele>306.66666666666663</ele><time>2026-04-26T09:35:21.82Z</time></trkpt><trkpt lat="42.6522633" lon="11.9510335"><ele>306.3333333333333</ele><time>2026-04-26T09:35:22.82Z</time></trkpt><trkpt lat="42.6522409" lon="11.9513207"><ele>306.0</ele><time>2026-04-26T09:35:23.82Z</time></trkpt><trkpt lat="42.6522178" lon="11.9515971"><ele>306.3333333333333</ele><time>2026-04-26T09:35:24.82Z</time></trkpt><trkpt lat="42.6521959" lon="11.9518737"><ele>306.66666666666663</ele><time>2026-04-26T09:35:25.82Z</time></trkpt><trkpt lat="42.6521733" lon="11.9521468"><ele>307.0</ele><time>2026-04-26T09:35:26.82Z</time></trkpt><trkpt lat="42.6521478" lon="11.9524235"><ele>307.0</ele><time>2026-04-26T09:35:27.819Z</time></trkpt><trkpt lat="42.6521218" lon="11.9526971"><ele>307.0</ele><time>2026-04-26T09:35:28.819Z</time></trkpt><trkpt lat="42.6520932" lon="11.9529804"><ele>307.0</ele><time>2026-04-26T09:35:29.82Z</time></trkpt><trkpt lat="42.6520607" lon="11.9532686"><ele>307.0</ele><time>2026-04-26T09:35:30.82Z</time></trkpt><trkpt lat="42.6520236" lon="11.95356"><ele>307.0</ele><time>2026-04-26T09:35:31.82Z</time></trkpt><trkpt lat="42.6519851" lon="11.9538542"><ele>307.0</ele><time>2026-04-26T09:35:32.82Z</time></trkpt><trkpt lat="42.6519428" lon="11.9541418"><ele>307.0</ele><time>2026-04-26T09:35:33.82Z</time></trkpt><trkpt lat="42.6519035" lon="11.9544269"><ele>307.0</ele><time>2026-04-26T09:35:34.819Z</time></trkpt><trkpt lat="42.6518651" lon="11.95471"><ele>307.0</ele><time>2026-04-26T09:35:35.82Z</time></trkpt><trkpt lat="42.6518255" lon="11.9549869"><ele>307.66666666666663</ele><time>2026-04-26T09:35:36.82Z</time></trkpt><trkpt lat="42.651787" lon="11.9552504"><ele>308.3333333333333</ele><time>2026-04-26T09:35:37.819Z</time></trkpt><trkpt lat="42.6517527" lon="11.9555027"><ele>309.0</ele><time>2026-04-26T09:35:38.82Z</time></trkpt><trkpt lat="42.6517209" lon="11.9557493"><ele>308.6666666666667</ele><time>2026-04-26T09:35:39.819Z</time></trkpt><trkpt lat="42.6516921" lon="11.9560006"><ele>308.33333333333337</ele><time>2026-04-26T09:35:40.82Z</time></trkpt><trkpt lat="42.6516626" lon="11.9562626"><ele>308.0</ele><time>2026-04-26T09:35:41.82Z</time></trkpt><trkpt lat="42.6516352" lon="11.9565389"><ele>307.6666666666667</ele><time>2026-04-26T09:35:42.82Z</time></trkpt><trkpt lat="42.6515968" lon="11.9568268"><ele>307.3333333333333</ele><time>2026-04-26T09:35:43.82Z</time></trkpt><trkpt lat="42.651548" lon="11.9571197"><ele>307.0</ele><time>2026-04-26T09:35:44.82Z</time></trkpt><trkpt lat="42.6514979" lon="11.9574141"><ele>306.3333333333333</ele><time>2026-04-26T09:35:45.82Z</time></trkpt><trkpt lat="42.6514529" lon="11.9577127"><ele>305.6666666666667</ele><time>2026-04-26T09:35:46.82Z</time></trkpt><trkpt lat="42.6514097" lon="11.9580064"><ele>305.0</ele><time>2026-04-26T09:35:47.82Z</time></trkpt><trkpt lat="42.6513666" lon="11.958302"><ele>305.33333333333337</ele><time>2026-04-26T09:35:48.82Z</time></trkpt><trkpt lat="42.6513264" lon="11.9585949"><ele>305.6666666666667</ele><time>2026-04-26T09:35:49.82Z</time></trkpt><trkpt lat="42.6512886" lon="11.9588909"><ele>306.0</ele><time>2026-04-26T09:35:50.82Z</time></trkpt><trkpt lat="42.6512508" lon="11.9591871"><ele>306.3333333333333</ele><time>2026-04-26T09:35:51.82Z</time></trkpt><trkpt lat="42.6512094" lon="11.9594851"><ele>306.66666666666663</ele><time>2026-04-26T09:35:52.82Z</time></trkpt><trkpt lat="42.6511696" lon="11.9597847"><ele>307.0</ele><time>2026-04-26T09:35:53.82Z</time></trkpt><trkpt lat="42.6511347" lon="11.9600853"><ele>306.5</ele><time>2026-04-26T09:35:54.82Z</time></trkpt><trkpt lat="42.6510985" lon="11.9603877"><ele>306.0</ele><time>2026-04-26T09:35:55.82Z</time></trkpt><trkpt lat="42.6510607" lon="11.9606917"><ele>307.0</ele><time>2026-04-26T09:35:56.819Z</time></trkpt><trkpt lat="42.6510235" lon="11.9609993"><ele>308.0</ele><time>2026-04-26T09:35:57.819Z</time></trkpt><trkpt lat="42.650989" lon="11.9613106"><ele>308.0</ele><time>2026-04-26T09:35:58.82Z</time></trkpt><trkpt lat="42.6509548" lon="11.9616181"><ele>308.0</ele><time>2026-04-26T09:35:59.819Z</time></trkpt><trkpt lat="42.6509187" lon="11.9619225"><ele>307.5</ele><time>2026-04-26T09:36:00.82Z</time></trkpt><trkpt lat="42.6508812" lon="11.9622255"><ele>307.0</ele><time>2026-04-26T09:36:01.82Z</time></trkpt><trkpt lat="42.6508447" lon="11.9625301"><ele>307.0</ele><time>2026-04-26T09:36:02.82Z</time></trkpt><trkpt lat="42.6508079" lon="11.9628316"><ele>307.0</ele><time>2026-04-26T09:36:03.82Z</time></trkpt><trkpt lat="42.6507691" lon="11.9631282"><ele>307.0</ele><time>2026-04-26T09:36:04.82Z</time></trkpt><trkpt lat="42.6507318" lon="11.9634236"><ele>307.0</ele><time>2026-04-26T09:36:05.82Z</time></trkpt><trkpt lat="42.6507019" lon="11.9637134"><ele>307.0</ele><time>2026-04-26T09:36:06.819Z</time></trkpt><trkpt lat="42.6506671" lon="11.9640009"><ele>307.0</ele><time>2026-04-26T09:36:07.82Z</time></trkpt><trkpt lat="42.6506278" lon="11.9642795"><ele>307.0</ele><time>2026-04-26T09:36:08.82Z</time></trkpt><trkpt lat="42.6505865" lon="11.964559"><ele>307.0</ele><time>2026-04-26T09:36:09.82Z</time></trkpt><trkpt lat="42.6505458" lon="11.9648332"><ele>307.0</ele><time>2026-04-26T09:36:10.82Z</time></trkpt><trkpt lat="42.6505053" lon="11.9651044"><ele>307.0</ele><time>2026-04-26T09:36:11.82Z</time></trkpt><trkpt lat="42.6504685" lon="11.9653791"><ele>307.0</ele><time>2026-04-26T09:36:12.82Z</time></trkpt><trkpt lat="42.6504319" lon="11.9656531"><ele>307.0</ele><time>2026-04-26T09:36:13.82Z</time></trkpt><trkpt lat="42.6503945" lon="11.965923"><ele>307.0</ele><time>2026-04-26T09:36:14.82Z</time></trkpt><trkpt lat="42.6503555" lon="11.9661808"><ele>307.0</ele><time>2026-04-26T09:36:15.819Z</time></trkpt><trkpt lat="42.6503168" lon="11.9664379"><ele>307.0</ele><time>2026-04-26T09:36:16.82Z</time></trkpt><trkpt lat="42.6502738" lon="11.9666873"><ele>307.0</ele><time>2026-04-26T09:36:17.819Z</time></trkpt><trkpt lat="42.65023" lon="11.966932"><ele>307.0</ele><time>2026-04-26T09:36:18.82Z</time></trkpt><trkpt lat="42.6501866" lon="11.9671786"><ele>307.0</ele><time>2026-04-26T09:36:19.819Z</time></trkpt><trkpt lat="42.6501436" lon="11.9674192"><ele>307.0</ele><time>2026-04-26T09:36:20.82Z</time></trkpt><trkpt lat="42.6501018" lon="11.9676477"><ele>307.0</ele><time>2026-04-26T09:36:21.82Z</time></trkpt><trkpt lat="42.6500598" lon="11.9678683"><ele>307.0</ele><time>2026-04-26T09:36:22.82Z</time></trkpt><trkpt lat="42.6500168" lon="11.9680849"><ele>307.0</ele><time>2026-04-26T09:36:23.819Z</time></trkpt><trkpt lat="42.6499731" lon="11.968296"><ele>307.0</ele><time>2026-04-26T09:36:24.82Z</time></trkpt><trkpt lat="42.6499346" lon="11.9684982"><ele>307.0</ele><time>2026-04-26T09:36:25.82Z</time></trkpt><trkpt lat="42.649892" lon="11.9686972"><ele>307.0</ele><time>2026-04-26T09:36:26.819Z</time></trkpt><trkpt lat="42.6498483" lon="11.9688948"><ele>307.0</ele><time>2026-04-26T09:36:27.82Z</time></trkpt><trkpt lat="42.6498032" lon="11.969089"><ele>307.0</ele><time>2026-04-26T09:36:28.819Z</time></trkpt><trkpt lat="42.6497584" lon="11.969283"><ele>306.66666666666663</ele><time>2026-04-26T09:36:29.82Z</time></trkpt><trkpt lat="42.6497093" lon="11.9694791"><ele>306.3333333333333</ele><time>2026-04-26T09:36:30.819Z</time></trkpt><trkpt lat="42.649659" lon="11.9696753"><ele>306.0</ele><time>2026-04-26T09:36:31.82Z</time></trkpt><trkpt lat="42.6496089" lon="11.9698714"><ele>306.25</ele><time>2026-04-26T09:36:32.82Z</time></trkpt><trkpt lat="42.6495612" lon="11.9700643"><ele>306.5</ele><time>2026-04-26T09:36:33.82Z</time></trkpt><trkpt lat="42.6495136" lon="11.9702527"><ele>306.75</ele><time>2026-04-26T09:36:34.82Z</time></trkpt><trkpt lat="42.6494663" lon="11.9704475"><ele>307.0</ele><time>2026-04-26T09:36:35.819Z</time></trkpt><trkpt lat="42.6494145" lon="11.9706374"><ele>307.0</ele><time>2026-04-26T09:36:36.82Z</time></trkpt><trkpt lat="42.6493657" lon="11.9708272"><ele>307.0</ele><time>2026-04-26T09:36:37.82Z</time></trkpt><trkpt lat="42.6493172" lon="11.9710161"><ele>307.0</ele><time>2026-04-26T09:36:38.819Z</time></trkpt><trkpt lat="42.6492695" lon="11.9711999"><ele>307.0</ele><time>2026-04-26T09:36:39.82Z</time></trkpt><trkpt lat="42.649222" lon="11.9713882"><ele>306.75</ele><time>2026-04-26T09:36:40.82Z</time></trkpt><trkpt lat="42.6491732" lon="11.9715809"><ele>306.5</ele><time>2026-04-26T09:36:41.82Z</time></trkpt><trkpt lat="42.6491256" lon="11.9717751"><ele>306.25</ele><time>2026-04-26T09:36:42.82Z</time></trkpt><trkpt lat="42.6490759" lon="11.9719659"><ele>306.0</ele><time>2026-04-26T09:36:43.819Z</time></trkpt><trkpt lat="42.6490287" lon="11.9721608"><ele>306.0</ele><time>2026-04-26T09:36:44.819Z</time></trkpt><trkpt lat="42.6489841" lon="11.9723628"><ele>306.0</ele><time>2026-04-26T09:36:45.82Z</time></trkpt><trkpt lat="42.6489423" lon="11.9725639"><ele>306.0</ele><time>2026-04-26T09:36:46.819Z</time></trkpt><trkpt lat="42.6488953" lon="11.9727693"><ele>306.3333333333333</ele><time>2026-04-26T09:36:47.819Z</time></trkpt><trkpt lat="42.6488529" lon="11.9729694"><ele>306.66666666666663</ele><time>2026-04-26T09:36:48.82Z</time></trkpt><trkpt lat="42.6488084" lon="11.9731742"><ele>307.0</ele><time>2026-04-26T09:36:49.82Z</time></trkpt><trkpt lat="42.6487659" lon="11.9733733"><ele>307.66666666666663</ele><time>2026-04-26T09:36:50.82Z</time></trkpt><trkpt lat="42.6487226" lon="11.9735718"><ele>308.3333333333333</ele><time>2026-04-26T09:36:51.82Z</time></trkpt><trkpt lat="42.6486836" lon="11.9737698"><ele>309.0</ele><time>2026-04-26T09:36:52.82Z</time></trkpt><trkpt lat="42.6486429" lon="11.9739679"><ele>308.6666666666667</ele><time>2026-04-26T09:36:53.82Z</time></trkpt><trkpt lat="42.6485994" lon="11.9741645"><ele>308.33333333333337</ele><time>2026-04-26T09:36:54.82Z</time></trkpt><trkpt lat="42.6485524" lon="11.9743594"><ele>308.0</ele><time>2026-04-26T09:36:55.82Z</time></trkpt><trkpt lat="42.648507" lon="11.9745561"><ele>308.0</ele><time>2026-04-26T09:36:56.82Z</time></trkpt><trkpt lat="42.6484593" lon="11.9747525"><ele>308.0</ele><time>2026-04-26T09:36:57.82Z</time></trkpt><trkpt lat="42.6484143" lon="11.9749485"><ele>308.0</ele><time>2026-04-26T09:36:58.82Z</time></trkpt><trkpt lat="42.6483671" lon="11.9751446"><ele>308.25</ele><time>2026-04-26T09:36:59.82Z</time></trkpt><trkpt lat="42.6483222" lon="11.9753381"><ele>308.5</ele><time>2026-04-26T09:37:00.82Z</time></trkpt><trkpt lat="42.6482749" lon="11.9755323"><ele>308.75</ele><time>2026-04-26T09:37:01.819Z</time></trkpt><trkpt lat="42.6482286" lon="11.9757216"><ele>309.0</ele><time>2026-04-26T09:37:02.82Z</time></trkpt><trkpt lat="42.6481805" lon="11.9759125"><ele>309.5</ele><time>2026-04-26T09:37:03.82Z</time></trkpt><trkpt lat="42.6481339" lon="11.9761039"><ele>310.0</ele><time>2026-04-26T09:37:04.82Z</time></trkpt><trkpt lat="42.6480853" lon="11.976295"><ele>310.5</ele><time>2026-04-26T09:37:05.82Z</time></trkpt><trkpt lat="42.6480398" lon="11.9764832"><ele>311.0</ele><time>2026-04-26T09:37:06.82Z</time></trkpt><trkpt lat="42.6479921" lon="11.9766736"><ele>311.5</ele><time>2026-04-26T09:37:07.819Z</time></trkpt><trkpt lat="42.6479428" lon="11.976863"><ele>312.0</ele><time>2026-04-26T09:37:08.82Z</time></trkpt><trkpt lat="42.6478961" lon="11.9770514"><ele>312.5</ele><time>2026-04-26T09:37:09.82Z</time></trkpt><trkpt lat="42.6478521" lon="11.9772317"><ele>313.0</ele><time>2026-04-26T09:37:10.82Z</time></trkpt><trkpt lat="42.6478105" lon="11.9773985"><ele>313.0</ele><time>2026-04-26T09:37:11.82Z</time></trkpt><trkpt lat="42.6477713" lon="11.9775515"><ele>313.0</ele><time>2026-04-26T09:37:12.819Z</time></trkpt><trkpt lat="42.6477346" lon="11.9776886"><ele>313.0</ele><time>2026-04-26T09:37:13.819Z</time></trkpt><trkpt lat="42.6477011" lon="11.9778167"><ele>313.0</ele><time>2026-04-26T09:37:14.82Z</time></trkpt><trkpt lat="42.6476694" lon="11.977946"><ele>313.0</ele><time>2026-04-26T09:37:15.819Z</time></trkpt><trkpt lat="42.6476437" lon="11.9780695"><ele>313.0</ele><time>2026-04-26T09:37:16.82Z</time></trkpt><trkpt lat="42.6476156" lon="11.9781889"><ele>313.0</ele><time>2026-04-26T09:37:17.819Z</time></trkpt><trkpt lat="42.6475845" lon="11.9783074"><ele>313.0</ele><time>2026-04-26T09:37:18.819Z</time></trkpt><trkpt lat="42.6475532" lon="11.9784295"><ele>313.0</ele><time>2026-04-26T09:37:19.819Z</time></trkpt><trkpt lat="42.6475274" lon="11.9785561"><ele>313.0</ele><time>2026-04-26T09:37:20.82Z</time></trkpt><trkpt lat="42.6474903" lon="11.978687"><ele>313.2</ele><time>2026-04-26T09:37:21.82Z</time></trkpt><trkpt lat="42.6474563" lon="11.9788219"><ele>313.4</ele><time>2026-04-26T09:37:22.82Z</time></trkpt><trkpt lat="42.6474211" lon="11.9789455"><ele>313.59999999999997</ele><time>2026-04-26T09:37:23.82Z</time></trkpt><trkpt lat="42.6473877" lon="11.9790698"><ele>313.8</ele><time>2026-04-26T09:37:24.819Z</time></trkpt><trkpt lat="42.6473534" lon="11.979194"><ele>314.0</ele><time>2026-04-26T09:37:25.82Z</time></trkpt><trkpt lat="42.6473163" lon="11.9793275"><ele>315.0</ele><time>2026-04-26T09:37:26.82Z</time></trkpt><trkpt lat="42.6472831" lon="11.9794629"><ele>316.0</ele><time>2026-04-26T09:37:27.819Z</time></trkpt><trkpt lat="42.647246" lon="11.9795982"><ele>317.0</ele><time>2026-04-26T09:37:28.82Z</time></trkpt><trkpt lat="42.6472089" lon="11.9797361"><ele>318.0</ele><time>2026-04-26T09:37:29.819Z</time></trkpt><trkpt lat="42.6471702" lon="11.9798765"><ele>319.0</ele><time>2026-04-26T09:37:30.819Z</time></trkpt><trkpt lat="42.6471336" lon="11.9800218"><ele>319.5</ele><time>2026-04-26T09:37:31.82Z</time></trkpt><trkpt lat="42.6470963" lon="11.9801644"><ele>320.0</ele><time>2026-04-26T09:37:32.82Z</time></trkpt><trkpt lat="42.6470561" lon="11.9803091"><ele>320.5</ele><time>2026-04-26T09:37:33.819Z</time></trkpt><trkpt lat="42.6470164" lon="11.9804546"><ele>321.0</ele><time>2026-04-26T09:37:34.819Z</time></trkpt><trkpt lat="42.6469812" lon="11.9806041"><ele>320.2</ele><time>2026-04-26T09:37:35.82Z</time></trkpt><trkpt lat="42.6469442" lon="11.9807486"><ele>319.40000000000003</ele><time>2026-04-26T09:37:36.82Z</time></trkpt><trkpt lat="42.6469081" lon="11.980882"><ele>318.6</ele><time>2026-04-26T09:37:37.82Z</time></trkpt><trkpt lat="42.6468713" lon="11.9810117"><ele>317.8</ele><time>2026-04-26T09:37:38.819Z</time></trkpt><trkpt lat="42.6468416" lon="11.981138"><ele>317.0</ele><time>2026-04-26T09:37:39.82Z</time></trkpt><trkpt lat="42.6468143" lon="11.9812607"><ele>317.0</ele><time>2026-04-26T09:37:40.82Z</time></trkpt><trkpt lat="42.6467855" lon="11.9813756"><ele>317.0</ele><time>2026-04-26T09:37:41.819Z</time></trkpt><trkpt lat="42.6467542" lon="11.9814884"><ele>317.0</ele><time>2026-04-26T09:37:42.819Z</time></trkpt><trkpt lat="42.6467222" lon="11.9816044"><ele>317.0</ele><time>2026-04-26T09:37:43.819Z</time></trkpt><trkpt lat="42.6466882" lon="11.9817292"><ele>317.0</ele><time>2026-04-26T09:37:44.818Z</time></trkpt><trkpt lat="42.6466516" lon="11.9818598"><ele>317.6</ele><time>2026-04-26T09:37:45.819Z</time></trkpt><trkpt lat="42.6466209" lon="11.9819872"><ele>318.2</ele><time>2026-04-26T09:37:46.818Z</time></trkpt><trkpt lat="42.646583" lon="11.9821135"><ele>318.8</ele><time>2026-04-26T09:37:47.819Z</time></trkpt><trkpt lat="42.6465438" lon="11.9822395"><ele>319.4</ele><time>2026-04-26T09:37:48.819Z</time></trkpt><trkpt lat="42.6465019" lon="11.9823662"><ele>320.0</ele><time>2026-04-26T09:37:49.819Z</time></trkpt><trkpt lat="42.6464578" lon="11.9824935"><ele>320.2</ele><time>2026-04-26T09:37:50.818Z</time></trkpt><trkpt lat="42.6464077" lon="11.9826244"><ele>320.4</ele><time>2026-04-26T09:37:51.818Z</time></trkpt><trkpt lat="42.6463509" lon="11.9827482"><ele>320.6</ele><time>2026-04-26T09:37:52.819Z</time></trkpt><trkpt lat="42.6462832" lon="11.9828682"><ele>320.8</ele><time>2026-04-26T09:37:53.819Z</time></trkpt><trkpt lat="42.646207" lon="11.9829759"><ele>321.0</ele><time>2026-04-26T09:37:54.819Z</time></trkpt><trkpt lat="42.6461296" lon="11.9830841"><ele>320.8</ele><time>2026-04-26T09:37:55.819Z</time></trkpt><trkpt lat="42.6460606" lon="11.9831922"><ele>320.6</ele><time>2026-04-26T09:37:56.819Z</time></trkpt><trkpt lat="42.6459916" lon="11.983296"><ele>320.4</ele><time>2026-04-26T09:37:57.819Z</time></trkpt><trkpt lat="42.6459256" lon="11.9833927"><ele>320.2</ele><time>2026-04-26T09:37:58.819Z</time></trkpt><trkpt lat="42.6458588" lon="11.9834801"><ele>320.0</ele><time>2026-04-26T09:37:59.819Z</time></trkpt><trkpt lat="42.6457956" lon="11.9835714"><ele>320.0</ele><time>2026-04-26T09:38:00.818Z</time></trkpt><trkpt lat="42.6457337" lon="11.9836596"><ele>320.0</ele><time>2026-04-26T09:38:01.819Z</time></trkpt><trkpt lat="42.6456745" lon="11.9837422"><ele>320.0</ele><time>2026-04-26T09:38:02.819Z</time></trkpt><trkpt lat="42.6456163" lon="11.9838262"><ele>320.0</ele><time>2026-04-26T09:38:03.819Z</time></trkpt><trkpt lat="42.6455555" lon="11.9839043"><ele>320.0</ele><time>2026-04-26T09:38:04.819Z</time></trkpt><trkpt lat="42.645498" lon="11.9839843"><ele>320.0</ele><time>2026-04-26T09:38:05.818Z</time></trkpt><trkpt lat="42.6454483" lon="11.9840613"><ele>320.0</ele><time>2026-04-26T09:38:06.818Z</time></trkpt><trkpt lat="42.6453936" lon="11.9841432"><ele>320.0</ele><time>2026-04-26T09:38:07.818Z</time></trkpt><trkpt lat="42.6453397" lon="11.9842173"><ele>320.0</ele><time>2026-04-26T09:38:08.818Z</time></trkpt><trkpt lat="42.6452847" lon="11.984297"><ele>320.0</ele><time>2026-04-26T09:38:09.819Z</time></trkpt><trkpt lat="42.6452385" lon="11.9843707"><ele>320.0</ele><time>2026-04-26T09:38:10.819Z</time></trkpt><trkpt lat="42.6451973" lon="11.9844389"><ele>320.0</ele><time>2026-04-26T09:38:11.819Z</time></trkpt><trkpt lat="42.6451591" lon="11.9845083"><ele>320.0</ele><time>2026-04-26T09:38:12.819Z</time></trkpt><trkpt lat="42.6451242" lon="11.9845848"><ele>319.5</ele><time>2026-04-26T09:38:13.818Z</time></trkpt><trkpt lat="42.6450928" lon="11.9846607"><ele>319.0</ele><time>2026-04-26T09:38:14.819Z</time></trkpt><trkpt lat="42.6450554" lon="11.9847334"><ele>318.5</ele><time>2026-04-26T09:38:15.818Z</time></trkpt><trkpt lat="42.6450113" lon="11.9848007"><ele>318.0</ele><time>2026-04-26T09:38:16.818Z</time></trkpt><trkpt lat="42.6449285" lon="11.9849265"><ele>317.5</ele><time>2026-04-26T09:38:18.818Z</time></trkpt><trkpt lat="42.6448852" lon="11.9849948"><ele>317.0</ele><time>2026-04-26T09:38:19.819Z</time></trkpt><trkpt lat="42.6448364" lon="11.9850629"><ele>318.5</ele><time>2026-04-26T09:38:20.819Z</time></trkpt><trkpt lat="42.6447844" lon="11.9851211"><ele>320.0</ele><time>2026-04-26T09:38:21.818Z</time></trkpt><trkpt lat="42.6447365" lon="11.9851816"><ele>321.5</ele><time>2026-04-26T09:38:22.818Z</time></trkpt><trkpt lat="42.6446904" lon="11.9852427"><ele>323.0</ele><time>2026-04-26T09:38:23.819Z</time></trkpt><trkpt lat="42.6446029" lon="11.9853402"><ele>324.5</ele><time>2026-04-26T09:38:25.818Z</time></trkpt><trkpt lat="42.644542" lon="11.9854353"><ele>326.0</ele><time>2026-04-26T09:38:27.819Z</time></trkpt><trkpt lat="42.6444793" lon="11.9855336"><ele>324.8</ele><time>2026-04-26T09:38:29.818Z</time></trkpt><trkpt lat="42.6444168" lon="11.9856486"><ele>323.6</ele><time>2026-04-26T09:38:31.818Z</time></trkpt><trkpt lat="42.6443549" lon="11.9857688"><ele>322.4</ele><time>2026-04-26T09:38:33.819Z</time></trkpt><trkpt lat="42.6443043" lon="11.9858785"><ele>321.2</ele><time>2026-04-26T09:38:35.818Z</time></trkpt><trkpt lat="42.6442744" lon="11.9859996"><ele>320.0</ele><time>2026-04-26T09:38:37.819Z</time></trkpt><trkpt lat="42.644246" lon="11.9861048"><ele>320.0</ele><time>2026-04-26T09:38:39.819Z</time></trkpt><trkpt lat="42.6442141" lon="11.98621"><ele>320.0</ele><time>2026-04-26T09:39:03.819Z</time></trkpt><trkpt lat="42.6441869" lon="11.986289"><ele>320.0</ele><time>2026-04-26T09:39:05.818Z</time></trkpt><trkpt lat="42.6441234" lon="11.9863877"><ele>320.0</ele><time>2026-04-26T09:39:08.819Z</time></trkpt><trkpt lat="42.6440604" lon="11.986409"><ele>320.0</ele><time>2026-04-26T09:39:10.818Z</time></trkpt><trkpt lat="42.643986" lon="11.9863261"><ele>320.0</ele><time>2026-04-26T09:39:12.819Z</time></trkpt><trkpt lat="42.6439035" lon="11.9861992"><ele>320.0</ele><time>2026-04-26T09:39:14.819Z</time></trkpt><trkpt lat="42.643857" lon="11.9861398"><ele>320.0</ele><time>2026-04-26T09:39:15.819Z</time></trkpt><trkpt lat="42.6437664" lon="11.9860307"><ele>320.0</ele><time>2026-04-26T09:39:17.818Z</time></trkpt><trkpt lat="42.6436702" lon="11.9859196"><ele>320.0</ele><time>2026-04-26T09:39:19.819Z</time></trkpt><trkpt lat="42.6436256" lon="11.9858572"><ele>320.0</ele><time>2026-04-26T09:39:20.818Z</time></trkpt><trkpt lat="42.6435807" lon="11.9857836"><ele>320.0</ele><time>2026-04-26T09:39:21.818Z</time></trkpt><trkpt lat="42.6434971" lon="11.985667"><ele>319.33333333333337</ele><time>2026-04-26T09:39:23.819Z</time></trkpt><trkpt lat="42.6434524" lon="11.9856046"><ele>318.6666666666667</ele><time>2026-04-26T09:39:24.819Z</time></trkpt><trkpt lat="42.6434033" lon="11.9855337"><ele>318.0</ele><time>2026-04-26T09:39:25.819Z</time></trkpt><trkpt lat="42.643317" lon="11.9854293"><ele>317.3333333333333</ele><time>2026-04-26T09:39:27.819Z</time></trkpt><trkpt lat="42.6432713" lon="11.9853531"><ele>316.66666666666663</ele><time>2026-04-26T09:39:28.819Z</time></trkpt><trkpt lat="42.6432212" lon="11.9852888"><ele>316.0</ele><time>2026-04-26T09:39:29.818Z</time></trkpt><trkpt lat="42.6431707" lon="11.9852156"><ele>316.0</ele><time>2026-04-26T09:39:30.819Z</time></trkpt><trkpt lat="42.6431166" lon="11.9851388"><ele>316.0</ele><time>2026-04-26T09:39:31.819Z</time></trkpt><trkpt lat="42.6430686" lon="11.9850766"><ele>316.0</ele><time>2026-04-26T09:39:32.818Z</time></trkpt><trkpt lat="42.6430176" lon="11.985015"><ele>316.0</ele><time>2026-04-26T09:39:33.818Z</time></trkpt><trkpt lat="42.6429715" lon="11.9849508"><ele>316.0</ele><time>2026-04-26T09:39:34.819Z</time></trkpt><trkpt lat="42.6429219" lon="11.9848864"><ele>316.0</ele><time>2026-04-26T09:39:35.819Z</time></trkpt><trkpt lat="42.6428274" lon="11.9847632"><ele>315.2</ele><time>2026-04-26T09:39:37.818Z</time></trkpt><trkpt lat="42.6427743" lon="11.9846949"><ele>314.40000000000003</ele><time>2026-04-26T09:39:38.818Z</time></trkpt><trkpt lat="42.6427254" lon="11.9846372"><ele>313.6</ele><time>2026-04-26T09:39:39.819Z</time></trkpt><trkpt lat="42.6426352" lon="11.9845224"><ele>312.8</ele><time>2026-04-26T09:39:41.819Z</time></trkpt><trkpt lat="42.642549" lon="11.9844076"><ele>312.0</ele><time>2026-04-26T09:39:43.819Z</time></trkpt><trkpt lat="42.6424646" lon="11.9842892"><ele>312.0</ele><time>2026-04-26T09:39:45.819Z</time></trkpt><trkpt lat="42.6424137" lon="11.9842315"><ele>312.0</ele><time>2026-04-26T09:39:46.819Z</time></trkpt><trkpt lat="42.6423254" lon="11.9841225"><ele>312.0</ele><time>2026-04-26T09:39:48.818Z</time></trkpt><trkpt lat="42.6422429" lon="11.9840112"><ele>312.0</ele><time>2026-04-26T09:39:50.819Z</time></trkpt><trkpt lat="42.6421754" lon="11.9839301"><ele>312.0</ele><time>2026-04-26T09:39:52.819Z</time></trkpt><trkpt lat="42.642089" lon="11.983833"><ele>312.0</ele><time>2026-04-26T09:39:54.819Z</time></trkpt><trkpt lat="42.6420151" lon="11.9837309"><ele>312.0</ele><time>2026-04-26T09:39:56.819Z</time></trkpt><trkpt lat="42.6419346" lon="11.9836055"><ele>312.0</ele><time>2026-04-26T09:39:58.819Z</time></trkpt><trkpt lat="42.6418883" lon="11.9835413"><ele>312.0</ele><time>2026-04-26T09:39:59.819Z</time></trkpt><trkpt lat="42.6418012" lon="11.9834211"><ele>312.0</ele><time>2026-04-26T09:40:01.819Z</time></trkpt><trkpt lat="42.6417279" lon="11.9833149"><ele>311.4</ele><time>2026-04-26T09:40:03.819Z</time></trkpt><trkpt lat="42.6416476" lon="11.98321"><ele>310.79999999999995</ele><time>2026-04-26T09:40:05.819Z</time></trkpt><trkpt lat="42.6415635" lon="11.9831072"><ele>310.2</ele><time>2026-04-26T09:40:07.818Z</time></trkpt><trkpt lat="42.6414775" lon="11.9830005"><ele>309.59999999999997</ele><time>2026-04-26T09:40:09.819Z</time></trkpt><trkpt lat="42.6414104" lon="11.9829081"><ele>309.0</ele><time>2026-04-26T09:40:11.819Z</time></trkpt><trkpt lat="42.6413517" lon="11.9828341"><ele>309.0</ele><time>2026-04-26T09:40:13.819Z</time></trkpt><trkpt lat="42.6413008" lon="11.982755"><ele>309.0</ele><time>2026-04-26T09:40:15.819Z</time></trkpt><trkpt lat="42.6413014" lon="11.9826647"><ele>309.0</ele><time>2026-04-26T09:40:17.818Z</time></trkpt><trkpt lat="42.6413436" lon="11.982538"><ele>309.0</ele><time>2026-04-26T09:40:19.819Z</time></trkpt><trkpt lat="42.641363" lon="11.9824362"><ele>309.0</ele><time>2026-04-26T09:40:21.819Z</time></trkpt><trkpt lat="42.6413447" lon="11.9823517"><ele>309.0</ele><time>2026-04-26T09:40:23.819Z</time></trkpt><trkpt lat="42.6413153" lon="11.9822716"><ele>309.00000000000006</ele><time>2026-04-26T09:40:25.818Z</time></trkpt><trkpt lat="42.641277" lon="11.9821918"><ele>309.0</ele><time>2026-04-26T09:40:27.819Z</time></trkpt><trkpt lat="42.6412209" lon="11.9821478"><ele>309.0</ele><time>2026-04-26T09:40:29.819Z</time></trkpt><trkpt lat="42.6411402" lon="11.9821582"><ele>309.0</ele><time>2026-04-26T09:40:32.818Z</time></trkpt><trkpt lat="42.6410561" lon="11.9821753"><ele>309.0</ele><time>2026-04-26T09:40:36.819Z</time></trkpt><trkpt lat="42.6409918" lon="11.9822043"><ele>309.00000000000006</ele><time>2026-04-26T09:40:39.818Z</time></trkpt><trkpt lat="42.6409291" lon="11.9822584"><ele>309.0</ele><time>2026-04-26T09:40:42.818Z</time></trkpt><trkpt lat="42.6408768" lon="11.9823289"><ele>309.00000000000006</ele><time>2026-04-26T09:40:45.819Z</time></trkpt><trkpt lat="42.6408276" lon="11.9824127"><ele>309.0</ele><time>2026-04-26T09:40:48.818Z</time></trkpt><trkpt lat="42.6407686" lon="11.9824674"><ele>309.0</ele><time>2026-04-26T09:40:51.818Z</time></trkpt><trkpt lat="42.6407251" lon="11.9825353"><ele>309.0</ele><time>2026-04-26T09:40:54.819Z</time></trkpt><trkpt lat="42.6407453" lon="11.9826257"><ele>309.0</ele><time>2026-04-26T09:40:58.818Z</time></trkpt><trkpt lat="42.640807" lon="11.9827133"><ele>309.00000000000006</ele><time>2026-04-26T09:41:01.818Z</time></trkpt><trkpt lat="42.640853" lon="11.9827762"><ele>309.0</ele><time>2026-04-26T09:41:04.818Z</time></trkpt><trkpt lat="42.6409113" lon="11.9828419"><ele>309.0</ele><time>2026-04-26T09:41:07.819Z</time></trkpt><trkpt lat="42.6409754" lon="11.9828772"><ele>309.0</ele><time>2026-04-26T09:41:09.819Z</time></trkpt><trkpt lat="42.6410768" lon="11.9829056"><ele>309.0</ele><time>2026-04-26T09:41:11.819Z</time></trkpt><trkpt lat="42.6411613" lon="11.9828719"><ele>309.0</ele><time>2026-04-26T09:41:13.819Z</time></trkpt><trkpt lat="42.641245" lon="11.9827735"><ele>309.0</ele><time>2026-04-26T09:41:15.819Z</time></trkpt><trkpt lat="42.6412838" lon="11.982702"><ele>309.0</ele><time>2026-04-26T09:41:16.818Z</time></trkpt><trkpt lat="42.6413539" lon="11.9825893"><ele>309.0</ele><time>2026-04-26T09:41:18.818Z</time></trkpt><trkpt lat="42.6413693" lon="11.9824569"><ele>308.0</ele><time>2026-04-26T09:41:20.819Z</time></trkpt><trkpt lat="42.6413247" lon="11.9823211"><ele>308.0</ele><time>2026-04-26T09:41:22.819Z</time></trkpt><trkpt lat="42.6412915" lon="11.9822215"><ele>308.0</ele><time>2026-04-26T09:41:24.819Z</time></trkpt><trkpt lat="42.6412485" lon="11.9821396"><ele>308.0</ele><time>2026-04-26T09:41:27.819Z</time></trkpt><trkpt lat="42.6411895" lon="11.9820984"><ele>308.0</ele><time>2026-04-26T09:41:29.818Z</time></trkpt></trkseg></trk></gpx>